Wetterdaten: Mittwoch, 14.01.2026
Datum Zeit Temp. I. Temp. A. Feuchte I. Feuchte A. Luftdruck Regen Wind Richtung Richtung Sonnenschein Solar Taupunkt Windchill Windböen
14.01.2026 00:00 21,8 °C 3,6 °C 49 % 93 % 1012,1 hPa 0,0 l/m² 0,0 km/h (0 Bft) S-SO 161 ° 0 min 0 W/m² 2,6 °C 3,6 °C 0,0 km/h (0 Bft)
14.01.2026 00:01 21,8 °C 3,6 °C 49 % 93 % 1012,1 hPa 0,0 l/m² 0,0 km/h (0 Bft) S-SO 161 ° 0 min 0 W/m² 2,6 °C 3,6 °C 0,0 km/h (0 Bft)
14.01.2026 00:02 21,8 °C 3,6 °C 49 % 93 % 1012,1 hPa 0,0 l/m² 0,0 km/h (0 Bft) S-SO 161 ° 0 min 0 W/m² 2,6 °C 3,6 °C 0,0 km/h (0 Bft)
14.01.2026 00:03 21,8 °C 3,6 °C 49 % 93 % 1012,0 hPa 0,0 l/m² 0,0 km/h (0 Bft) S-SO 161 ° 0 min 0 W/m² 2,6 °C 3,6 °C 0,0 km/h (0 Bft)
14.01.2026 00:05 21,8 °C 3,5 °C 49 % 93 % 1012,0 hPa 0,0 l/m² 0,0 km/h (0 Bft) S-SO 161 ° 0 min 0 W/m² 2,5 °C 3,5 °C 1,6 km/h (1 Bft)
14.01.2026 00:06 21,8 °C 3,5 °C 49 % 93 % 1011,9 hPa 0,0 l/m² 0,0 km/h (0 Bft) S-SO 161 ° 0 min 0 W/m² 2,5 °C 3,5 °C 0,0 km/h (0 Bft)
14.01.2026 00:08 21,8 °C 3,5 °C 49 % 93 % 1011,9 hPa 0,0 l/m² 0,0 km/h (0 Bft) S-SO 161 ° 0 min 0 W/m² 2,5 °C 3,5 °C 0,0 km/h (0 Bft)
14.01.2026 00:09 21,8 °C 3,5 °C 49 % 93 % 1011,9 hPa 0,0 l/m² 0,0 km/h (0 Bft) S-SO 161 ° 0 min 0 W/m² 2,5 °C 3,5 °C 0,0 km/h (0 Bft)
14.01.2026 00:10 21,8 °C 3,5 °C 49 % 93 % 1012,0 hPa 0,0 l/m² 0,0 km/h (0 Bft) S-SO 161 ° 0 min 0 W/m² 2,5 °C 3,5 °C 0,0 km/h (0 Bft)
14.01.2026 00:11 21,8 °C 3,5 °C 49 % 93 % 1011,9 hPa 0,0 l/m² 0,0 km/h (0 Bft) S-SO 161 ° 0 min 0 W/m² 2,5 °C 3,5 °C 0,0 km/h (0 Bft)
14.01.2026 00:13 21,8 °C 3,5 °C 49 % 93 % 1011,9 hPa 0,0 l/m² 0,0 km/h (0 Bft) S-SO 161 ° 0 min 0 W/m² 2,5 °C 3,5 °C 0,0 km/h (0 Bft)
14.01.2026 00:14 21,8 °C 3,4 °C 49 % 93 % 1011,9 hPa 0,0 l/m² 0,7 km/h (0 Bft) S-SO 159 ° 0 min 0 W/m² 2,4 °C 3,4 °C 3,2 km/h (1 Bft)
14.01.2026 00:15 21,8 °C 3,4 °C 49 % 93 % 1011,9 hPa 0,0 l/m² 0,0 km/h (0 Bft) S-SO 159 ° 0 min 0 W/m² 2,4 °C 3,4 °C 0,0 km/h (0 Bft)
14.01.2026 00:16 21,8 °C 3,4 °C 49 % 93 % 1011,8 hPa 0,0 l/m² 1,8 km/h (1 Bft) S-SO 159 ° 0 min 0 W/m² 2,4 °C 3,4 °C 6,4 km/h (2 Bft)
14.01.2026 00:17 21,8 °C 3,4 °C 49 % 93 % 1011,9 hPa 0,0 l/m² 0,0 km/h (0 Bft) S-SO 161 ° 0 min 0 W/m² 2,4 °C 3,4 °C 0,0 km/h (0 Bft)
14.01.2026 00:18 21,8 °C 3,5 °C 49 % 93 % 1011,9 hPa 0,0 l/m² 0,0 km/h (0 Bft) S-SO 161 ° 0 min 0 W/m² 2,5 °C 3,5 °C 0,0 km/h (0 Bft)
14.01.2026 00:19 21,8 °C 3,5 °C 49 % 93 % 1011,9 hPa 0,0 l/m² 0,8 km/h (0 Bft) S-SO 159 ° 0 min 0 W/m² 2,5 °C 3,5 °C 3,2 km/h (1 Bft)
14.01.2026 00:20 21,8 °C 3,5 °C 49 % 93 % 1011,9 hPa 0,0 l/m² 1,9 km/h (1 Bft) S-SO 157 ° 0 min 0 W/m² 2,5 °C 3,5 °C 8,0 km/h (2 Bft)
14.01.2026 00:23 21,8 °C 3,5 °C 49 % 93 % 1011,9 hPa 0,0 l/m² 2,8 km/h (1 Bft) S-SO 154 ° 0 min 0 W/m² 2,5 °C 3,5 °C 9,7 km/h (2 Bft)
14.01.2026 00:24 21,8 °C 3,6 °C 49 % 93 % 1011,8 hPa 0,0 l/m² 4,6 km/h (1 Bft) S-SO 153 ° 0 min 0 W/m² 2,6 °C 3,6 °C 8,0 km/h (2 Bft)
14.01.2026 00:25 21,8 °C 3,6 °C 49 % 93 % 1011,9 hPa 0,0 l/m² 4,7 km/h (1 Bft) S-SO 153 ° 0 min 0 W/m² 2,6 °C 3,6 °C 6,4 km/h (2 Bft)
14.01.2026 00:26 21,8 °C 3,6 °C 49 % 93 % 1011,8 hPa 0,0 l/m² 6,4 km/h (2 Bft) S-SO 155 ° 0 min 0 W/m² 2,6 °C 3,6 °C 9,7 km/h (2 Bft)
14.01.2026 00:27 21,8 °C 3,6 °C 49 % 93 % 1011,8 hPa 0,0 l/m² 5,9 km/h (2 Bft) S-SO 156 ° 0 min 0 W/m² 2,6 °C 3,6 °C 9,7 km/h (2 Bft)
14.01.2026 00:28 21,8 °C 3,6 °C 49 % 93 % 1011,8 hPa 0,0 l/m² 6,2 km/h (2 Bft) S-SO 153 ° 0 min 0 W/m² 2,6 °C 3,6 °C 11,3 km/h (2 Bft)
14.01.2026 00:29 21,8 °C 3,6 °C 49 % 93 % 1011,8 hPa 0,0 l/m² 5,1 km/h (1 Bft) S-SO 154 ° 0 min 0 W/m² 2,6 °C 3,6 °C 6,4 km/h (2 Bft)
14.01.2026 00:30 21,8 °C 3,7 °C 49 % 93 % 1011,8 hPa 0,0 l/m² 3,9 km/h (1 Bft) S-SO 155 ° 0 min 0 W/m² 2,7 °C 3,7 °C 6,4 km/h (2 Bft)
14.01.2026 00:33 21,8 °C 3,7 °C 49 % 93 % 1011,7 hPa 0,0 l/m² 3,7 km/h (1 Bft) S-SO 147 ° 0 min 0 W/m² 2,7 °C 3,7 °C 8,0 km/h (2 Bft)
14.01.2026 00:34 21,8 °C 3,7 °C 49 % 93 % 1011,8 hPa 0,0 l/m² 4,7 km/h (1 Bft) S-SO 149 ° 0 min 0 W/m² 2,7 °C 3,7 °C 6,4 km/h (2 Bft)
14.01.2026 00:35 21,8 °C 3,8 °C 49 % 93 % 1011,8 hPa 0,0 l/m² 5,1 km/h (1 Bft) S-SO 159 ° 0 min 0 W/m² 2,8 °C 3,8 °C 8,0 km/h (2 Bft)
14.01.2026 00:36 21,8 °C 3,8 °C 49 % 93 % 1011,8 hPa 0,0 l/m² 5,8 km/h (2 Bft) S-SO 159 ° 0 min 0 W/m² 2,8 °C 3,8 °C 9,7 km/h (2 Bft)
14.01.2026 00:37 21,8 °C 3,8 °C 49 % 93 % 1011,8 hPa 0,0 l/m² 3,3 km/h (1 Bft) S-SO 154 ° 0 min 0 W/m² 2,8 °C 3,8 °C 8,0 km/h (2 Bft)
14.01.2026 00:38 21,8 °C 3,8 °C 49 % 94 % 1011,7 hPa 0,0 l/m² 6,0 km/h (2 Bft) S-SO 165 ° 0 min 0 W/m² 2,9 °C 3,8 °C 11,3 km/h (2 Bft)
14.01.2026 00:39 21,8 °C 3,8 °C 49 % 94 % 1011,7 hPa 0,0 l/m² 6,4 km/h (2 Bft) S-SO 155 ° 0 min 0 W/m² 2,9 °C 3,8 °C 9,7 km/h (2 Bft)
14.01.2026 00:41 21,8 °C 3,9 °C 49 % 94 % 1011,7 hPa 0,0 l/m² 5,0 km/h (1 Bft) S-SO 151 ° 0 min 0 W/m² 3,0 °C 3,9 °C 9,7 km/h (2 Bft)
14.01.2026 00:42 21,8 °C 3,9 °C 49 % 94 % 1011,6 hPa 0,0 l/m² 5,5 km/h (2 Bft) S-SO 152 ° 0 min 0 W/m² 3,0 °C 3,9 °C 6,4 km/h (2 Bft)
14.01.2026 00:43 21,8 °C 4,0 °C 49 % 94 % 1011,6 hPa 0,0 l/m² 7,7 km/h (2 Bft) S-SO 157 ° 0 min 0 W/m² 3,1 °C 2,8 °C 12,9 km/h (3 Bft)
14.01.2026 00:45 21,8 °C 4,0 °C 49 % 93 % 1011,6 hPa 0,0 l/m² 7,8 km/h (2 Bft) S-SO 156 ° 0 min 0 W/m² 3,0 °C 2,7 °C 12,9 km/h (3 Bft)
14.01.2026 00:46 21,9 °C 4,0 °C 49 % 93 % 1011,6 hPa 0,0 l/m² 6,6 km/h (2 Bft) S-SO 158 ° 0 min 0 W/m² 3,0 °C 3,8 °C 11,3 km/h (2 Bft)
14.01.2026 00:47 21,8 °C 4,1 °C 49 % 93 % 1011,6 hPa 0,0 l/m² 7,9 km/h (2 Bft) S-SO 162 ° 0 min 0 W/m² 3,1 °C 2,7 °C 11,3 km/h (2 Bft)
14.01.2026 00:48 21,8 °C 4,1 °C 49 % 93 % 1011,7 hPa 0,0 l/m² 9,1 km/h (2 Bft) S-SO 165 ° 0 min 0 W/m² 3,1 °C 1,8 °C 11,3 km/h (2 Bft)
14.01.2026 00:49 21,9 °C 4,1 °C 49 % 93 % 1011,6 hPa 0,0 l/m² 7,5 km/h (2 Bft) S-SO 158 ° 0 min 0 W/m² 3,1 °C 3,1 °C 11,3 km/h (2 Bft)
14.01.2026 00:51 21,8 °C 4,1 °C 49 % 93 % 1011,6 hPa 0,0 l/m² 7,1 km/h (2 Bft) S-SO 161 ° 0 min 0 W/m² 3,1 °C 3,5 °C 9,7 km/h (2 Bft)
14.01.2026 00:52 21,8 °C 4,1 °C 49 % 93 % 1011,5 hPa 0,0 l/m² 7,7 km/h (2 Bft) S-SO 163 ° 0 min 0 W/m² 3,1 °C 2,9 °C 9,7 km/h (2 Bft)
14.01.2026 00:53 21,8 °C 4,1 °C 49 % 93 % 1011,5 hPa 0,0 l/m² 7,0 km/h (2 Bft) S-SO 164 ° 0 min 0 W/m² 3,1 °C 3,6 °C 8,0 km/h (2 Bft)
14.01.2026 00:54 21,8 °C 4,1 °C 49 % 93 % 1011,5 hPa 0,0 l/m² 5,2 km/h (1 Bft) S 172 ° 0 min 0 W/m² 3,1 °C 4,1 °C 9,7 km/h (2 Bft)
14.01.2026 00:55 21,8 °C 4,1 °C 49 % 93 % 1011,5 hPa 0,0 l/m² 5,6 km/h (2 Bft) S-SO 151 ° 0 min 0 W/m² 3,1 °C 4,1 °C 9,7 km/h (2 Bft)
14.01.2026 00:56 21,8 °C 4,2 °C 49 % 93 % 1011,5 hPa 0,0 l/m² 5,5 km/h (2 Bft) SO 146 ° 0 min 0 W/m² 3,2 °C 4,2 °C 8,0 km/h (2 Bft)
14.01.2026 00:57 21,8 °C 4,2 °C 49 % 93 % 1011,5 hPa 0,0 l/m² 2,8 km/h (1 Bft) SO 145 ° 0 min 0 W/m² 3,2 °C 4,2 °C 6,4 km/h (2 Bft)
14.01.2026 00:58 21,8 °C 4,2 °C 49 % 93 % 1011,5 hPa 0,0 l/m² 4,3 km/h (1 Bft) S-SO 147 ° 0 min 0 W/m² 3,2 °C 4,2 °C 9,7 km/h (2 Bft)
14.01.2026 00:59 21,8 °C 4,2 °C 49 % 93 % 1011,5 hPa 0,0 l/m² 4,6 km/h (1 Bft) S-SO 151 ° 0 min 0 W/m² 3,2 °C 4,2 °C 8,0 km/h (2 Bft)
14.01.2026 01:01 21,9 °C 4,2 °C 49 % 93 % 1011,3 hPa 0,0 l/m² 5,5 km/h (2 Bft) SO 145 ° 0 min 0 W/m² 3,2 °C 4,2 °C 9,7 km/h (2 Bft)
14.01.2026 01:02 21,8 °C 4,2 °C 49 % 93 % 1011,4 hPa 0,0 l/m² 3,8 km/h (1 Bft) S-SO 163 ° 0 min 0 W/m² 3,2 °C 4,2 °C 8,0 km/h (2 Bft)
14.01.2026 01:03 21,8 °C 4,2 °C 49 % 94 % 1011,4 hPa 0,0 l/m² 5,3 km/h (1 Bft) SO 143 ° 0 min 0 W/m² 3,3 °C 4,2 °C 8,0 km/h (2 Bft)
14.01.2026 01:04 21,8 °C 4,2 °C 49 % 94 % 1011,4 hPa 0,0 l/m² 6,2 km/h (2 Bft) SO 144 ° 0 min 0 W/m² 3,3 °C 4,2 °C 11,3 km/h (2 Bft)
14.01.2026 01:05 21,8 °C 4,2 °C 49 % 94 % 1011,4 hPa 0,0 l/m² 6,9 km/h (2 Bft) S-SO 157 ° 0 min 0 W/m² 3,3 °C 3,8 °C 11,3 km/h (2 Bft)
14.01.2026 01:06 21,8 °C 4,2 °C 49 % 93 % 1011,5 hPa 0,0 l/m² 6,0 km/h (2 Bft) S-SO 149 ° 0 min 0 W/m² 3,2 °C 4,2 °C 9,7 km/h (2 Bft)
14.01.2026 01:07 21,8 °C 4,2 °C 49 % 93 % 1011,5 hPa 0,0 l/m² 6,0 km/h (2 Bft) S-SO 154 ° 0 min 0 W/m² 3,2 °C 4,2 °C 9,7 km/h (2 Bft)
14.01.2026 01:08 21,8 °C 4,2 °C 49 % 93 % 1011,5 hPa 0,0 l/m² 5,8 km/h (2 Bft) S-SO 155 ° 0 min 0 W/m² 3,2 °C 4,2 °C 9,7 km/h (2 Bft)
14.01.2026 01:09 21,8 °C 4,2 °C 49 % 93 % 1011,5 hPa 0,0 l/m² 3,5 km/h (1 Bft) S-SO 147 ° 0 min 0 W/m² 3,2 °C 4,2 °C 6,4 km/h (2 Bft)
14.01.2026 01:11 21,8 °C 4,2 °C 49 % 93 % 1011,5 hPa 0,0 l/m² 3,8 km/h (1 Bft) S-SO 148 ° 0 min 0 W/m² 3,2 °C 4,2 °C 9,7 km/h (2 Bft)
14.01.2026 01:12 21,8 °C 4,2 °C 49 % 93 % 1011,5 hPa 0,0 l/m² 5,7 km/h (2 Bft) S-SO 155 ° 0 min 0 W/m² 3,2 °C 4,2 °C 8,0 km/h (2 Bft)
14.01.2026 01:13 21,8 °C 4,2 °C 49 % 93 % 1011,5 hPa 0,0 l/m² 3,8 km/h (1 Bft) S-SO 165 ° 0 min 0 W/m² 3,2 °C 4,2 °C 8,0 km/h (2 Bft)
14.01.2026 01:14 21,8 °C 4,3 °C 49 % 94 % 1011,4 hPa 0,0 l/m² 6,7 km/h (2 Bft) S-SO 156 ° 0 min 0 W/m² 3,4 °C 4,0 °C 9,7 km/h (2 Bft)
14.01.2026 01:15 21,9 °C 4,3 °C 49 % 93 % 1011,5 hPa 0,0 l/m² 4,4 km/h (1 Bft) S-SO 155 ° 0 min 0 W/m² 3,3 °C 4,3 °C 8,0 km/h (2 Bft)
14.01.2026 01:16 21,8 °C 4,3 °C 48 % 93 % 1011,4 hPa 0,0 l/m² 6,7 km/h (2 Bft) S-SO 154 ° 0 min 0 W/m² 3,3 °C 4,0 °C 9,7 km/h (2 Bft)
14.01.2026 01:18 21,8 °C 4,3 °C 49 % 94 % 1011,4 hPa 0,0 l/m² 5,7 km/h (2 Bft) S-SO 147 ° 0 min 0 W/m² 3,4 °C 4,3 °C 9,7 km/h (2 Bft)
14.01.2026 01:19 21,9 °C 4,3 °C 49 % 94 % 1011,5 hPa 0,0 l/m² 6,7 km/h (2 Bft) S-SO 153 ° 0 min 0 W/m² 3,4 °C 4,0 °C 9,7 km/h (2 Bft)
14.01.2026 01:21 21,8 °C 4,3 °C 48 % 94 % 1011,4 hPa 0,0 l/m² 5,1 km/h (1 Bft) S-SO 149 ° 0 min 0 W/m² 3,4 °C 4,3 °C 8,0 km/h (2 Bft)
14.01.2026 01:22 21,8 °C 4,4 °C 49 % 93 % 1011,4 hPa 0,0 l/m² 6,4 km/h (2 Bft) S-SO 148 ° 0 min 0 W/m² 3,4 °C 4,4 °C 8,0 km/h (2 Bft)
14.01.2026 01:23 21,8 °C 4,4 °C 49 % 93 % 1011,4 hPa 0,0 l/m² 6,0 km/h (2 Bft) S-SO 150 ° 0 min 0 W/m² 3,4 °C 4,4 °C 8,0 km/h (2 Bft)
14.01.2026 01:24 21,8 °C 4,4 °C 49 % 93 % 1011,4 hPa 0,0 l/m² 4,3 km/h (1 Bft) S-SO 149 ° 0 min 0 W/m² 3,4 °C 4,4 °C 8,0 km/h (2 Bft)
14.01.2026 01:25 21,8 °C 4,4 °C 49 % 93 % 1011,4 hPa 0,0 l/m² 3,6 km/h (1 Bft) S-SO 148 ° 0 min 0 W/m² 3,4 °C 4,4 °C 6,4 km/h (2 Bft)
14.01.2026 01:26 21,8 °C 4,4 °C 48 % 93 % 1011,3 hPa 0,0 l/m² 7,6 km/h (2 Bft) SO 137 ° 0 min 0 W/m² 3,4 °C 3,3 °C 9,7 km/h (2 Bft)
14.01.2026 01:27 21,8 °C 4,4 °C 49 % 93 % 1011,3 hPa 0,0 l/m² 5,7 km/h (2 Bft) S-SO 149 ° 0 min 0 W/m² 3,4 °C 4,4 °C 9,7 km/h (2 Bft)
14.01.2026 01:28 21,8 °C 4,4 °C 49 % 93 % 1011,4 hPa 0,0 l/m² 5,8 km/h (2 Bft) S-SO 151 ° 0 min 0 W/m² 3,4 °C 4,4 °C 9,7 km/h (2 Bft)
14.01.2026 01:29 21,8 °C 4,5 °C 49 % 93 % 1011,3 hPa 0,0 l/m² 6,0 km/h (2 Bft) S-SO 150 ° 0 min 0 W/m² 3,5 °C 4,5 °C 8,0 km/h (2 Bft)
14.01.2026 01:31 21,8 °C 4,5 °C 49 % 93 % 1011,3 hPa 0,0 l/m² 6,2 km/h (2 Bft) S-SO 168 ° 0 min 0 W/m² 3,5 °C 4,5 °C 9,7 km/h (2 Bft)
14.01.2026 01:32 21,8 °C 4,6 °C 49 % 93 % 1011,3 hPa 0,0 l/m² 7,1 km/h (2 Bft) SO 143 ° 0 min 0 W/m² 3,6 °C 4,0 °C 9,7 km/h (2 Bft)
14.01.2026 01:33 21,8 °C 4,5 °C 49 % 93 % 1011,3 hPa 0,0 l/m² 6,4 km/h (2 Bft) S-SO 153 ° 0 min 0 W/m² 3,5 °C 4,5 °C 8,0 km/h (2 Bft)
14.01.2026 01:34 21,8 °C 4,6 °C 48 % 93 % 1011,4 hPa 0,0 l/m² 7,6 km/h (2 Bft) SO 136 ° 0 min 0 W/m² 3,6 °C 3,5 °C 11,3 km/h (2 Bft)
14.01.2026 01:35 21,8 °C 4,6 °C 49 % 93 % 1011,3 hPa 0,0 l/m² 5,5 km/h (2 Bft) S-SO 147 ° 0 min 0 W/m² 3,6 °C 4,6 °C 9,7 km/h (2 Bft)
14.01.2026 01:36 21,8 °C 4,6 °C 49 % 94 % 1011,3 hPa 0,0 l/m² 6,2 km/h (2 Bft) S-SO 152 ° 0 min 0 W/m² 3,7 °C 4,6 °C 9,7 km/h (2 Bft)
14.01.2026 01:37 21,8 °C 4,6 °C 49 % 94 % 1011,3 hPa 0,0 l/m² 1,1 km/h (1 Bft) SO 138 ° 0 min 0 W/m² 3,7 °C 4,6 °C 4,8 km/h (1 Bft)
14.01.2026 01:38 21,8 °C 4,6 °C 49 % 93 % 1011,3 hPa 0,0 l/m² 2,7 km/h (1 Bft) SO 139 ° 0 min 0 W/m² 3,6 °C 4,6 °C 8,0 km/h (2 Bft)
14.01.2026 01:39 21,8 °C 4,6 °C 49 % 94 % 1011,3 hPa 0,0 l/m² 0,9 km/h (0 Bft) SO 136 ° 0 min 0 W/m² 3,7 °C 4,6 °C 8,0 km/h (2 Bft)
14.01.2026 01:40 21,8 °C 4,6 °C 49 % 94 % 1011,3 hPa 0,0 l/m² 4,1 km/h (1 Bft) S-SO 151 ° 0 min 0 W/m² 3,7 °C 4,6 °C 9,7 km/h (2 Bft)
14.01.2026 01:41 21,8 °C 4,6 °C 49 % 93 % 1011,3 hPa 0,0 l/m² 3,3 km/h (1 Bft) SO 129 ° 0 min 0 W/m² 3,6 °C 4,6 °C 9,7 km/h (2 Bft)
14.01.2026 01:42 21,8 °C 4,6 °C 49 % 93 % 1011,3 hPa 0,0 l/m² 7,1 km/h (2 Bft) SO 131 ° 0 min 0 W/m² 3,6 °C 4,0 °C 12,9 km/h (3 Bft)
14.01.2026 01:43 21,8 °C 4,6 °C 48 % 94 % 1011,3 hPa 0,0 l/m² 4,6 km/h (1 Bft) SO 135 ° 0 min 0 W/m² 3,7 °C 4,6 °C 8,0 km/h (2 Bft)
14.01.2026 01:44 21,8 °C 4,6 °C 49 % 94 % 1011,3 hPa 0,0 l/m² 2,3 km/h (1 Bft) SO 133 ° 0 min 0 W/m² 3,7 °C 4,6 °C 8,0 km/h (2 Bft)
14.01.2026 01:45 21,8 °C 4,7 °C 49 % 94 % 1011,3 hPa 0,0 l/m² 3,0 km/h (1 Bft) O-SO 117 ° 0 min 0 W/m² 3,8 °C 4,7 °C 9,7 km/h (2 Bft)
14.01.2026 01:46 21,8 °C 4,7 °C 49 % 94 % 1011,3 hPa 0,0 l/m² 5,7 km/h (2 Bft) O-SO 117 ° 0 min 0 W/m² 3,8 °C 4,7 °C 8,0 km/h (2 Bft)
14.01.2026 01:47 21,8 °C 4,7 °C 49 % 94 % 1011,3 hPa 0,0 l/m² 6,3 km/h (2 Bft) SO 132 ° 0 min 0 W/m² 3,8 °C 4,7 °C 11,3 km/h (2 Bft)
14.01.2026 01:48 21,8 °C 4,7 °C 49 % 94 % 1011,3 hPa 0,0 l/m² 0,4 km/h (0 Bft) SO 132 ° 0 min 0 W/m² 3,8 °C 4,7 °C 4,8 km/h (1 Bft)
14.01.2026 01:49 21,8 °C 4,7 °C 49 % 94 % 1011,3 hPa 0,0 l/m² 0,6 km/h (0 Bft) SO 125 ° 0 min 0 W/m² 3,8 °C 4,7 °C 3,2 km/h (1 Bft)
14.01.2026 01:51 21,8 °C 4,7 °C 49 % 93 % 1011,4 hPa 0,0 l/m² 0,0 km/h (0 Bft) O-SO 123 ° 0 min 0 W/m² 3,7 °C 4,7 °C 0,0 km/h (0 Bft)
14.01.2026 01:52 21,8 °C 4,7 °C 49 % 93 % 1011,3 hPa 0,0 l/m² 0,0 km/h (0 Bft) SO 124 ° 0 min 0 W/m² 3,7 °C 4,7 °C 0,0 km/h (0 Bft)
14.01.2026 01:53 21,8 °C 4,7 °C 49 % 93 % 1011,3 hPa 0,0 l/m² 0,0 km/h (0 Bft) O-SO 123 ° 0 min 0 W/m² 3,7 °C 4,7 °C 0,0 km/h (0 Bft)
14.01.2026 01:54 21,8 °C 4,7 °C 49 % 93 % 1011,3 hPa 0,0 l/m² 0,0 km/h (0 Bft) O-SO 123 ° 0 min 0 W/m² 3,7 °C 4,7 °C 0,0 km/h (0 Bft)
14.01.2026 01:55 21,8 °C 4,7 °C 49 % 93 % 1011,3 hPa 0,0 l/m² 0,0 km/h (0 Bft) SO 125 ° 0 min 0 W/m² 3,7 °C 4,7 °C 0,0 km/h (0 Bft)
14.01.2026 01:56 21,8 °C 4,7 °C 49 % 93 % 1011,2 hPa 0,0 l/m² 0,0 km/h (0 Bft) SO 125 ° 0 min 0 W/m² 3,7 °C 4,7 °C 0,0 km/h (0 Bft)
14.01.2026 01:57 21,8 °C 4,7 °C 49 % 93 % 1011,2 hPa 0,0 l/m² 0,0 km/h (0 Bft) SO 125 ° 0 min 0 W/m² 3,7 °C 4,7 °C 0,0 km/h (0 Bft)
14.01.2026 01:58 21,8 °C 4,7 °C 49 % 93 % 1011,3 hPa 0,0 l/m² 0,0 km/h (0 Bft) SO 126 ° 0 min 0 W/m² 3,7 °C 4,7 °C 0,0 km/h (0 Bft)
14.01.2026 01:59 21,8 °C 4,7 °C 49 % 93 % 1011,3 hPa 0,0 l/m² 0,0 km/h (0 Bft) SO 126 ° 0 min 0 W/m² 3,7 °C 4,7 °C 0,0 km/h (0 Bft)
14.01.2026 02:01 21,8 °C 4,7 °C 49 % 93 % 1011,3 hPa 0,0 l/m² 0,0 km/h (0 Bft) SO 127 ° 0 min 0 W/m² 3,7 °C 4,7 °C 0,0 km/h (0 Bft)
14.01.2026 02:02 21,8 °C 4,7 °C 48 % 93 % 1011,3 hPa 0,0 l/m² 0,0 km/h (0 Bft) SO 127 ° 0 min 0 W/m² 3,7 °C 4,7 °C 0,0 km/h (0 Bft)
14.01.2026 02:03 21,8 °C 4,7 °C 49 % 93 % 1011,2 hPa 0,0 l/m² 0,0 km/h (0 Bft) SO 126 ° 0 min 0 W/m² 3,7 °C 4,7 °C 0,0 km/h (0 Bft)
14.01.2026 02:05 21,8 °C 4,7 °C 49 % 93 % 1011,1 hPa 0,0 l/m² 1,7 km/h (1 Bft) O-SO 121 ° 0 min 0 W/m² 3,7 °C 4,7 °C 8,0 km/h (2 Bft)
14.01.2026 02:06 21,8 °C 4,7 °C 49 % 93 % 1011,2 hPa 0,0 l/m² 0,0 km/h (0 Bft) O-SO 121 ° 0 min 0 W/m² 3,7 °C 4,7 °C 0,0 km/h (0 Bft)
14.01.2026 02:08 21,8 °C 4,7 °C 49 % 93 % 1011,2 hPa 0,0 l/m² 2,9 km/h (1 Bft) SO 126 ° 0 min 0 W/m² 3,7 °C 4,7 °C 6,4 km/h (2 Bft)
14.01.2026 02:09 21,8 °C 4,7 °C 49 % 93 % 1011,2 hPa 0,0 l/m² 1,9 km/h (1 Bft) SO 127 ° 0 min 0 W/m² 3,7 °C 4,7 °C 6,4 km/h (2 Bft)
14.01.2026 02:11 21,8 °C 4,7 °C 49 % 93 % 1011,2 hPa 0,0 l/m² 1,8 km/h (1 Bft) O-SO 113 ° 0 min 0 W/m² 3,7 °C 4,7 °C 11,3 km/h (2 Bft)
14.01.2026 02:12 21,8 °C 4,7 °C 49 % 93 % 1011,2 hPa 0,0 l/m² 2,3 km/h (1 Bft) O-SO 116 ° 0 min 0 W/m² 3,7 °C 4,7 °C 6,4 km/h (2 Bft)
14.01.2026 02:13 21,8 °C 4,7 °C 49 % 93 % 1011,3 hPa 0,0 l/m² 1,4 km/h (1 Bft) O-SO 115 ° 0 min 0 W/m² 3,7 °C 4,7 °C 3,2 km/h (1 Bft)
14.01.2026 02:14 21,8 °C 4,7 °C 49 % 93 % 1011,3 hPa 0,0 l/m² 6,2 km/h (2 Bft) SO 127 ° 0 min 0 W/m² 3,7 °C 4,7 °C 8,0 km/h (2 Bft)
14.01.2026 02:15 21,8 °C 4,7 °C 49 % 93 % 1011,2 hPa 0,0 l/m² 2,4 km/h (1 Bft) SO 128 ° 0 min 0 W/m² 3,7 °C 4,7 °C 6,4 km/h (2 Bft)
14.01.2026 02:16 21,8 °C 4,7 °C 49 % 93 % 1011,2 hPa 0,0 l/m² 0,2 km/h (0 Bft) SO 126 ° 0 min 0 W/m² 3,7 °C 4,7 °C 3,2 km/h (1 Bft)
14.01.2026 02:17 21,8 °C 4,7 °C 49 % 93 % 1011,1 hPa 0,0 l/m² 0,0 km/h (0 Bft) SO 126 ° 0 min 0 W/m² 3,7 °C 4,7 °C 0,0 km/h (0 Bft)
14.01.2026 02:18 21,8 °C 4,7 °C 49 % 93 % 1011,2 hPa 0,0 l/m² 0,0 km/h (0 Bft) SO 126 ° 0 min 0 W/m² 3,7 °C 4,7 °C 0,0 km/h (0 Bft)
14.01.2026 02:19 21,8 °C 4,7 °C 49 % 93 % 1011,2 hPa 0,0 l/m² 0,0 km/h (0 Bft) S 169 ° 0 min 0 W/m² 3,7 °C 4,7 °C 0,0 km/h (0 Bft)
14.01.2026 02:22 21,8 °C 4,7 °C 49 % 93 % 1011,3 hPa 0,0 l/m² 1,1 km/h (1 Bft) SO 140 ° 0 min 0 W/m² 3,7 °C 4,7 °C 4,8 km/h (1 Bft)
14.01.2026 02:25 21,8 °C 4,7 °C 49 % 93 % 1011,3 hPa 0,0 l/m² 0,2 km/h (0 Bft) SO 146 ° 0 min 0 W/m² 3,7 °C 4,7 °C 3,2 km/h (1 Bft)
14.01.2026 02:26 21,8 °C 4,7 °C 48 % 93 % 1011,3 hPa 0,0 l/m² 0,0 km/h (0 Bft) SO 146 ° 0 min 0 W/m² 3,7 °C 4,7 °C 0,0 km/h (0 Bft)
14.01.2026 02:27 21,8 °C 4,6 °C 49 % 93 % 1011,3 hPa 0,0 l/m² 0,3 km/h (0 Bft) O-SO 117 ° 0 min 0 W/m² 3,6 °C 4,6 °C 3,2 km/h (1 Bft)
14.01.2026 02:28 21,8 °C 4,7 °C 48 % 93 % 1011,3 hPa 0,0 l/m² 1,4 km/h (1 Bft) O-SO 114 ° 0 min 0 W/m² 3,7 °C 4,7 °C 3,2 km/h (1 Bft)
14.01.2026 02:29 21,8 °C 4,6 °C 49 % 93 % 1011,2 hPa 0,0 l/m² 1,6 km/h (1 Bft) O 101 ° 0 min 0 W/m² 3,6 °C 4,6 °C 6,4 km/h (2 Bft)
14.01.2026 02:31 21,8 °C 4,6 °C 49 % 93 % 1011,2 hPa 0,0 l/m² 3,5 km/h (1 Bft) O 99 ° 0 min 0 W/m² 3,6 °C 4,6 °C 6,4 km/h (2 Bft)
14.01.2026 02:32 21,8 °C 4,6 °C 49 % 93 % 1011,2 hPa 0,0 l/m² 4,4 km/h (1 Bft) O-SO 102 ° 0 min 0 W/m² 3,6 °C 4,6 °C 9,7 km/h (2 Bft)
14.01.2026 02:33 21,8 °C 4,6 °C 49 % 93 % 1011,2 hPa 0,0 l/m² 2,3 km/h (1 Bft) O-SO 107 ° 0 min 0 W/m² 3,6 °C 4,6 °C 4,8 km/h (1 Bft)
14.01.2026 02:34 21,8 °C 4,6 °C 49 % 93 % 1011,2 hPa 0,0 l/m² 1,1 km/h (1 Bft) O-SO 108 ° 0 min 0 W/m² 3,6 °C 4,6 °C 4,8 km/h (1 Bft)
14.01.2026 02:35 21,8 °C 4,6 °C 49 % 93 % 1011,3 hPa 0,0 l/m² 3,5 km/h (1 Bft) O-SO 103 ° 0 min 0 W/m² 3,6 °C 4,6 °C 6,4 km/h (2 Bft)
14.01.2026 02:36 21,8 °C 4,6 °C 49 % 93 % 1011,3 hPa 0,0 l/m² 4,1 km/h (1 Bft) O 96 ° 0 min 0 W/m² 3,6 °C 4,6 °C 6,4 km/h (2 Bft)
14.01.2026 02:37 21,8 °C 4,6 °C 49 % 93 % 1011,2 hPa 0,0 l/m² 4,8 km/h (1 Bft) O 95 ° 0 min 0 W/m² 3,6 °C 4,6 °C 6,4 km/h (2 Bft)
14.01.2026 02:38 21,8 °C 4,6 °C 48 % 93 % 1011,2 hPa 0,0 l/m² 3,0 km/h (1 Bft) O 96 ° 0 min 0 W/m² 3,6 °C 4,6 °C 4,8 km/h (1 Bft)
14.01.2026 02:39 21,8 °C 4,6 °C 49 % 93 % 1011,2 hPa 0,0 l/m² 2,4 km/h (1 Bft) O 96 ° 0 min 0 W/m² 3,6 °C 4,6 °C 4,8 km/h (1 Bft)
14.01.2026 02:41 21,8 °C 4,5 °C 49 % 93 % 1011,1 hPa 0,0 l/m² 4,1 km/h (1 Bft) O 95 ° 0 min 0 W/m² 3,5 °C 4,5 °C 9,7 km/h (2 Bft)
14.01.2026 02:42 21,8 °C 4,5 °C 49 % 93 % 1011,1 hPa 0,0 l/m² 6,5 km/h (2 Bft) O 91 ° 0 min 0 W/m² 3,5 °C 4,4 °C 9,7 km/h (2 Bft)
14.01.2026 02:43 21,8 °C 4,5 °C 49 % 93 % 1011,2 hPa 0,0 l/m² 5,5 km/h (2 Bft) O 94 ° 0 min 0 W/m² 3,5 °C 4,5 °C 6,4 km/h (2 Bft)
14.01.2026 02:44 21,8 °C 4,5 °C 49 % 93 % 1011,2 hPa 0,0 l/m² 1,9 km/h (1 Bft) O 95 ° 0 min 0 W/m² 3,5 °C 4,5 °C 3,2 km/h (1 Bft)
14.01.2026 02:45 21,8 °C 4,6 °C 49 % 93 % 1011,2 hPa 0,0 l/m² 0,3 km/h (0 Bft) O 95 ° 0 min 0 W/m² 3,6 °C 4,6 °C 1,6 km/h (1 Bft)
14.01.2026 02:46 21,8 °C 4,5 °C 48 % 93 % 1011,3 hPa 0,0 l/m² 0,0 km/h (0 Bft) O 95 ° 0 min 0 W/m² 3,5 °C 4,5 °C 0,0 km/h (0 Bft)
14.01.2026 02:47 21,8 °C 4,6 °C 49 % 93 % 1011,3 hPa 0,0 l/m² 0,0 km/h (0 Bft) O 95 ° 0 min 0 W/m² 3,6 °C 4,6 °C 0,0 km/h (0 Bft)
14.01.2026 02:48 21,8 °C 4,5 °C 49 % 93 % 1011,4 hPa 0,0 l/m² 0,0 km/h (0 Bft) O 95 ° 0 min 0 W/m² 3,5 °C 4,5 °C 0,0 km/h (0 Bft)
14.01.2026 02:49 21,8 °C 4,5 °C 49 % 93 % 1011,3 hPa 0,0 l/m² 0,0 km/h (0 Bft) O 95 ° 0 min 0 W/m² 3,5 °C 4,5 °C 0,0 km/h (0 Bft)
14.01.2026 02:51 21,8 °C 4,4 °C 49 % 93 % 1011,4 hPa 0,0 l/m² 0,0 km/h (0 Bft) S 188 ° 0 min 0 W/m² 3,4 °C 4,4 °C 0,0 km/h (0 Bft)
14.01.2026 02:53 21,8 °C 4,4 °C 49 % 93 % 1011,4 hPa 0,0 l/m² 0,2 km/h (0 Bft) W-SW 246 ° 0 min 0 W/m² 3,4 °C 4,4 °C 1,6 km/h (1 Bft)
14.01.2026 02:54 21,8 °C 4,4 °C 49 % 93 % 1011,4 hPa 0,0 l/m² 0,0 km/h (0 Bft) W-SW 246 ° 0 min 0 W/m² 3,4 °C 4,4 °C 0,0 km/h (0 Bft)
14.01.2026 02:55 21,8 °C 4,4 °C 49 % 93 % 1011,4 hPa 0,0 l/m² 0,0 km/h (0 Bft) W-SW 246 ° 0 min 0 W/m² 3,4 °C 4,4 °C 0,0 km/h (0 Bft)
14.01.2026 02:56 21,8 °C 4,4 °C 49 % 93 % 1011,4 hPa 0,0 l/m² 1,5 km/h (1 Bft) SW 219 ° 0 min 0 W/m² 3,4 °C 4,4 °C 4,8 km/h (1 Bft)
14.01.2026 02:57 21,7 °C 4,4 °C 49 % 93 % 1011,4 hPa 0,0 l/m² 0,2 km/h (0 Bft) SW 219 ° 0 min 0 W/m² 3,4 °C 4,4 °C 3,2 km/h (1 Bft)
14.01.2026 02:58 21,7 °C 4,4 °C 49 % 93 % 1011,3 hPa 0,0 l/m² 0,0 km/h (0 Bft) SW 219 ° 0 min 0 W/m² 3,4 °C 4,4 °C 0,0 km/h (0 Bft)
14.01.2026 02:59 21,7 °C 4,4 °C 48 % 93 % 1011,3 hPa 0,0 l/m² 0,0 km/h (0 Bft) SW 219 ° 0 min 0 W/m² 3,4 °C 4,4 °C 0,0 km/h (0 Bft)
14.01.2026 03:01 21,8 °C 4,4 °C 48 % 93 % 1011,2 hPa 0,0 l/m² 0,0 km/h (0 Bft) SW 219 ° 0 min 0 W/m² 3,4 °C 4,4 °C 0,0 km/h (0 Bft)
14.01.2026 03:03 21,8 °C 4,3 °C 49 % 93 % 1011,2 hPa 0,0 l/m² 0,0 km/h (0 Bft) SW 219 ° 0 min 0 W/m² 3,3 °C 4,3 °C 0,0 km/h (0 Bft)
14.01.2026 03:04 21,7 °C 4,3 °C 49 % 93 % 1011,2 hPa 0,0 l/m² 0,0 km/h (0 Bft) SW 219 ° 0 min 0 W/m² 3,3 °C 4,3 °C 0,0 km/h (0 Bft)
14.01.2026 03:05 21,7 °C 4,3 °C 49 % 93 % 1011,2 hPa 0,0 l/m² 0,0 km/h (0 Bft) SW 219 ° 0 min 0 W/m² 3,3 °C 4,3 °C 0,0 km/h (0 Bft)
14.01.2026 03:06 21,7 °C 4,3 °C 49 % 93 % 1011,2 hPa 0,0 l/m² 0,0 km/h (0 Bft) SW 219 ° 0 min 0 W/m² 3,3 °C 4,3 °C 0,0 km/h (0 Bft)
14.01.2026 03:07 21,8 °C 4,3 °C 49 % 93 % 1011,1 hPa 0,0 l/m² 0,0 km/h (0 Bft) SW 219 ° 0 min 0 W/m² 3,3 °C 4,3 °C 0,0 km/h (0 Bft)
14.01.2026 03:08 21,7 °C 4,3 °C 49 % 93 % 1011,1 hPa 0,0 l/m² 0,0 km/h (0 Bft) SW 219 ° 0 min 0 W/m² 3,3 °C 4,3 °C 0,0 km/h (0 Bft)
14.01.2026 03:09 21,7 °C 4,3 °C 48 % 93 % 1011,1 hPa 0,0 l/m² 0,0 km/h (0 Bft) SW 219 ° 0 min 0 W/m² 3,3 °C 4,3 °C 0,0 km/h (0 Bft)
14.01.2026 03:11 21,7 °C 4,3 °C 48 % 92 % 1011,0 hPa 0,0 l/m² 0,0 km/h (0 Bft) O 101 ° 0 min 0 W/m² 3,1 °C 4,3 °C 0,0 km/h (0 Bft)
14.01.2026 03:13 21,7 °C 4,3 °C 49 % 93 % 1011,0 hPa 0,0 l/m² 0,0 km/h (0 Bft) O-SO 103 ° 0 min 0 W/m² 3,3 °C 4,3 °C 0,0 km/h (0 Bft)
14.01.2026 03:14 21,8 °C 4,3 °C 48 % 93 % 1011,0 hPa 0,0 l/m² 0,3 km/h (0 Bft) O-SO 105 ° 0 min 0 W/m² 3,3 °C 4,3 °C 3,2 km/h (1 Bft)
14.01.2026 03:15 21,7 °C 4,2 °C 49 % 92 % 1011,0 hPa 0,0 l/m² 0,0 km/h (0 Bft) O-SO 109 ° 0 min 0 W/m² 3,0 °C 4,2 °C 0,0 km/h (0 Bft)
14.01.2026 03:16 21,7 °C 4,2 °C 49 % 93 % 1010,9 hPa 0,0 l/m² 0,0 km/h (0 Bft) O-SO 111 ° 0 min 0 W/m² 3,2 °C 4,2 °C 0,0 km/h (0 Bft)
14.01.2026 03:17 21,7 °C 4,3 °C 49 % 93 % 1010,9 hPa 0,0 l/m² 0,0 km/h (0 Bft) O-SO 111 ° 0 min 0 W/m² 3,3 °C 4,3 °C 0,0 km/h (0 Bft)
14.01.2026 03:18 21,7 °C 4,3 °C 49 % 92 % 1010,9 hPa 0,0 l/m² 0,0 km/h (0 Bft) O-SO 111 ° 0 min 0 W/m² 3,1 °C 4,3 °C 0,0 km/h (0 Bft)
14.01.2026 03:19 21,7 °C 4,2 °C 49 % 92 % 1011,0 hPa 0,0 l/m² 0,0 km/h (0 Bft) O-SO 111 ° 0 min 0 W/m² 3,0 °C 4,2 °C 0,0 km/h (0 Bft)
14.01.2026 03:21 21,7 °C 4,3 °C 48 % 92 % 1011,0 hPa 0,0 l/m² 0,0 km/h (0 Bft) O-SO 111 ° 0 min 0 W/m² 3,1 °C 4,3 °C 0,0 km/h (0 Bft)
14.01.2026 03:23 21,7 °C 4,2 °C 48 % 92 % 1010,8 hPa 0,0 l/m² 0,0 km/h (0 Bft) O-SO 111 ° 0 min 0 W/m² 3,0 °C 4,2 °C 0,0 km/h (0 Bft)
14.01.2026 03:24 21,7 °C 4,3 °C 48 % 92 % 1010,8 hPa 0,0 l/m² 0,0 km/h (0 Bft) O-SO 111 ° 0 min 0 W/m² 3,1 °C 4,3 °C 0,0 km/h (0 Bft)
14.01.2026 03:25 21,7 °C 4,2 °C 48 % 93 % 1010,9 hPa 0,0 l/m² 0,0 km/h (0 Bft) O-SO 123 ° 0 min 0 W/m² 3,2 °C 4,2 °C 0,0 km/h (0 Bft)
14.01.2026 03:26 21,7 °C 4,2 °C 48 % 92 % 1010,8 hPa 0,0 l/m² 0,0 km/h (0 Bft) O-SO 121 ° 0 min 0 W/m² 3,0 °C 4,2 °C 0,0 km/h (0 Bft)
14.01.2026 03:27 21,8 °C 4,2 °C 48 % 92 % 1010,9 hPa 0,0 l/m² 0,8 km/h (0 Bft) SO 124 ° 0 min 0 W/m² 3,0 °C 4,2 °C 4,8 km/h (1 Bft)
14.01.2026 03:28 21,8 °C 4,3 °C 48 % 92 % 1010,9 hPa 0,0 l/m² 1,3 km/h (1 Bft) SO 132 ° 0 min 0 W/m² 3,1 °C 4,3 °C 4,8 km/h (1 Bft)
14.01.2026 03:29 21,7 °C 4,3 °C 48 % 92 % 1010,8 hPa 0,0 l/m² 0,6 km/h (0 Bft) SO 130 ° 0 min 0 W/m² 3,1 °C 4,3 °C 4,8 km/h (1 Bft)
14.01.2026 03:31 21,7 °C 4,2 °C 48 % 93 % 1010,9 hPa 0,0 l/m² 0,0 km/h (0 Bft) S-SO 153 ° 0 min 0 W/m² 3,2 °C 4,2 °C 0,0 km/h (0 Bft)
14.01.2026 03:33 21,7 °C 4,3 °C 48 % 93 % 1010,8 hPa 0,0 l/m² 0,0 km/h (0 Bft) S 169 ° 0 min 0 W/m² 3,3 °C 4,3 °C 0,0 km/h (0 Bft)
14.01.2026 03:34 21,7 °C 4,3 °C 48 % 92 % 1010,9 hPa 0,0 l/m² 0,0 km/h (0 Bft) S 169 ° 0 min 0 W/m² 3,1 °C 4,3 °C 0,0 km/h (0 Bft)
14.01.2026 03:35 21,7 °C 4,3 °C 48 % 92 % 1010,8 hPa 0,0 l/m² 0,0 km/h (0 Bft) S 169 ° 0 min 0 W/m² 3,1 °C 4,3 °C 0,0 km/h (0 Bft)
14.01.2026 03:36 21,7 °C 4,2 °C 48 % 92 % 1010,8 hPa 0,0 l/m² 0,0 km/h (0 Bft) S 169 ° 0 min 0 W/m² 3,0 °C 4,2 °C 0,0 km/h (0 Bft)
14.01.2026 03:37 21,7 °C 4,2 °C 48 % 92 % 1010,9 hPa 0,0 l/m² 0,0 km/h (0 Bft) S 169 ° 0 min 0 W/m² 3,0 °C 4,2 °C 0,0 km/h (0 Bft)
14.01.2026 03:38 21,7 °C 4,2 °C 48 % 92 % 1010,9 hPa 0,0 l/m² 0,0 km/h (0 Bft) S 169 ° 0 min 0 W/m² 3,0 °C 4,2 °C 0,0 km/h (0 Bft)
14.01.2026 03:39 21,8 °C 4,2 °C 48 % 92 % 1010,9 hPa 0,0 l/m² 0,0 km/h (0 Bft) S 177 ° 0 min 0 W/m² 3,0 °C 4,2 °C 0,0 km/h (0 Bft)
14.01.2026 03:41 21,8 °C 4,2 °C 48 % 92 % 1010,9 hPa 0,0 l/m² 0,0 km/h (0 Bft) S 183 ° 0 min 0 W/m² 3,0 °C 4,2 °C 0,0 km/h (0 Bft)
14.01.2026 03:43 21,8 °C 4,2 °C 48 % 92 % 1010,9 hPa 0,0 l/m² 0,0 km/h (0 Bft) S 183 ° 0 min 0 W/m² 3,0 °C 4,2 °C 0,0 km/h (0 Bft)
14.01.2026 03:44 21,7 °C 4,2 °C 48 % 92 % 1010,8 hPa 0,0 l/m² 0,0 km/h (0 Bft) S 183 ° 0 min 0 W/m² 3,0 °C 4,2 °C 0,0 km/h (0 Bft)
14.01.2026 03:46 21,7 °C 4,1 °C 48 % 92 % 1010,9 hPa 0,0 l/m² 0,0 km/h (0 Bft) S 183 ° 0 min 0 W/m² 2,9 °C 4,1 °C 0,0 km/h (0 Bft)
14.01.2026 03:47 21,8 °C 4,1 °C 48 % 92 % 1010,9 hPa 0,0 l/m² 0,0 km/h (0 Bft) S 183 ° 0 min 0 W/m² 2,9 °C 4,1 °C 0,0 km/h (0 Bft)
14.01.2026 03:48 21,8 °C 4,1 °C 48 % 92 % 1010,9 hPa 0,0 l/m² 0,0 km/h (0 Bft) S 183 ° 0 min 0 W/m² 2,9 °C 4,1 °C 0,0 km/h (0 Bft)
14.01.2026 03:49 21,7 °C 4,1 °C 48 % 92 % 1010,9 hPa 0,0 l/m² 0,0 km/h (0 Bft) S 183 ° 0 min 0 W/m² 2,9 °C 4,1 °C 0,0 km/h (0 Bft)
14.01.2026 03:51 21,7 °C 4,1 °C 48 % 92 % 1010,8 hPa 0,0 l/m² 0,0 km/h (0 Bft) S 183 ° 0 min 0 W/m² 2,9 °C 4,1 °C 0,0 km/h (0 Bft)
14.01.2026 03:53 21,7 °C 4,1 °C 48 % 92 % 1010,8 hPa 0,0 l/m² 0,0 km/h (0 Bft) S 183 ° 0 min 0 W/m² 2,9 °C 4,1 °C 0,0 km/h (0 Bft)
14.01.2026 03:54 21,7 °C 4,1 °C 48 % 92 % 1010,8 hPa 0,0 l/m² 0,0 km/h (0 Bft) S 183 ° 0 min 0 W/m² 2,9 °C 4,1 °C 0,0 km/h (0 Bft)
14.01.2026 03:55 21,8 °C 4,0 °C 48 % 92 % 1010,9 hPa 0,0 l/m² 0,0 km/h (0 Bft) S 183 ° 0 min 0 W/m² 2,8 °C 4,0 °C 0,0 km/h (0 Bft)
14.01.2026 03:56 21,7 °C 4,0 °C 48 % 92 % 1010,9 hPa 0,0 l/m² 0,0 km/h (0 Bft) S 183 ° 0 min 0 W/m² 2,8 °C 4,0 °C 0,0 km/h (0 Bft)
14.01.2026 03:57 21,7 °C 4,0 °C 48 % 92 % 1010,9 hPa 0,0 l/m² 0,0 km/h (0 Bft) S 183 ° 0 min 0 W/m² 2,8 °C 4,0 °C 0,0 km/h (0 Bft)
14.01.2026 03:58 21,8 °C 4,0 °C 48 % 92 % 1010,9 hPa 0,0 l/m² 0,0 km/h (0 Bft) S 183 ° 0 min 0 W/m² 2,8 °C 4,0 °C 0,0 km/h (0 Bft)
14.01.2026 03:59 21,8 °C 4,0 °C 48 % 92 % 1010,9 hPa 0,0 l/m² 0,0 km/h (0 Bft) S 183 ° 0 min 0 W/m² 2,8 °C 4,0 °C 0,0 km/h (0 Bft)
14.01.2026 04:01 21,7 °C 3,9 °C 48 % 92 % 1010,8 hPa 0,0 l/m² 0,0 km/h (0 Bft) S 183 ° 0 min 0 W/m² 2,7 °C 3,9 °C 0,0 km/h (0 Bft)
14.01.2026 04:03 21,8 °C 4,0 °C 48 % 92 % 1010,8 hPa 0,0 l/m² 0,0 km/h (0 Bft) S 183 ° 0 min 0 W/m² 2,8 °C 4,0 °C 0,0 km/h (0 Bft)
14.01.2026 04:04 21,8 °C 4,0 °C 48 % 92 % 1010,8 hPa 0,0 l/m² 0,0 km/h (0 Bft) S 183 ° 0 min 0 W/m² 2,8 °C 4,0 °C 0,0 km/h (0 Bft)
14.01.2026 04:05 21,7 °C 3,9 °C 48 % 92 % 1010,9 hPa 0,0 l/m² 0,0 km/h (0 Bft) S 183 ° 0 min 0 W/m² 2,7 °C 3,9 °C 0,0 km/h (0 Bft)
14.01.2026 04:07 21,8 °C 3,9 °C 48 % 92 % 1010,9 hPa 0,0 l/m² 0,0 km/h (0 Bft) S 183 ° 0 min 0 W/m² 2,7 °C 3,9 °C 0,0 km/h (0 Bft)
14.01.2026 04:08 21,7 °C 3,9 °C 48 % 92 % 1010,9 hPa 0,0 l/m² 0,0 km/h (0 Bft) S 183 ° 0 min 0 W/m² 2,7 °C 3,9 °C 0,0 km/h (0 Bft)
14.01.2026 04:09 21,8 °C 3,9 °C 48 % 92 % 1010,9 hPa 0,0 l/m² 0,0 km/h (0 Bft) S 183 ° 0 min 0 W/m² 2,7 °C 3,9 °C 0,0 km/h (0 Bft)
14.01.2026 04:11 21,7 °C 3,9 °C 48 % 92 % 1010,9 hPa 0,0 l/m² 0,0 km/h (0 Bft) S 183 ° 0 min 0 W/m² 2,7 °C 3,9 °C 0,0 km/h (0 Bft)
14.01.2026 04:13 21,8 °C 3,8 °C 48 % 92 % 1010,9 hPa 0,0 l/m² 0,0 km/h (0 Bft) S 183 ° 0 min 0 W/m² 2,6 °C 3,8 °C 0,0 km/h (0 Bft)
14.01.2026 04:14 21,8 °C 3,8 °C 48 % 92 % 1010,9 hPa 0,0 l/m² 0,0 km/h (0 Bft) S 183 ° 0 min 0 W/m² 2,6 °C 3,8 °C 0,0 km/h (0 Bft)
14.01.2026 04:16 21,8 °C 3,8 °C 48 % 92 % 1010,9 hPa 0,0 l/m² 0,0 km/h (0 Bft) S 183 ° 0 min 0 W/m² 2,6 °C 3,8 °C 0,0 km/h (0 Bft)
14.01.2026 04:17 21,8 °C 3,8 °C 48 % 92 % 1010,9 hPa 0,0 l/m² 0,0 km/h (0 Bft) S 183 ° 0 min 0 W/m² 2,6 °C 3,8 °C 0,0 km/h (0 Bft)
14.01.2026 04:18 21,8 °C 3,7 °C 48 % 92 % 1010,9 hPa 0,0 l/m² 0,0 km/h (0 Bft) S 183 ° 0 min 0 W/m² 2,5 °C 3,7 °C 0,0 km/h (0 Bft)
14.01.2026 04:19 21,8 °C 3,7 °C 48 % 92 % 1011,0 hPa 0,0 l/m² 0,0 km/h (0 Bft) S 183 ° 0 min 0 W/m² 2,5 °C 3,7 °C 0,0 km/h (0 Bft)
14.01.2026 04:21 21,8 °C 3,6 °C 48 % 92 % 1011,0 hPa 0,0 l/m² 0,0 km/h (0 Bft) S 183 ° 0 min 0 W/m² 2,4 °C 3,6 °C 0,0 km/h (0 Bft)
14.01.2026 04:23 21,8 °C 3,6 °C 48 % 92 % 1010,9 hPa 0,0 l/m² 0,0 km/h (0 Bft) S 183 ° 0 min 0 W/m² 2,4 °C 3,6 °C 0,0 km/h (0 Bft)
14.01.2026 04:24 21,8 °C 3,6 °C 48 % 92 % 1011,0 hPa 0,0 l/m² 0,0 km/h (0 Bft) S 183 ° 0 min 0 W/m² 2,4 °C 3,6 °C 0,0 km/h (0 Bft)
14.01.2026 04:25 21,7 °C 3,5 °C 48 % 91 % 1011,0 hPa 0,0 l/m² 0,0 km/h (0 Bft) S 183 ° 0 min 0 W/m² 2,2 °C 3,5 °C 0,0 km/h (0 Bft)
14.01.2026 04:26 21,8 °C 3,5 °C 48 % 92 % 1011,0 hPa 0,0 l/m² 0,0 km/h (0 Bft) S 183 ° 0 min 0 W/m² 2,3 °C 3,5 °C 0,0 km/h (0 Bft)
14.01.2026 04:27 21,8 °C 3,4 °C 48 % 91 % 1011,0 hPa 0,0 l/m² 0,0 km/h (0 Bft) S 183 ° 0 min 0 W/m² 2,1 °C 3,4 °C 0,0 km/h (0 Bft)
14.01.2026 04:28 21,8 °C 3,4 °C 48 % 91 % 1011,0 hPa 0,0 l/m² 0,0 km/h (0 Bft) S 183 ° 0 min 0 W/m² 2,1 °C 3,4 °C 0,0 km/h (0 Bft)
14.01.2026 04:29 21,8 °C 3,3 °C 48 % 92 % 1011,0 hPa 0,0 l/m² 0,0 km/h (0 Bft) S 183 ° 0 min 0 W/m² 2,1 °C 3,3 °C 0,0 km/h (0 Bft)
14.01.2026 04:31 21,8 °C 3,3 °C 48 % 91 % 1011,0 hPa 0,0 l/m² 0,0 km/h (0 Bft) S 183 ° 0 min 0 W/m² 2,0 °C 3,3 °C 0,0 km/h (0 Bft)
14.01.2026 04:33 21,8 °C 3,3 °C 48 % 91 % 1011,0 hPa 0,0 l/m² 0,0 km/h (0 Bft) S 183 ° 0 min 0 W/m² 2,0 °C 3,3 °C 0,0 km/h (0 Bft)
14.01.2026 04:34 21,8 °C 3,2 °C 48 % 91 % 1010,9 hPa 0,0 l/m² 0,0 km/h (0 Bft) S 183 ° 0 min 0 W/m² 1,9 °C 3,2 °C 0,0 km/h (0 Bft)
14.01.2026 04:35 21,8 °C 3,2 °C 48 % 91 % 1010,9 hPa 0,0 l/m² 0,0 km/h (0 Bft) S 183 ° 0 min 0 W/m² 1,9 °C 3,2 °C 0,0 km/h (0 Bft)
14.01.2026 04:37 21,8 °C 3,2 °C 48 % 91 % 1010,9 hPa 0,0 l/m² 0,0 km/h (0 Bft) S 180 ° 0 min 0 W/m² 1,9 °C 3,2 °C 0,0 km/h (0 Bft)
14.01.2026 04:38 21,8 °C 3,1 °C 48 % 91 % 1010,9 hPa 0,0 l/m² 0,0 km/h (0 Bft) S 180 ° 0 min 0 W/m² 1,8 °C 3,1 °C 0,0 km/h (0 Bft)
14.01.2026 04:39 21,8 °C 3,1 °C 48 % 91 % 1010,8 hPa 0,0 l/m² 0,0 km/h (0 Bft) S 180 ° 0 min 0 W/m² 1,8 °C 3,1 °C 0,0 km/h (0 Bft)
14.01.2026 04:41 21,8 °C 3,1 °C 48 % 92 % 1010,8 hPa 0,0 l/m² 0,0 km/h (0 Bft) S 180 ° 0 min 0 W/m² 1,9 °C 3,1 °C 0,0 km/h (0 Bft)
14.01.2026 04:43 21,7 °C 3,1 °C 48 % 92 % 1010,8 hPa 0,0 l/m² 0,0 km/h (0 Bft) S 180 ° 0 min 0 W/m² 1,9 °C 3,1 °C 0,0 km/h (0 Bft)
14.01.2026 04:44 21,8 °C 3,1 °C 48 % 92 % 1010,8 hPa 0,0 l/m² 0,0 km/h (0 Bft) S 180 ° 0 min 0 W/m² 1,9 °C 3,1 °C 0,0 km/h (0 Bft)
14.01.2026 04:45 21,8 °C 3,1 °C 48 % 92 % 1010,8 hPa 0,0 l/m² 0,0 km/h (0 Bft) S 180 ° 0 min 0 W/m² 1,9 °C 3,1 °C 0,0 km/h (0 Bft)
14.01.2026 04:46 21,8 °C 3,0 °C 48 % 92 % 1010,9 hPa 0,0 l/m² 0,0 km/h (0 Bft) S 180 ° 0 min 0 W/m² 1,8 °C 3,0 °C 0,0 km/h (0 Bft)
14.01.2026 04:47 21,8 °C 3,0 °C 48 % 92 % 1010,9 hPa 0,0 l/m² 0,0 km/h (0 Bft) S 180 ° 0 min 0 W/m² 1,8 °C 3,0 °C 0,0 km/h (0 Bft)
14.01.2026 04:48 21,8 °C 3,0 °C 48 % 92 % 1010,8 hPa 0,0 l/m² 0,0 km/h (0 Bft) S 180 ° 0 min 0 W/m² 1,8 °C 3,0 °C 0,0 km/h (0 Bft)
14.01.2026 04:49 21,8 °C 3,0 °C 48 % 92 % 1010,9 hPa 0,0 l/m² 0,0 km/h (0 Bft) S 180 ° 0 min 0 W/m² 1,8 °C 3,0 °C 0,0 km/h (0 Bft)
14.01.2026 04:51 21,8 °C 2,9 °C 48 % 92 % 1010,8 hPa 0,0 l/m² 0,0 km/h (0 Bft) S 180 ° 0 min 0 W/m² 1,7 °C 2,9 °C 0,0 km/h (0 Bft)
14.01.2026 04:53 21,8 °C 3,0 °C 48 % 92 % 1010,8 hPa 0,0 l/m² 0,0 km/h (0 Bft) S 180 ° 0 min 0 W/m² 1,8 °C 3,0 °C 0,0 km/h (0 Bft)
14.01.2026 04:54 21,7 °C 2,9 °C 48 % 92 % 1010,8 hPa 0,0 l/m² 0,0 km/h (0 Bft) S 180 ° 0 min 0 W/m² 1,7 °C 2,9 °C 0,0 km/h (0 Bft)
14.01.2026 04:55 21,8 °C 3,0 °C 48 % 92 % 1010,8 hPa 0,0 l/m² 0,0 km/h (0 Bft) S 180 ° 0 min 0 W/m² 1,8 °C 3,0 °C 0,0 km/h (0 Bft)
14.01.2026 04:56 21,8 °C 2,9 °C 48 % 92 % 1010,9 hPa 0,0 l/m² 0,0 km/h (0 Bft) S 180 ° 0 min 0 W/m² 1,7 °C 2,9 °C 0,0 km/h (0 Bft)
14.01.2026 04:57 21,8 °C 2,9 °C 48 % 92 % 1010,9 hPa 0,0 l/m² 0,0 km/h (0 Bft) S 180 ° 0 min 0 W/m² 1,7 °C 2,9 °C 0,0 km/h (0 Bft)
14.01.2026 04:58 21,8 °C 2,9 °C 48 % 92 % 1010,8 hPa 0,0 l/m² 0,0 km/h (0 Bft) S 180 ° 0 min 0 W/m² 1,7 °C 2,9 °C 0,0 km/h (0 Bft)
14.01.2026 04:59 21,8 °C 2,9 °C 48 % 92 % 1010,8 hPa 0,0 l/m² 0,0 km/h (0 Bft) S 180 ° 0 min 0 W/m² 1,7 °C 2,9 °C 0,0 km/h (0 Bft)
14.01.2026 05:00 21,7 °C 2,9 °C 48 % 92 % 1010,8 hPa 0,0 l/m² 0,0 km/h (0 Bft) S 180 ° 0 min 0 W/m² 1,7 °C 2,9 °C 0,0 km/h (0 Bft)
14.01.2026 05:02 21,8 °C 2,9 °C 48 % 92 % 1010,7 hPa 0,0 l/m² 0,0 km/h (0 Bft) S 180 ° 0 min 0 W/m² 1,7 °C 2,9 °C 0,0 km/h (0 Bft)
14.01.2026 05:03 21,7 °C 2,9 °C 48 % 92 % 1010,8 hPa 0,0 l/m² 0,0 km/h (0 Bft) S 180 ° 0 min 0 W/m² 1,7 °C 2,9 °C 0,0 km/h (0 Bft)
14.01.2026 05:04 21,7 °C 2,9 °C 48 % 92 % 1010,7 hPa 0,0 l/m² 0,0 km/h (0 Bft) S 180 ° 0 min 0 W/m² 1,7 °C 2,9 °C 0,0 km/h (0 Bft)
14.01.2026 05:05 21,7 °C 2,9 °C 48 % 92 % 1010,7 hPa 0,0 l/m² 0,0 km/h (0 Bft) S 180 ° 0 min 0 W/m² 1,7 °C 2,9 °C 0,0 km/h (0 Bft)
14.01.2026 05:06 21,8 °C 2,9 °C 48 % 92 % 1010,8 hPa 0,0 l/m² 0,0 km/h (0 Bft) S 180 ° 0 min 0 W/m² 1,7 °C 2,9 °C 0,0 km/h (0 Bft)
14.01.2026 05:07 21,8 °C 2,9 °C 48 % 92 % 1010,6 hPa 0,0 l/m² 0,0 km/h (0 Bft) S 180 ° 0 min 0 W/m² 1,7 °C 2,9 °C 0,0 km/h (0 Bft)
14.01.2026 05:08 21,8 °C 2,9 °C 48 % 92 % 1010,6 hPa 0,0 l/m² 0,0 km/h (0 Bft) S 180 ° 0 min 0 W/m² 1,7 °C 2,9 °C 0,0 km/h (0 Bft)
14.01.2026 05:09 21,7 °C 2,8 °C 48 % 92 % 1010,6 hPa 0,0 l/m² 0,0 km/h (0 Bft) S 180 ° 0 min 0 W/m² 1,6 °C 2,8 °C 0,0 km/h (0 Bft)
14.01.2026 05:11 21,7 °C 2,8 °C 48 % 92 % 1010,5 hPa 0,0 l/m² 0,0 km/h (0 Bft) S 180 ° 0 min 0 W/m² 1,6 °C 2,8 °C 0,0 km/h (0 Bft)
14.01.2026 05:13 21,7 °C 2,8 °C 48 % 92 % 1010,6 hPa 0,0 l/m² 0,0 km/h (0 Bft) S 180 ° 0 min 0 W/m² 1,6 °C 2,8 °C 0,0 km/h (0 Bft)
14.01.2026 05:14 21,7 °C 2,8 °C 48 % 92 % 1010,6 hPa 0,0 l/m² 0,0 km/h (0 Bft) S 180 ° 0 min 0 W/m² 1,6 °C 2,8 °C 0,0 km/h (0 Bft)
14.01.2026 05:15 21,7 °C 2,8 °C 48 % 92 % 1010,6 hPa 0,0 l/m² 0,0 km/h (0 Bft) S 180 ° 0 min 0 W/m² 1,6 °C 2,8 °C 0,0 km/h (0 Bft)
14.01.2026 05:16 21,8 °C 2,8 °C 48 % 92 % 1010,5 hPa 0,0 l/m² 0,0 km/h (0 Bft) S 180 ° 0 min 0 W/m² 1,6 °C 2,8 °C 0,0 km/h (0 Bft)
14.01.2026 05:17 21,7 °C 2,8 °C 48 % 92 % 1010,5 hPa 0,0 l/m² 0,0 km/h (0 Bft) S 180 ° 0 min 0 W/m² 1,6 °C 2,8 °C 0,0 km/h (0 Bft)
14.01.2026 05:18 21,8 °C 2,8 °C 48 % 92 % 1010,5 hPa 0,0 l/m² 0,0 km/h (0 Bft) S 180 ° 0 min 0 W/m² 1,6 °C 2,8 °C 0,0 km/h (0 Bft)
14.01.2026 05:19 21,7 °C 2,8 °C 48 % 92 % 1010,4 hPa 0,0 l/m² 0,0 km/h (0 Bft) S 180 ° 0 min 0 W/m² 1,6 °C 2,8 °C 0,0 km/h (0 Bft)
14.01.2026 05:21 21,7 °C 2,8 °C 48 % 92 % 1010,4 hPa 0,0 l/m² 0,0 km/h (0 Bft) S 180 ° 0 min 0 W/m² 1,6 °C 2,8 °C 0,0 km/h (0 Bft)
14.01.2026 05:23 21,7 °C 2,7 °C 48 % 92 % 1010,3 hPa 0,0 l/m² 0,0 km/h (0 Bft) S 180 ° 0 min 0 W/m² 1,5 °C 2,7 °C 0,0 km/h (0 Bft)
14.01.2026 05:24 21,7 °C 2,7 °C 48 % 92 % 1010,3 hPa 0,0 l/m² 0,0 km/h (0 Bft) S 180 ° 0 min 0 W/m² 1,5 °C 2,7 °C 0,0 km/h (0 Bft)
14.01.2026 05:25 21,7 °C 2,7 °C 48 % 92 % 1010,4 hPa 0,0 l/m² 0,0 km/h (0 Bft) S 180 ° 0 min 0 W/m² 1,5 °C 2,7 °C 0,0 km/h (0 Bft)
14.01.2026 05:26 21,7 °C 2,7 °C 48 % 92 % 1010,3 hPa 0,0 l/m² 0,0 km/h (0 Bft) S 180 ° 0 min 0 W/m² 1,5 °C 2,7 °C 0,0 km/h (0 Bft)
14.01.2026 05:27 21,7 °C 2,7 °C 48 % 92 % 1010,3 hPa 0,0 l/m² 0,0 km/h (0 Bft) S 180 ° 0 min 0 W/m² 1,5 °C 2,7 °C 0,0 km/h (0 Bft)
14.01.2026 05:28 21,7 °C 2,7 °C 48 % 92 % 1010,3 hPa 0,0 l/m² 0,0 km/h (0 Bft) S 180 ° 0 min 0 W/m² 1,5 °C 2,7 °C 0,0 km/h (0 Bft)
14.01.2026 05:29 21,7 °C 2,7 °C 48 % 92 % 1010,3 hPa 0,0 l/m² 0,0 km/h (0 Bft) S 180 ° 0 min 0 W/m² 1,5 °C 2,7 °C 0,0 km/h (0 Bft)
14.01.2026 05:31 21,7 °C 2,7 °C 48 % 92 % 1010,3 hPa 0,0 l/m² 0,0 km/h (0 Bft) S 180 ° 0 min 0 W/m² 1,5 °C 2,7 °C 0,0 km/h (0 Bft)
14.01.2026 05:33 21,7 °C 2,7 °C 48 % 92 % 1010,2 hPa 0,0 l/m² 0,0 km/h (0 Bft) S 180 ° 0 min 0 W/m² 1,5 °C 2,7 °C 0,0 km/h (0 Bft)
14.01.2026 05:34 21,7 °C 2,7 °C 48 % 92 % 1010,3 hPa 0,0 l/m² 0,0 km/h (0 Bft) S 180 ° 0 min 0 W/m² 1,5 °C 2,7 °C 0,0 km/h (0 Bft)
14.01.2026 05:35 21,7 °C 2,7 °C 48 % 92 % 1010,3 hPa 0,0 l/m² 0,0 km/h (0 Bft) S 180 ° 0 min 0 W/m² 1,5 °C 2,7 °C 0,0 km/h (0 Bft)
14.01.2026 05:36 21,7 °C 2,7 °C 48 % 92 % 1010,3 hPa 0,0 l/m² 0,0 km/h (0 Bft) S 180 ° 0 min 0 W/m² 1,5 °C 2,7 °C 0,0 km/h (0 Bft)
14.01.2026 05:37 21,7 °C 2,7 °C 48 % 92 % 1010,3 hPa 0,0 l/m² 0,0 km/h (0 Bft) S 180 ° 0 min 0 W/m² 1,5 °C 2,7 °C 0,0 km/h (0 Bft)
14.01.2026 05:38 21,7 °C 2,7 °C 48 % 92 % 1010,4 hPa 0,0 l/m² 0,0 km/h (0 Bft) S 180 ° 0 min 0 W/m² 1,5 °C 2,7 °C 0,0 km/h (0 Bft)
14.01.2026 05:39 21,7 °C 2,7 °C 48 % 92 % 1010,4 hPa 0,0 l/m² 0,0 km/h (0 Bft) S 180 ° 0 min 0 W/m² 1,5 °C 2,7 °C 0,0 km/h (0 Bft)
14.01.2026 05:41 21,7 °C 2,7 °C 48 % 92 % 1010,3 hPa 0,0 l/m² 0,2 km/h (0 Bft) NO 35 ° 0 min 0 W/m² 1,5 °C 2,7 °C 1,6 km/h (1 Bft)
14.01.2026 05:43 21,7 °C 2,7 °C 48 % 92 % 1010,4 hPa 0,0 l/m² 0,2 km/h (0 Bft) NO 36 ° 0 min 0 W/m² 1,5 °C 2,7 °C 3,2 km/h (1 Bft)
14.01.2026 05:44 21,7 °C 2,7 °C 48 % 92 % 1010,4 hPa 0,0 l/m² 0,3 km/h (0 Bft) NO 36 ° 0 min 0 W/m² 1,5 °C 2,7 °C 3,2 km/h (1 Bft)
14.01.2026 05:45 21,7 °C 2,7 °C 48 % 92 % 1010,4 hPa 0,0 l/m² 0,0 km/h (0 Bft) NO 46 ° 0 min 0 W/m² 1,5 °C 2,7 °C 0,0 km/h (0 Bft)
14.01.2026 05:46 21,7 °C 2,7 °C 48 % 92 % 1010,4 hPa 0,0 l/m² 0,7 km/h (0 Bft) NO 42 ° 0 min 0 W/m² 1,5 °C 2,7 °C 4,8 km/h (1 Bft)
14.01.2026 05:47 21,7 °C 2,7 °C 48 % 92 % 1010,4 hPa 0,0 l/m² 4,6 km/h (1 Bft) NO 48 ° 0 min 0 W/m² 1,5 °C 2,7 °C 8,0 km/h (2 Bft)
14.01.2026 05:48 21,7 °C 2,7 °C 48 % 92 % 1010,5 hPa 0,0 l/m² 0,2 km/h (0 Bft) NO 47 ° 0 min 0 W/m² 1,5 °C 2,7 °C 3,2 km/h (1 Bft)
14.01.2026 05:49 21,7 °C 2,8 °C 48 % 92 % 1010,5 hPa 0,0 l/m² 0,0 km/h (0 Bft) NO 46 ° 0 min 0 W/m² 1,6 °C 2,8 °C 0,0 km/h (0 Bft)
14.01.2026 05:51 21,7 °C 2,8 °C 48 % 92 % 1010,6 hPa 0,0 l/m² 0,0 km/h (0 Bft) NO 46 ° 0 min 0 W/m² 1,6 °C 2,8 °C 0,0 km/h (0 Bft)
14.01.2026 05:53 21,7 °C 2,8 °C 48 % 92 % 1010,5 hPa 0,0 l/m² 0,0 km/h (0 Bft) NO 46 ° 0 min 0 W/m² 1,6 °C 2,8 °C 0,0 km/h (0 Bft)
14.01.2026 05:54 21,7 °C 2,8 °C 48 % 92 % 1010,4 hPa 0,0 l/m² 0,0 km/h (0 Bft) NO 46 ° 0 min 0 W/m² 1,6 °C 2,8 °C 0,0 km/h (0 Bft)
14.01.2026 05:55 21,7 °C 2,8 °C 48 % 92 % 1010,4 hPa 0,0 l/m² 0,0 km/h (0 Bft) NO 46 ° 0 min 0 W/m² 1,6 °C 2,8 °C 0,0 km/h (0 Bft)
14.01.2026 05:56 21,7 °C 2,8 °C 48 % 92 % 1010,4 hPa 0,0 l/m² 0,0 km/h (0 Bft) NO 46 ° 0 min 0 W/m² 1,6 °C 2,8 °C 0,0 km/h (0 Bft)
14.01.2026 05:57 21,7 °C 2,8 °C 48 % 92 % 1010,5 hPa 0,0 l/m² 0,2 km/h (0 Bft) NO 46 ° 0 min 0 W/m² 1,6 °C 2,8 °C 1,6 km/h (1 Bft)
14.01.2026 05:58 21,7 °C 2,8 °C 48 % 92 % 1010,5 hPa 0,0 l/m² 0,0 km/h (0 Bft) NO 46 ° 0 min 0 W/m² 1,6 °C 2,8 °C 0,0 km/h (0 Bft)
14.01.2026 05:59 21,7 °C 2,8 °C 48 % 92 % 1010,4 hPa 0,0 l/m² 1,7 km/h (1 Bft) NO 46 ° 0 min 0 W/m² 1,6 °C 2,8 °C 3,2 km/h (1 Bft)
14.01.2026 06:01 21,7 °C 2,9 °C 48 % 93 % 1010,4 hPa 0,0 l/m² 0,0 km/h (0 Bft) NO 46 ° 0 min 0 W/m² 1,9 °C 2,9 °C 0,0 km/h (0 Bft)
14.01.2026 06:03 21,7 °C 2,9 °C 48 % 93 % 1010,5 hPa 0,0 l/m² 0,0 km/h (0 Bft) NO 46 ° 0 min 0 W/m² 1,9 °C 2,9 °C 0,0 km/h (0 Bft)
14.01.2026 06:04 21,7 °C 2,9 °C 48 % 93 % 1010,5 hPa 0,0 l/m² 0,0 km/h (0 Bft) NO 46 ° 0 min 0 W/m² 1,9 °C 2,9 °C 0,0 km/h (0 Bft)
14.01.2026 06:05 21,7 °C 2,9 °C 48 % 93 % 1010,6 hPa 0,0 l/m² 0,0 km/h (0 Bft) NO 46 ° 0 min 0 W/m² 1,9 °C 2,9 °C 0,0 km/h (0 Bft)
14.01.2026 06:06 21,7 °C 2,9 °C 48 % 93 % 1010,5 hPa 0,0 l/m² 0,0 km/h (0 Bft) NO 46 ° 0 min 0 W/m² 1,9 °C 2,9 °C 0,0 km/h (0 Bft)
14.01.2026 06:08 21,7 °C 3,0 °C 48 % 93 % 1010,5 hPa 0,0 l/m² 0,0 km/h (0 Bft) NO 46 ° 0 min 0 W/m² 2,0 °C 3,0 °C 0,0 km/h (0 Bft)
14.01.2026 06:09 21,7 °C 2,9 °C 48 % 93 % 1010,6 hPa 0,0 l/m² 0,0 km/h (0 Bft) NO 46 ° 0 min 0 W/m² 1,9 °C 2,9 °C 0,0 km/h (0 Bft)
14.01.2026 06:11 21,7 °C 3,0 °C 48 % 92 % 1010,4 hPa 0,0 l/m² 0,0 km/h (0 Bft) NO 46 ° 0 min 0 W/m² 1,8 °C 3,0 °C 0,0 km/h (0 Bft)
14.01.2026 06:12 21,7 °C 2,9 °C 48 % 93 % 1010,5 hPa 0,0 l/m² 0,0 km/h (0 Bft) NO 46 ° 0 min 0 W/m² 1,9 °C 2,9 °C 0,0 km/h (0 Bft)
14.01.2026 06:13 21,7 °C 2,9 °C 48 % 93 % 1010,5 hPa 0,0 l/m² 0,0 km/h (0 Bft) NO 46 ° 0 min 0 W/m² 1,9 °C 2,9 °C 0,0 km/h (0 Bft)
14.01.2026 06:14 21,7 °C 2,9 °C 48 % 93 % 1010,5 hPa 0,0 l/m² 0,0 km/h (0 Bft) NO 46 ° 0 min 0 W/m² 1,9 °C 2,9 °C 0,0 km/h (0 Bft)
14.01.2026 06:15 21,7 °C 2,9 °C 48 % 93 % 1010,5 hPa 0,0 l/m² 0,0 km/h (0 Bft) NO 46 ° 0 min 0 W/m² 1,9 °C 2,9 °C 0,0 km/h (0 Bft)
14.01.2026 06:16 21,7 °C 3,0 °C 48 % 93 % 1010,5 hPa 0,0 l/m² 0,0 km/h (0 Bft) NO 46 ° 0 min 0 W/m² 2,0 °C 3,0 °C 0,0 km/h (0 Bft)
14.01.2026 06:17 21,7 °C 3,0 °C 48 % 93 % 1010,5 hPa 0,0 l/m² 0,0 km/h (0 Bft) NO 46 ° 0 min 0 W/m² 2,0 °C 3,0 °C 0,0 km/h (0 Bft)
14.01.2026 06:18 21,7 °C 3,0 °C 48 % 93 % 1010,5 hPa 0,0 l/m² 0,0 km/h (0 Bft) NO 46 ° 0 min 0 W/m² 2,0 °C 3,0 °C 0,0 km/h (0 Bft)
14.01.2026 06:19 21,7 °C 3,0 °C 48 % 93 % 1010,6 hPa 0,0 l/m² 0,0 km/h (0 Bft) NO 46 ° 0 min 0 W/m² 2,0 °C 3,0 °C 0,0 km/h (0 Bft)
14.01.2026 06:21 21,7 °C 3,1 °C 48 % 93 % 1010,7 hPa 0,0 l/m² 0,9 km/h (0 Bft) SO 141 ° 0 min 0 W/m² 2,1 °C 3,1 °C 4,8 km/h (1 Bft)
14.01.2026 06:22 21,7 °C 3,1 °C 48 % 93 % 1010,6 hPa 0,0 l/m² 0,0 km/h (0 Bft) SO 141 ° 0 min 0 W/m² 2,1 °C 3,1 °C 0,0 km/h (0 Bft)
14.01.2026 06:23 21,7 °C 3,1 °C 48 % 93 % 1010,6 hPa 0,0 l/m² 0,0 km/h (0 Bft) SO 138 ° 0 min 0 W/m² 2,1 °C 3,1 °C 0,0 km/h (0 Bft)
14.01.2026 06:24 21,7 °C 3,1 °C 48 % 93 % 1010,6 hPa 0,0 l/m² 0,0 km/h (0 Bft) SO 138 ° 0 min 0 W/m² 2,1 °C 3,1 °C 0,0 km/h (0 Bft)
14.01.2026 06:25 21,7 °C 3,1 °C 48 % 93 % 1010,6 hPa 0,0 l/m² 0,0 km/h (0 Bft) SO 138 ° 0 min 0 W/m² 2,1 °C 3,1 °C 0,0 km/h (0 Bft)
14.01.2026 06:26 21,7 °C 3,1 °C 48 % 93 % 1010,7 hPa 0,0 l/m² 0,0 km/h (0 Bft) SO 138 ° 0 min 0 W/m² 2,1 °C 3,1 °C 0,0 km/h (0 Bft)
14.01.2026 06:27 21,7 °C 3,1 °C 48 % 93 % 1010,7 hPa 0,0 l/m² 0,0 km/h (0 Bft) SO 138 ° 0 min 0 W/m² 2,1 °C 3,1 °C 0,0 km/h (0 Bft)
14.01.2026 06:28 21,7 °C 3,2 °C 48 % 93 % 1010,7 hPa 0,0 l/m² 0,0 km/h (0 Bft) SO 138 ° 0 min 0 W/m² 2,2 °C 3,2 °C 0,0 km/h (0 Bft)
14.01.2026 06:29 21,7 °C 3,2 °C 48 % 93 % 1010,7 hPa 0,0 l/m² 0,0 km/h (0 Bft) SO 138 ° 0 min 0 W/m² 2,2 °C 3,2 °C 0,0 km/h (0 Bft)
14.01.2026 06:31 21,7 °C 3,2 °C 48 % 93 % 1010,7 hPa 0,0 l/m² 0,0 km/h (0 Bft) SO 133 ° 0 min 0 W/m² 2,2 °C 3,2 °C 0,0 km/h (0 Bft)
14.01.2026 06:33 21,7 °C 3,2 °C 48 % 93 % 1010,6 hPa 0,0 l/m² 0,0 km/h (0 Bft) SO 133 ° 0 min 0 W/m² 2,2 °C 3,2 °C 0,0 km/h (0 Bft)
14.01.2026 06:34 21,7 °C 3,2 °C 48 % 93 % 1010,6 hPa 0,0 l/m² 0,0 km/h (0 Bft) SO 133 ° 0 min 0 W/m² 2,2 °C 3,2 °C 0,0 km/h (0 Bft)
14.01.2026 06:35 21,7 °C 3,3 °C 48 % 93 % 1010,6 hPa 0,0 l/m² 0,0 km/h (0 Bft) SO 133 ° 0 min 0 W/m² 2,3 °C 3,3 °C 0,0 km/h (0 Bft)
14.01.2026 06:36 21,7 °C 3,3 °C 48 % 93 % 1010,6 hPa 0,0 l/m² 0,0 km/h (0 Bft) SO 133 ° 0 min 0 W/m² 2,3 °C 3,3 °C 0,0 km/h (0 Bft)
14.01.2026 06:37 21,7 °C 3,3 °C 48 % 93 % 1010,6 hPa 0,0 l/m² 0,0 km/h (0 Bft) SO 133 ° 0 min 0 W/m² 2,3 °C 3,3 °C 0,0 km/h (0 Bft)
14.01.2026 06:38 21,7 °C 3,3 °C 48 % 93 % 1010,6 hPa 0,0 l/m² 0,0 km/h (0 Bft) SO 133 ° 0 min 0 W/m² 2,3 °C 3,3 °C 0,0 km/h (0 Bft)
14.01.2026 06:39 21,7 °C 3,3 °C 48 % 93 % 1010,6 hPa 0,0 l/m² 0,0 km/h (0 Bft) SO 133 ° 0 min 0 W/m² 2,3 °C 3,3 °C 0,0 km/h (0 Bft)
14.01.2026 06:40 21,7 °C 3,3 °C 48 % 93 % 1010,6 hPa 0,0 l/m² 0,0 km/h (0 Bft) SO 133 ° 0 min 0 W/m² 2,3 °C 3,3 °C 0,0 km/h (0 Bft)
14.01.2026 06:42 21,7 °C 3,3 °C 48 % 93 % 1010,6 hPa 0,0 l/m² 0,0 km/h (0 Bft) SO 133 ° 0 min 0 W/m² 2,3 °C 3,3 °C 0,0 km/h (0 Bft)
14.01.2026 06:43 21,7 °C 3,3 °C 48 % 93 % 1010,6 hPa 0,0 l/m² 0,0 km/h (0 Bft) SO 133 ° 0 min 0 W/m² 2,3 °C 3,3 °C 0,0 km/h (0 Bft)
14.01.2026 06:44 21,7 °C 3,3 °C 48 % 93 % 1010,6 hPa 0,0 l/m² 0,0 km/h (0 Bft) SO 133 ° 0 min 0 W/m² 2,3 °C 3,3 °C 0,0 km/h (0 Bft)
14.01.2026 06:46 21,7 °C 3,3 °C 48 % 93 % 1010,7 hPa 0,0 l/m² 0,0 km/h (0 Bft) SO 133 ° 0 min 0 W/m² 2,3 °C 3,3 °C 0,0 km/h (0 Bft)
14.01.2026 06:47 21,7 °C 3,3 °C 48 % 93 % 1010,6 hPa 0,0 l/m² 0,0 km/h (0 Bft) SO 133 ° 0 min 0 W/m² 2,3 °C 3,3 °C 0,0 km/h (0 Bft)
14.01.2026 06:48 21,7 °C 3,3 °C 48 % 93 % 1010,6 hPa 0,0 l/m² 0,0 km/h (0 Bft) SO 133 ° 0 min 0 W/m² 2,3 °C 3,3 °C 0,0 km/h (0 Bft)
14.01.2026 06:49 21,7 °C 3,3 °C 48 % 93 % 1010,6 hPa 0,0 l/m² 0,0 km/h (0 Bft) SO 133 ° 0 min 0 W/m² 2,3 °C 3,3 °C 0,0 km/h (0 Bft)
14.01.2026 06:51 21,7 °C 3,3 °C 48 % 93 % 1010,6 hPa 0,0 l/m² 1,9 km/h (1 Bft) W 259 ° 0 min 0 W/m² 2,3 °C 3,3 °C 8,0 km/h (2 Bft)
14.01.2026 06:53 21,7 °C 3,3 °C 48 % 93 % 1010,6 hPa 0,0 l/m² 0,3 km/h (0 Bft) W 265 ° 0 min 0 W/m² 2,3 °C 3,3 °C 3,2 km/h (1 Bft)
14.01.2026 06:54 21,7 °C 3,4 °C 48 % 93 % 1010,7 hPa 0,0 l/m² 0,1 km/h (0 Bft) W 271 ° 0 min 0 W/m² 2,4 °C 3,4 °C 1,6 km/h (1 Bft)
14.01.2026 06:55 21,7 °C 3,4 °C 48 % 93 % 1010,7 hPa 0,0 l/m² 0,0 km/h (0 Bft) W 271 ° 0 min 0 W/m² 2,4 °C 3,4 °C 0,0 km/h (0 Bft)
14.01.2026 06:56 21,7 °C 3,4 °C 48 % 93 % 1010,7 hPa 0,0 l/m² 0,0 km/h (0 Bft) W 271 ° 0 min 0 W/m² 2,4 °C 3,4 °C 0,0 km/h (0 Bft)
14.01.2026 06:57 21,7 °C 3,4 °C 48 % 93 % 1010,6 hPa 0,0 l/m² 0,0 km/h (0 Bft) W 271 ° 0 min 0 W/m² 2,4 °C 3,4 °C 0,0 km/h (0 Bft)
14.01.2026 06:58 21,7 °C 3,4 °C 48 % 93 % 1010,5 hPa 0,0 l/m² 0,0 km/h (0 Bft) W 271 ° 0 min 0 W/m² 2,4 °C 3,4 °C 0,0 km/h (0 Bft)
14.01.2026 06:59 21,7 °C 3,4 °C 48 % 93 % 1010,6 hPa 0,0 l/m² 0,0 km/h (0 Bft) S-SW 206 ° 0 min 0 W/m² 2,4 °C 3,4 °C 0,0 km/h (0 Bft)
14.01.2026 07:01 21,7 °C 3,4 °C 48 % 93 % 1010,6 hPa 0,0 l/m² 0,0 km/h (0 Bft) S-SW 212 ° 0 min 0 W/m² 2,4 °C 3,4 °C 0,0 km/h (0 Bft)
14.01.2026 07:03 21,7 °C 3,4 °C 48 % 93 % 1010,6 hPa 0,0 l/m² 0,0 km/h (0 Bft) S-SW 211 ° 0 min 0 W/m² 2,4 °C 3,4 °C 0,0 km/h (0 Bft)
14.01.2026 07:04 21,7 °C 3,4 °C 48 % 93 % 1010,6 hPa 0,0 l/m² 0,0 km/h (0 Bft) S-SW 211 ° 0 min 0 W/m² 2,4 °C 3,4 °C 0,0 km/h (0 Bft)
14.01.2026 07:05 21,7 °C 3,4 °C 48 % 93 % 1010,6 hPa 0,0 l/m² 0,0 km/h (0 Bft) S-SW 211 ° 0 min 0 W/m² 2,4 °C 3,4 °C 0,0 km/h (0 Bft)
14.01.2026 07:06 21,7 °C 3,4 °C 48 % 93 % 1010,6 hPa 0,0 l/m² 0,0 km/h (0 Bft) S-SW 211 ° 0 min 0 W/m² 2,4 °C 3,4 °C 0,0 km/h (0 Bft)
14.01.2026 07:07 21,7 °C 3,4 °C 48 % 93 % 1010,6 hPa 0,0 l/m² 0,0 km/h (0 Bft) S-SW 211 ° 0 min 0 W/m² 2,4 °C 3,4 °C 0,0 km/h (0 Bft)
14.01.2026 07:08 21,7 °C 3,4 °C 48 % 93 % 1010,6 hPa 0,0 l/m² 0,7 km/h (0 Bft) O 82 ° 0 min 0 W/m² 2,4 °C 3,4 °C 4,8 km/h (1 Bft)
14.01.2026 07:09 21,7 °C 3,4 °C 48 % 93 % 1010,6 hPa 0,0 l/m² 0,0 km/h (0 Bft) O 82 ° 0 min 0 W/m² 2,4 °C 3,4 °C 0,0 km/h (0 Bft)
14.01.2026 07:11 21,7 °C 3,4 °C 48 % 93 % 1010,5 hPa 0,0 l/m² 1,0 km/h (0 Bft) O 84 ° 0 min 0 W/m² 2,4 °C 3,4 °C 4,8 km/h (1 Bft)
14.01.2026 07:13 21,7 °C 3,4 °C 48 % 93 % 1010,6 hPa 0,0 l/m² 0,9 km/h (0 Bft) O 101 ° 0 min 0 W/m² 2,4 °C 3,4 °C 6,4 km/h (2 Bft)
14.01.2026 07:14 21,7 °C 3,5 °C 48 % 93 % 1010,5 hPa 0,0 l/m² 0,0 km/h (0 Bft) O 101 ° 0 min 0 W/m² 2,5 °C 3,5 °C 0,0 km/h (0 Bft)
14.01.2026 07:15 21,7 °C 3,5 °C 48 % 93 % 1010,5 hPa 0,0 l/m² 0,0 km/h (0 Bft) O-SO 104 ° 0 min 0 W/m² 2,5 °C 3,5 °C 0,0 km/h (0 Bft)
14.01.2026 07:16 21,7 °C 3,5 °C 48 % 93 % 1010,6 hPa 0,0 l/m² 13,6 km/h (3 Bft) S-SW 205 ° 0 min 0 W/m² 2,5 °C -2,0 °C 19,3 km/h (3 Bft)
14.01.2026 07:17 21,7 °C 3,6 °C 48 % 93 % 1010,6 hPa 0,0 l/m² 12,7 km/h (3 Bft) SW 216 ° 0 min 0 W/m² 2,6 °C -1,3 °C 16,1 km/h (3 Bft)
14.01.2026 07:18 21,7 °C 3,7 °C 48 % 94 % 1010,6 hPa 0,0 l/m² 11,6 km/h (2 Bft) S-SW 192 ° 0 min 0 W/m² 2,8 °C -0,5 °C 14,5 km/h (3 Bft)
14.01.2026 07:19 21,7 °C 3,8 °C 48 % 94 % 1010,6 hPa 0,0 l/m² 11,7 km/h (2 Bft) SW 215 ° 0 min 0 W/m² 2,9 °C -0,4 °C 14,5 km/h (3 Bft)
14.01.2026 07:21 21,7 °C 4,1 °C 48 % 94 % 1010,6 hPa 0,0 l/m² 10,3 km/h (2 Bft) SW 218 ° 0 min 0 W/m² 3,2 °C 0,9 °C 12,9 km/h (3 Bft)
14.01.2026 07:23 21,7 °C 4,4 °C 48 % 94 % 1010,6 hPa 0,0 l/m² 10,8 km/h (2 Bft) S-SW 195 ° 0 min 0 W/m² 3,5 °C 0,8 °C 16,1 km/h (3 Bft)
14.01.2026 07:24 21,7 °C 4,5 °C 48 % 94 % 1010,6 hPa 0,0 l/m² 15,0 km/h (3 Bft) S-SW 207 ° 0 min 0 W/m² 3,6 °C -1,5 °C 19,3 km/h (3 Bft)
14.01.2026 07:25 21,7 °C 4,6 °C 48 % 94 % 1010,7 hPa 0,0 l/m² 11,9 km/h (2 Bft) S-SW 204 ° 0 min 0 W/m² 3,7 °C 0,4 °C 14,5 km/h (3 Bft)
14.01.2026 07:26 21,7 °C 4,8 °C 48 % 94 % 1010,6 hPa 0,0 l/m² 8,7 km/h (2 Bft) S-SW 207 ° 0 min 0 W/m² 3,9 °C 2,8 °C 9,7 km/h (2 Bft)
14.01.2026 07:27 21,7 °C 4,8 °C 48 % 94 % 1010,7 hPa 0,0 l/m² 12,1 km/h (2 Bft) S-SW 203 ° 0 min 0 W/m² 3,9 °C 0,5 °C 16,1 km/h (3 Bft)
14.01.2026 07:28 21,7 °C 4,9 °C 48 % 94 % 1010,7 hPa 0,0 l/m² 9,0 km/h (2 Bft) SW 219 ° 0 min 0 W/m² 4,0 °C 2,7 °C 16,1 km/h (3 Bft)
14.01.2026 07:29 21,7 °C 5,0 °C 48 % 94 % 1010,7 hPa 0,0 l/m² 9,0 km/h (2 Bft) S-SW 200 ° 0 min 0 W/m² 4,1 °C 2,8 °C 14,5 km/h (3 Bft)
14.01.2026 07:31 21,7 °C 5,2 °C 48 % 94 % 1010,7 hPa 0,0 l/m² 13,7 km/h (3 Bft) SW 215 ° 0 min 0 W/m² 4,3 °C 0,0 °C 20,9 km/h (4 Bft)
14.01.2026 07:33 21,7 °C 5,3 °C 48 % 94 % 1010,6 hPa 0,0 l/m² 8,2 km/h (2 Bft) S-SW 211 ° 0 min 0 W/m² 4,4 °C 3,8 °C 9,7 km/h (2 Bft)
14.01.2026 07:34 21,7 °C 5,3 °C 49 % 94 % 1010,6 hPa 0,0 l/m² 10,9 km/h (2 Bft) S-SW 207 ° 0 min 0 W/m² 4,4 °C 1,8 °C 16,1 km/h (3 Bft)
14.01.2026 07:35 21,7 °C 5,3 °C 49 % 94 % 1010,7 hPa 0,0 l/m² 10,8 km/h (2 Bft) SW 219 ° 0 min 0 W/m² 4,4 °C 1,9 °C 12,9 km/h (3 Bft)
14.01.2026 07:36 21,7 °C 5,4 °C 49 % 94 % 1010,7 hPa 0,0 l/m² 9,4 km/h (2 Bft) S 189 ° 0 min 0 W/m² 4,5 °C 2,9 °C 12,9 km/h (3 Bft)
14.01.2026 07:37 21,7 °C 5,4 °C 49 % 94 % 1010,7 hPa 0,0 l/m² 9,5 km/h (2 Bft) S 181 ° 0 min 0 W/m² 4,5 °C 2,9 °C 14,5 km/h (3 Bft)
14.01.2026 07:38 21,7 °C 5,5 °C 49 % 94 % 1010,7 hPa 0,0 l/m² 7,8 km/h (2 Bft) S 186 ° 0 min 0 W/m² 4,6 °C 4,3 °C 9,7 km/h (2 Bft)
14.01.2026 07:39 21,7 °C 5,6 °C 49 % 93 % 1010,8 hPa 0,0 l/m² 4,0 km/h (1 Bft) S 190 ° 0 min 0 W/m² 4,6 °C 5,6 °C 9,7 km/h (2 Bft)
14.01.2026 07:41 21,7 °C 5,7 °C 49 % 94 % 1010,8 hPa 0,0 l/m² 10,8 km/h (2 Bft) S-SW 200 ° 0 min 0 W/m² 4,8 °C 2,3 °C 19,3 km/h (3 Bft)
14.01.2026 07:43 21,7 °C 5,8 °C 49 % 93 % 1010,8 hPa 0,0 l/m² 12,6 km/h (3 Bft) S-SW 205 ° 0 min 0 W/m² 4,8 °C 1,3 °C 19,3 km/h (3 Bft)
14.01.2026 07:44 21,7 °C 5,8 °C 49 % 93 % 1010,8 hPa 0,0 l/m² 4,3 km/h (1 Bft) SW 229 ° 0 min 0 W/m² 4,8 °C 5,8 °C 9,7 km/h (2 Bft)
14.01.2026 07:45 21,7 °C 5,9 °C 49 % 93 % 1010,8 hPa 0,0 l/m² 2,3 km/h (1 Bft) S 172 ° 0 min 0 W/m² 4,9 °C 5,9 °C 6,4 km/h (2 Bft)
14.01.2026 07:46 21,7 °C 5,9 °C 49 % 93 % 1010,8 hPa 0,0 l/m² 7,8 km/h (2 Bft) S 187 ° 0 min 0 W/m² 4,9 °C 4,7 °C 9,7 km/h (2 Bft)
14.01.2026 07:47 21,7 °C 5,9 °C 49 % 93 % 1010,8 hPa 0,0 l/m² 8,0 km/h (2 Bft) S 185 ° 0 min 0 W/m² 4,9 °C 4,5 °C 11,3 km/h (2 Bft)
14.01.2026 07:48 21,7 °C 5,9 °C 49 % 93 % 1010,8 hPa 0,0 l/m² 7,9 km/h (2 Bft) S-SW 210 ° 0 min 0 W/m² 4,9 °C 4,6 °C 11,3 km/h (2 Bft)
14.01.2026 07:49 21,7 °C 6,0 °C 49 % 93 % 1010,8 hPa 0,0 l/m² 8,5 km/h (2 Bft) S 185 ° 0 min 0 W/m² 5,0 °C 4,3 °C 12,9 km/h (3 Bft)
14.01.2026 07:51 21,7 °C 6,1 °C 49 % 93 % 1010,9 hPa 0,0 l/m² 8,0 km/h (2 Bft) S-SW 198 ° 0 min 0 W/m² 5,1 °C 4,8 °C 12,9 km/h (3 Bft)
14.01.2026 07:53 21,7 °C 6,1 °C 49 % 92 % 1010,8 hPa 0,0 l/m² 8,8 km/h (2 Bft) S-SW 194 ° 0 min 0 W/m² 4,9 °C 4,1 °C 14,5 km/h (3 Bft)
14.01.2026 07:54 21,7 °C 6,1 °C 49 % 92 % 1010,8 hPa 0,0 l/m² 10,0 km/h (2 Bft) S 184 ° 0 min 0 W/m² 4,9 °C 3,3 °C 12,9 km/h (3 Bft)
14.01.2026 07:55 21,7 °C 6,1 °C 49 % 92 % 1010,9 hPa 0,0 l/m² 9,6 km/h (2 Bft) S 171 ° 0 min 0 W/m² 4,9 °C 3,6 °C 11,3 km/h (2 Bft)
14.01.2026 07:56 21,7 °C 6,1 °C 49 % 92 % 1010,8 hPa 0,0 l/m² 10,6 km/h (2 Bft) S-SW 194 ° 0 min 0 W/m² 4,9 °C 2,9 °C 12,9 km/h (3 Bft)
14.01.2026 07:57 21,7 °C 6,1 °C 49 % 92 % 1010,8 hPa 0,0 l/m² 9,2 km/h (2 Bft) S 173 ° 0 min 0 W/m² 4,9 °C 3,8 °C 14,5 km/h (3 Bft)
14.01.2026 07:58 21,7 °C 6,1 °C 49 % 92 % 1010,9 hPa 0,0 l/m² 9,1 km/h (2 Bft) S 190 ° 0 min 0 W/m² 4,9 °C 3,9 °C 12,9 km/h (3 Bft)
14.01.2026 07:59 21,7 °C 6,1 °C 49 % 91 % 1010,6 hPa 0,0 l/m² 11,1 km/h (2 Bft) S 173 ° 0 min 0 W/m² 4,7 °C 2,6 °C 14,5 km/h (3 Bft)
14.01.2026 08:00 21,7 °C 6,1 °C 49 % 91 % 1010,6 hPa 0,0 l/m² 10,1 km/h (2 Bft) S 179 ° 0 min 0 W/m² 4,7 °C 3,2 °C 12,9 km/h (3 Bft)
14.01.2026 08:02 21,7 °C 6,1 °C 49 % 91 % 1010,9 hPa 0,0 l/m² 9,2 km/h (2 Bft) S 179 ° 0 min 0 W/m² 4,7 °C 3,8 °C 12,9 km/h (3 Bft)
14.01.2026 08:03 21,7 °C 6,1 °C 49 % 91 % 1010,9 hPa 0,0 l/m² 9,1 km/h (2 Bft) S 188 ° 0 min 0 W/m² 4,7 °C 3,9 °C 12,9 km/h (3 Bft)
14.01.2026 08:04 21,7 °C 6,1 °C 49 % 91 % 1010,8 hPa 0,0 l/m² 9,6 km/h (2 Bft) S 190 ° 0 min 0 W/m² 4,7 °C 3,6 °C 11,3 km/h (2 Bft)
14.01.2026 08:05 21,7 °C 6,0 °C 49 % 90 % 1010,8 hPa 0,0 l/m² 9,0 km/h (2 Bft) S 184 ° 0 min 0 W/m² 4,5 °C 3,9 °C 11,3 km/h (2 Bft)
14.01.2026 08:06 21,7 °C 6,0 °C 49 % 90 % 1010,9 hPa 0,0 l/m² 9,2 km/h (2 Bft) S 180 ° 0 min 0 W/m² 4,5 °C 3,7 °C 12,9 km/h (3 Bft)
14.01.2026 08:08 21,7 °C 6,0 °C 49 % 90 % 1010,8 hPa 0,0 l/m² 7,8 km/h (2 Bft) S-SW 193 ° 0 min 0 W/m² 4,5 °C 4,8 °C 11,3 km/h (2 Bft)
14.01.2026 08:09 21,7 °C 5,9 °C 49 % 90 % 1010,8 hPa 0,0 l/m² 8,2 km/h (2 Bft) S-SW 194 ° 0 min 0 W/m² 4,4 °C 4,4 °C 9,7 km/h (2 Bft)
14.01.2026 08:11 21,7 °C 5,9 °C 49 % 90 % 1011,0 hPa 0,0 l/m² 8,6 km/h (2 Bft) S-SW 202 ° 0 min 0 W/m² 4,4 °C 4,1 °C 14,5 km/h (3 Bft)
14.01.2026 08:13 21,7 °C 5,9 °C 49 % 89 % 1011,0 hPa 0,0 l/m² 9,4 km/h (2 Bft) S-SW 208 ° 0 min 0 W/m² 4,2 °C 3,5 °C 12,9 km/h (3 Bft)
14.01.2026 08:14 21,7 °C 5,9 °C 49 % 89 % 1011,1 hPa 0,0 l/m² 7,2 km/h (2 Bft) S-SW 209 ° 0 min 0 W/m² 4,2 °C 5,2 °C 9,7 km/h (2 Bft)
14.01.2026 08:15 21,8 °C 5,9 °C 49 % 89 % 1011,0 hPa 0,0 l/m² 6,9 km/h (2 Bft) S-SW 209 ° 0 min 0 W/m² 4,2 °C 5,5 °C 8,0 km/h (2 Bft)
14.01.2026 08:16 21,8 °C 5,8 °C 49 % 89 % 1011,1 hPa 0,0 l/m² 7,6 km/h (2 Bft) S-SW 208 ° 0 min 0 W/m² 4,1 °C 4,8 °C 11,3 km/h (2 Bft)
14.01.2026 08:17 21,8 °C 5,8 °C 49 % 89 % 1011,1 hPa 0,0 l/m² 7,7 km/h (2 Bft) S-SW 207 ° 0 min 0 W/m² 4,1 °C 4,7 °C 11,3 km/h (2 Bft)
14.01.2026 08:18 21,7 °C 5,8 °C 49 % 89 % 1011,0 hPa 0,0 l/m² 7,0 km/h (2 Bft) S-SW 209 ° 0 min 0 W/m² 4,1 °C 5,3 °C 9,7 km/h (2 Bft)
14.01.2026 08:19 21,7 °C 5,8 °C 49 % 89 % 1011,1 hPa 0,0 l/m² 6,6 km/h (2 Bft) S-SW 210 ° 0 min 0 W/m² 4,1 °C 5,7 °C 8,0 km/h (2 Bft)
14.01.2026 08:21 21,8 °C 5,8 °C 49 % 89 % 1011,0 hPa 0,0 l/m² 5,9 km/h (2 Bft) S-SW 211 ° 0 min 0 W/m² 4,1 °C 5,8 °C 6,4 km/h (2 Bft)
14.01.2026 08:23 21,7 °C 5,7 °C 49 % 89 % 1011,1 hPa 0,0 l/m² 6,8 km/h (2 Bft) SW 214 ° 0 min 0 W/m² 4,0 °C 5,4 °C 8,0 km/h (2 Bft)
14.01.2026 08:24 21,7 °C 5,7 °C 49 % 89 % 1011,1 hPa 0,0 l/m² 6,9 km/h (2 Bft) SW 214 ° 0 min 0 W/m² 4,0 °C 5,3 °C 8,0 km/h (2 Bft)
14.01.2026 08:25 21,7 °C 5,7 °C 49 % 89 % 1011,1 hPa 0,0 l/m² 6,3 km/h (2 Bft) SW 214 ° 0 min 0 W/m² 4,0 °C 5,7 °C 8,0 km/h (2 Bft)
14.01.2026 08:26 21,7 °C 5,7 °C 49 % 88 % 1011,1 hPa 0,0 l/m² 5,8 km/h (2 Bft) SW 214 ° 0 min 0 W/m² 3,9 °C 5,7 °C 6,4 km/h (2 Bft)
14.01.2026 08:27 21,7 °C 5,7 °C 49 % 88 % 1011,1 hPa 0,0 l/m² 5,8 km/h (2 Bft) SW 214 ° 0 min 0 W/m² 3,9 °C 5,7 °C 6,4 km/h (2 Bft)
14.01.2026 08:28 21,8 °C 5,6 °C 49 % 88 % 1011,1 hPa 0,0 l/m² 4,2 km/h (1 Bft) SW 214 ° 0 min 0 W/m² 3,8 °C 5,6 °C 4,8 km/h (1 Bft)
14.01.2026 08:29 21,8 °C 5,6 °C 49 % 88 % 1011,1 hPa 0,0 l/m² 4,9 km/h (1 Bft) SW 214 ° 0 min 0 W/m² 3,8 °C 5,6 °C 6,4 km/h (2 Bft)
14.01.2026 08:31 21,7 °C 5,6 °C 49 % 88 % 1011,2 hPa 0,0 l/m² 4,8 km/h (1 Bft) S-SW 208 ° 0 min 0 W/m² 3,8 °C 5,6 °C 8,0 km/h (2 Bft)
14.01.2026 08:33 21,7 °C 5,6 °C 49 % 88 % 1011,1 hPa 0,0 l/m² 4,9 km/h (1 Bft) S-SW 203 ° 0 min 0 W/m² 3,8 °C 5,6 °C 6,4 km/h (2 Bft)
14.01.2026 08:34 21,7 °C 5,6 °C 49 % 88 % 1011,1 hPa 0,0 l/m² 5,6 km/h (2 Bft) S-SW 202 ° 0 min 0 W/m² 3,8 °C 5,6 °C 8,0 km/h (2 Bft)
14.01.2026 08:35 21,7 °C 5,6 °C 49 % 88 % 1011,1 hPa 0,0 l/m² 5,3 km/h (1 Bft) S-SW 202 ° 0 min 0 W/m² 3,8 °C 5,6 °C 6,4 km/h (2 Bft)
14.01.2026 08:36 21,8 °C 5,5 °C 49 % 88 % 1011,2 hPa 0,0 l/m² 6,0 km/h (2 Bft) S-SW 200 ° 0 min 0 W/m² 3,7 °C 5,5 °C 8,0 km/h (2 Bft)
14.01.2026 08:37 21,7 °C 5,5 °C 49 % 88 % 1011,2 hPa 0,0 l/m² 6,6 km/h (2 Bft) S-SW 198 ° 0 min 0 W/m² 3,7 °C 5,3 °C 8,0 km/h (2 Bft)
14.01.2026 08:38 21,7 °C 5,5 °C 49 % 88 % 1011,1 hPa 0,0 l/m² 9,5 km/h (2 Bft) S-SW 198 ° 0 min 0 W/m² 3,7 °C 3,0 °C 12,9 km/h (3 Bft)
14.01.2026 08:39 21,8 °C 5,4 °C 49 % 88 % 1011,2 hPa 0,0 l/m² 7,6 km/h (2 Bft) S-SW 194 ° 0 min 5 W/m² 3,6 °C 4,4 °C 8,0 km/h (2 Bft)
14.01.2026 08:41 21,7 °C 5,4 °C 49 % 88 % 1011,2 hPa 0,0 l/m² 8,8 km/h (2 Bft) S 190 ° 0 min 5 W/m² 3,6 °C 3,4 °C 11,3 km/h (2 Bft)
14.01.2026 08:43 21,8 °C 5,3 °C 49 % 88 % 1011,2 hPa 0,0 l/m² 7,4 km/h (2 Bft) S 188 ° 0 min 5 W/m² 3,5 °C 4,4 °C 11,3 km/h (2 Bft)
14.01.2026 08:44 21,8 °C 5,3 °C 49 % 88 % 1011,1 hPa 0,0 l/m² 5,5 km/h (2 Bft) S 187 ° 0 min 5 W/m² 3,5 °C 5,3 °C 6,4 km/h (2 Bft)
14.01.2026 08:45 21,8 °C 5,3 °C 49 % 88 % 1011,2 hPa 0,0 l/m² 5,9 km/h (2 Bft) S 186 ° 0 min 5 W/m² 3,5 °C 5,3 °C 8,0 km/h (2 Bft)
14.01.2026 08:46 21,8 °C 5,3 °C 49 % 88 % 1011,3 hPa 0,0 l/m² 5,2 km/h (1 Bft) S 186 ° 0 min 5 W/m² 3,5 °C 5,3 °C 6,4 km/h (2 Bft)
14.01.2026 08:47 21,8 °C 5,2 °C 49 % 88 % 1011,3 hPa 0,0 l/m² 4,5 km/h (1 Bft) S 186 ° 0 min 5 W/m² 3,4 °C 5,2 °C 6,4 km/h (2 Bft)
14.01.2026 08:48 21,8 °C 5,2 °C 49 % 88 % 1011,2 hPa 0,0 l/m² 3,7 km/h (1 Bft) S 189 ° 0 min 5 W/m² 3,4 °C 5,2 °C 8,0 km/h (2 Bft)
14.01.2026 08:49 21,8 °C 5,2 °C 49 % 88 % 1011,3 hPa 0,0 l/m² 7,4 km/h (2 Bft) S 190 ° 0 min 7 W/m² 3,4 °C 4,3 °C 9,7 km/h (2 Bft)
14.01.2026 08:51 21,8 °C 5,2 °C 49 % 88 % 1011,3 hPa 0,0 l/m² 7,2 km/h (2 Bft) S 191 ° 0 min 7 W/m² 3,4 °C 4,5 °C 8,0 km/h (2 Bft)
14.01.2026 08:53 21,8 °C 5,1 °C 49 % 88 % 1011,3 hPa 0,0 l/m² 6,4 km/h (2 Bft) S 190 ° 0 min 7 W/m² 3,3 °C 5,1 °C 8,0 km/h (2 Bft)
14.01.2026 08:54 21,8 °C 5,1 °C 49 % 88 % 1011,3 hPa 0,0 l/m² 5,4 km/h (2 Bft) S-SW 200 ° 0 min 7 W/m² 3,3 °C 5,1 °C 9,7 km/h (2 Bft)
14.01.2026 08:55 21,8 °C 5,1 °C 49 % 88 % 1011,2 hPa 0,0 l/m² 2,5 km/h (1 Bft) S-SW 200 ° 0 min 9 W/m² 3,3 °C 5,1 °C 6,4 km/h (2 Bft)
14.01.2026 08:56 21,8 °C 5,1 °C 49 % 88 % 1011,2 hPa 0,0 l/m² 4,3 km/h (1 Bft) S-SW 198 ° 0 min 9 W/m² 3,3 °C 5,1 °C 4,8 km/h (1 Bft)
14.01.2026 08:57 21,8 °C 5,0 °C 49 % 88 % 1011,3 hPa 0,0 l/m² 5,3 km/h (1 Bft) S-SW 200 ° 0 min 9 W/m² 3,2 °C 5,0 °C 8,0 km/h (2 Bft)
14.01.2026 08:58 21,8 °C 5,0 °C 49 % 88 % 1011,3 hPa 0,0 l/m² 5,2 km/h (1 Bft) S-SW 200 ° 0 min 9 W/m² 3,2 °C 5,0 °C 6,4 km/h (2 Bft)
14.01.2026 08:59 21,8 °C 4,9 °C 49 % 88 % 1011,3 hPa 0,0 l/m² 5,8 km/h (2 Bft) S-SW 200 ° 0 min 9 W/m² 3,1 °C 4,9 °C 6,4 km/h (2 Bft)
14.01.2026 09:01 21,8 °C 4,9 °C 48 % 88 % 1011,3 hPa 0,0 l/m² 5,6 km/h (2 Bft) S-SW 194 ° 0 min 9 W/m² 3,1 °C 4,9 °C 8,0 km/h (2 Bft)
14.01.2026 09:03 21,8 °C 4,9 °C 48 % 88 % 1011,4 hPa 0,0 l/m² 6,4 km/h (2 Bft) S-SW 198 ° 0 min 7 W/m² 3,1 °C 4,9 °C 9,7 km/h (2 Bft)
14.01.2026 09:04 21,8 °C 4,9 °C 48 % 88 % 1011,2 hPa 0,0 l/m² 5,4 km/h (2 Bft) S-SW 197 ° 0 min 7 W/m² 3,1 °C 4,9 °C 8,0 km/h (2 Bft)
14.01.2026 09:05 21,8 °C 4,8 °C 48 % 88 % 1011,3 hPa 0,0 l/m² 5,0 km/h (1 Bft) S-SW 197 ° 0 min 9 W/m² 3,0 °C 4,8 °C 6,4 km/h (2 Bft)
14.01.2026 09:06 21,8 °C 4,8 °C 48 % 88 % 1011,4 hPa 0,0 l/m² 6,9 km/h (2 Bft) S-SW 192 ° 0 min 9 W/m² 3,0 °C 4,4 °C 11,3 km/h (2 Bft)
14.01.2026 09:07 21,8 °C 4,8 °C 48 % 88 % 1011,3 hPa 0,0 l/m² 5,3 km/h (1 Bft) S 191 ° 0 min 9 W/m² 3,0 °C 4,8 °C 9,7 km/h (2 Bft)
14.01.2026 09:08 21,8 °C 4,8 °C 48 % 88 % 1011,4 hPa 0,0 l/m² 6,9 km/h (2 Bft) S-SW 198 ° 0 min 9 W/m² 3,0 °C 4,4 °C 9,7 km/h (2 Bft)
14.01.2026 09:09 21,8 °C 4,8 °C 48 % 88 % 1011,4 hPa 0,0 l/m² 7,2 km/h (2 Bft) S-SW 194 ° 0 min 9 W/m² 3,0 °C 4,1 °C 9,7 km/h (2 Bft)
14.01.2026 09:11 21,8 °C 4,8 °C 48 % 88 % 1011,4 hPa 0,0 l/m² 7,3 km/h (2 Bft) S-SW 201 ° 0 min 9 W/m² 3,0 °C 4,0 °C 11,3 km/h (2 Bft)
14.01.2026 09:13 21,8 °C 4,8 °C 48 % 88 % 1011,3 hPa 0,0 l/m² 8,5 km/h (2 Bft) S-SW 202 ° 0 min 11 W/m² 3,0 °C 3,0 °C 12,9 km/h (3 Bft)
14.01.2026 09:14 21,8 °C 4,8 °C 48 % 88 % 1011,4 hPa 0,0 l/m² 9,6 km/h (2 Bft) S-SW 208 ° 0 min 11 W/m² 3,0 °C 2,1 °C 12,9 km/h (3 Bft)
14.01.2026 09:15 21,8 °C 4,8 °C 48 % 88 % 1011,4 hPa 0,0 l/m² 9,0 km/h (2 Bft) SW 224 ° 0 min 11 W/m² 3,0 °C 2,6 °C 12,9 km/h (3 Bft)
14.01.2026 09:16 21,8 °C 4,8 °C 48 % 88 % 1011,4 hPa 0,0 l/m² 9,4 km/h (2 Bft) SW 220 ° 0 min 12 W/m² 3,0 °C 2,3 °C 12,9 km/h (3 Bft)
14.01.2026 09:17 21,8 °C 4,8 °C 48 % 89 % 1011,5 hPa 0,0 l/m² 8,8 km/h (2 Bft) S-SW 211 ° 0 min 12 W/m² 3,1 °C 2,7 °C 14,5 km/h (3 Bft)
14.01.2026 09:18 21,8 °C 4,9 °C 48 % 89 % 1011,5 hPa 0,0 l/m² 8,4 km/h (2 Bft) S-SW 197 ° 0 min 12 W/m² 3,2 °C 3,2 °C 11,3 km/h (2 Bft)
14.01.2026 09:19 21,8 °C 4,9 °C 48 % 89 % 1011,5 hPa 0,0 l/m² 8,1 km/h (2 Bft) S-SW 204 ° 0 min 12 W/m² 3,2 °C 3,4 °C 12,9 km/h (3 Bft)
14.01.2026 09:21 21,8 °C 4,9 °C 48 % 89 % 1011,5 hPa 0,0 l/m² 8,7 km/h (2 Bft) S-SW 213 ° 0 min 12 W/m² 3,2 °C 2,9 °C 14,5 km/h (3 Bft)
14.01.2026 09:23 21,8 °C 4,9 °C 48 % 89 % 1011,6 hPa 0,0 l/m² 9,0 km/h (2 Bft) SW 220 ° 0 min 14 W/m² 3,2 °C 2,7 °C 11,3 km/h (2 Bft)
14.01.2026 09:24 21,8 °C 4,9 °C 48 % 89 % 1011,5 hPa 0,0 l/m² 8,5 km/h (2 Bft) SW 219 ° 0 min 16 W/m² 3,2 °C 3,1 °C 9,7 km/h (2 Bft)
14.01.2026 09:25 21,8 °C 4,9 °C 48 % 89 % 1011,6 hPa 0,0 l/m² 11,0 km/h (2 Bft) S-SW 210 ° 0 min 16 W/m² 3,2 °C 1,3 °C 12,9 km/h (3 Bft)
14.01.2026 09:26 21,8 °C 5,0 °C 48 % 89 % 1011,6 hPa 0,0 l/m² 9,3 km/h (2 Bft) SW 215 ° 0 min 18 W/m² 3,3 °C 2,6 °C 11,3 km/h (2 Bft)
14.01.2026 09:27 21,8 °C 4,9 °C 48 % 89 % 1011,6 hPa 0,0 l/m² 8,2 km/h (2 Bft) SW 215 ° 0 min 18 W/m² 3,2 °C 3,3 °C 11,3 km/h (2 Bft)
14.01.2026 09:28 21,8 °C 5,0 °C 48 % 89 % 1011,6 hPa 0,0 l/m² 7,8 km/h (2 Bft) SW 215 ° 0 min 18 W/m² 3,3 °C 3,8 °C 9,7 km/h (2 Bft)
14.01.2026 09:29 21,8 °C 5,0 °C 48 % 89 % 1011,6 hPa 0,0 l/m² 8,1 km/h (2 Bft) SW 218 ° 0 min 18 W/m² 3,3 °C 3,5 °C 11,3 km/h (2 Bft)
14.01.2026 09:31 21,8 °C 5,0 °C 49 % 89 % 1011,7 hPa 0,0 l/m² 8,8 km/h (2 Bft) S-SW 208 ° 0 min 18 W/m² 3,3 °C 3,0 °C 14,5 km/h (3 Bft)
14.01.2026 09:33 21,8 °C 5,0 °C 49 % 89 % 1011,6 hPa 0,0 l/m² 6,9 km/h (2 Bft) SW 217 ° 0 min 16 W/m² 3,3 °C 4,6 °C 9,7 km/h (2 Bft)
14.01.2026 09:34 21,8 °C 5,0 °C 49 % 89 % 1011,7 hPa 0,0 l/m² 7,2 km/h (2 Bft) S-SW 213 ° 0 min 16 W/m² 3,3 °C 4,3 °C 9,7 km/h (2 Bft)
14.01.2026 09:35 21,8 °C 5,0 °C 49 % 89 % 1011,7 hPa 0,0 l/m² 6,4 km/h (2 Bft) S-SW 213 ° 0 min 16 W/m² 3,3 °C 5,0 °C 8,0 km/h (2 Bft)
14.01.2026 09:36 21,8 °C 5,0 °C 49 % 89 % 1011,7 hPa 0,0 l/m² 6,9 km/h (2 Bft) SW 215 ° 0 min 16 W/m² 3,3 °C 4,6 °C 8,0 km/h (2 Bft)
14.01.2026 09:37 21,8 °C 5,0 °C 49 % 89 % 1011,8 hPa 0,0 l/m² 6,3 km/h (2 Bft) SW 219 ° 0 min 16 W/m² 3,3 °C 5,0 °C 8,0 km/h (2 Bft)
14.01.2026 09:38 21,8 °C 5,0 °C 49 % 89 % 1011,8 hPa 0,0 l/m² 7,2 km/h (2 Bft) SW 227 ° 0 min 16 W/m² 3,3 °C 4,3 °C 8,0 km/h (2 Bft)
14.01.2026 09:39 21,8 °C 5,0 °C 49 % 89 % 1011,8 hPa 0,0 l/m² 7,1 km/h (2 Bft) SW 219 ° 0 min 16 W/m² 3,3 °C 4,4 °C 9,7 km/h (2 Bft)
14.01.2026 09:41 21,8 °C 5,0 °C 49 % 89 % 1011,9 hPa 0,0 l/m² 6,6 km/h (2 Bft) SW 222 ° 0 min 16 W/m² 3,3 °C 4,8 °C 9,7 km/h (2 Bft)
14.01.2026 09:43 21,8 °C 5,0 °C 49 % 89 % 1011,9 hPa 0,0 l/m² 6,8 km/h (2 Bft) SW 225 ° 0 min 16 W/m² 3,3 °C 4,7 °C 8,0 km/h (2 Bft)
14.01.2026 09:45 21,8 °C 5,1 °C 49 % 89 % 1011,9 hPa 0,0 l/m² 6,3 km/h (2 Bft) SW 225 ° 0 min 16 W/m² 3,4 °C 5,1 °C 8,0 km/h (2 Bft)
14.01.2026 09:46 21,8 °C 5,1 °C 49 % 89 % 1011,9 hPa 0,0 l/m² 6,2 km/h (2 Bft) S-SW 212 ° 0 min 16 W/m² 3,4 °C 5,1 °C 9,7 km/h (2 Bft)
14.01.2026 09:47 21,8 °C 5,1 °C 49 % 89 % 1011,9 hPa 0,0 l/m² 5,6 km/h (2 Bft) SW 214 ° 0 min 16 W/m² 3,4 °C 5,1 °C 6,4 km/h (2 Bft)
14.01.2026 09:48 21,8 °C 5,0 °C 49 % 89 % 1012,0 hPa 0,0 l/m² 5,9 km/h (2 Bft) SW 215 ° 0 min 16 W/m² 3,3 °C 5,0 °C 8,0 km/h (2 Bft)
14.01.2026 09:49 21,8 °C 5,1 °C 49 % 89 % 1012,0 hPa 0,0 l/m² 6,8 km/h (2 Bft) SW 219 ° 0 min 18 W/m² 3,4 °C 4,8 °C 8,0 km/h (2 Bft)
14.01.2026 09:51 21,8 °C 5,0 °C 49 % 89 % 1012,0 hPa 0,0 l/m² 6,1 km/h (2 Bft) S-SW 213 ° 0 min 18 W/m² 3,3 °C 5,0 °C 8,0 km/h (2 Bft)
14.01.2026 09:53 21,8 °C 5,0 °C 49 % 89 % 1012,0 hPa 0,0 l/m² 6,5 km/h (2 Bft) S-SW 206 ° 0 min 18 W/m² 3,3 °C 4,9 °C 9,7 km/h (2 Bft)
14.01.2026 09:54 21,8 °C 5,0 °C 49 % 89 % 1012,0 hPa 0,0 l/m² 7,2 km/h (2 Bft) S-SW 205 ° 0 min 18 W/m² 3,3 °C 4,3 °C 9,7 km/h (2 Bft)
14.01.2026 09:55 21,8 °C 5,0 °C 49 % 89 % 1012,0 hPa 0,0 l/m² 6,6 km/h (2 Bft) S-SW 207 ° 0 min 19 W/m² 3,3 °C 4,8 °C 8,0 km/h (2 Bft)
14.01.2026 09:56 21,8 °C 4,9 °C 49 % 89 % 1012,0 hPa 0,0 l/m² 5,0 km/h (1 Bft) S-SW 207 ° 0 min 21 W/m² 3,2 °C 4,9 °C 6,4 km/h (2 Bft)
14.01.2026 09:57 21,8 °C 4,9 °C 49 % 89 % 1012,0 hPa 0,0 l/m² 5,3 km/h (1 Bft) S-SW 206 ° 0 min 21 W/m² 3,2 °C 4,9 °C 6,4 km/h (2 Bft)
14.01.2026 09:58 21,8 °C 4,9 °C 49 % 89 % 1012,0 hPa 0,0 l/m² 2,2 km/h (1 Bft) S-SW 206 ° 0 min 21 W/m² 3,2 °C 4,9 °C 4,8 km/h (1 Bft)
14.01.2026 09:59 21,8 °C 4,9 °C 49 % 89 % 1012,0 hPa 0,0 l/m² 5,3 km/h (1 Bft) S-SW 197 ° 0 min 23 W/m² 3,2 °C 4,9 °C 8,0 km/h (2 Bft)
14.01.2026 10:01 21,8 °C 4,9 °C 49 % 89 % 1012,0 hPa 0,0 l/m² 6,3 km/h (2 Bft) S-SW 199 ° 0 min 23 W/m² 3,2 °C 4,9 °C 9,7 km/h (2 Bft)
14.01.2026 10:03 21,8 °C 4,9 °C 49 % 89 % 1012,1 hPa 0,0 l/m² 5,8 km/h (2 Bft) S-SW 199 ° 0 min 23 W/m² 3,2 °C 4,9 °C 8,0 km/h (2 Bft)
14.01.2026 10:04 21,8 °C 4,9 °C 49 % 89 % 1012,0 hPa 0,0 l/m² 5,2 km/h (1 Bft) S-SW 199 ° 0 min 23 W/m² 3,2 °C 4,9 °C 6,4 km/h (2 Bft)
14.01.2026 10:05 21,8 °C 4,9 °C 49 % 89 % 1012,0 hPa 0,0 l/m² 2,0 km/h (1 Bft) S-SW 199 ° 0 min 23 W/m² 3,2 °C 4,9 °C 6,4 km/h (2 Bft)
14.01.2026 10:06 21,8 °C 4,9 °C 49 % 89 % 1012,1 hPa 0,0 l/m² 0,0 km/h (0 Bft) S-SW 199 ° 0 min 23 W/m² 3,2 °C 4,9 °C 0,0 km/h (0 Bft)
14.01.2026 10:08 21,8 °C 4,8 °C 49 % 89 % 1012,1 hPa 0,0 l/m² 1,6 km/h (1 Bft) S-SW 199 ° 0 min 23 W/m² 3,1 °C 4,8 °C 6,4 km/h (2 Bft)
14.01.2026 10:09 21,8 °C 4,8 °C 49 % 89 % 1012,1 hPa 0,0 l/m² 0,9 km/h (0 Bft) S-SW 199 ° 0 min 23 W/m² 3,1 °C 4,8 °C 6,4 km/h (2 Bft)
14.01.2026 10:11 21,8 °C 4,8 °C 49 % 89 % 1012,1 hPa 0,0 l/m² 0,4 km/h (0 Bft) S-SW 199 ° 0 min 21 W/m² 3,1 °C 4,8 °C 4,8 km/h (1 Bft)
14.01.2026 10:13 21,8 °C 4,8 °C 49 % 89 % 1012,2 hPa 0,0 l/m² 1,5 km/h (1 Bft) S-SW 199 ° 0 min 21 W/m² 3,1 °C 4,8 °C 6,4 km/h (2 Bft)
14.01.2026 10:14 21,8 °C 4,8 °C 49 % 89 % 1012,2 hPa 0,0 l/m² 0,0 km/h (0 Bft) S-SW 199 ° 0 min 21 W/m² 3,1 °C 4,8 °C 0,0 km/h (0 Bft)
14.01.2026 10:15 21,8 °C 4,8 °C 49 % 89 % 1012,2 hPa 0,0 l/m² 0,0 km/h (0 Bft) S-SW 199 ° 0 min 23 W/m² 3,1 °C 4,8 °C 0,0 km/h (0 Bft)
14.01.2026 10:16 21,8 °C 4,8 °C 49 % 89 % 1012,1 hPa 0,0 l/m² 0,0 km/h (0 Bft) S-SW 199 ° 0 min 23 W/m² 3,1 °C 4,8 °C 0,0 km/h (0 Bft)
14.01.2026 10:17 21,8 °C 4,8 °C 49 % 89 % 1012,1 hPa 0,0 l/m² 1,4 km/h (1 Bft) S-SW 198 ° 0 min 23 W/m² 3,1 °C 4,8 °C 3,2 km/h (1 Bft)
14.01.2026 10:18 21,8 °C 4,8 °C 49 % 89 % 1012,1 hPa 0,0 l/m² 0,4 km/h (0 Bft) S-SW 198 ° 0 min 25 W/m² 3,1 °C 4,8 °C 4,8 km/h (1 Bft)
14.01.2026 10:19 21,8 °C 4,8 °C 49 % 89 % 1012,1 hPa 0,0 l/m² 0,0 km/h (0 Bft) S-SW 198 ° 0 min 26 W/m² 3,1 °C 4,8 °C 0,0 km/h (0 Bft)
14.01.2026 10:21 21,8 °C 4,7 °C 49 % 89 % 1012,2 hPa 0,0 l/m² 0,0 km/h (0 Bft) S-SW 198 ° 0 min 28 W/m² 3,0 °C 4,7 °C 0,0 km/h (0 Bft)
14.01.2026 10:23 21,7 °C 4,7 °C 49 % 89 % 1012,2 hPa 0,0 l/m² 0,0 km/h (0 Bft) S-SW 198 ° 0 min 30 W/m² 3,0 °C 4,7 °C 0,0 km/h (0 Bft)
14.01.2026 10:24 21,7 °C 4,7 °C 49 % 89 % 1012,1 hPa 0,0 l/m² 2,2 km/h (1 Bft) S-SW 198 ° 0 min 32 W/m² 3,0 °C 4,7 °C 6,4 km/h (2 Bft)
14.01.2026 10:25 21,8 °C 4,7 °C 49 % 89 % 1012,2 hPa 0,0 l/m² 4,4 km/h (1 Bft) S-SW 198 ° 0 min 32 W/m² 3,0 °C 4,7 °C 6,4 km/h (2 Bft)
14.01.2026 10:26 21,7 °C 4,7 °C 49 % 89 % 1012,2 hPa 0,0 l/m² 2,1 km/h (1 Bft) S-SW 198 ° 0 min 32 W/m² 3,0 °C 4,7 °C 6,4 km/h (2 Bft)
14.01.2026 10:27 21,7 °C 4,7 °C 49 % 89 % 1012,1 hPa 0,0 l/m² 4,7 km/h (1 Bft) S-SW 198 ° 0 min 33 W/m² 3,0 °C 4,7 °C 6,4 km/h (2 Bft)
14.01.2026 10:28 21,7 °C 4,7 °C 48 % 89 % 1012,1 hPa 0,0 l/m² 2,5 km/h (1 Bft) S-SW 198 ° 0 min 33 W/m² 3,0 °C 4,7 °C 6,4 km/h (2 Bft)
14.01.2026 10:29 21,7 °C 4,6 °C 48 % 89 % 1012,2 hPa 0,0 l/m² 3,1 km/h (1 Bft) S-SW 198 ° 0 min 33 W/m² 2,9 °C 4,6 °C 6,4 km/h (2 Bft)
14.01.2026 10:31 21,7 °C 4,6 °C 48 % 89 % 1012,2 hPa 0,0 l/m² 4,8 km/h (1 Bft) S-SW 200 ° 0 min 37 W/m² 2,9 °C 4,6 °C 8,0 km/h (2 Bft)
14.01.2026 10:33 21,7 °C 4,6 °C 48 % 89 % 1012,2 hPa 0,0 l/m² 5,4 km/h (2 Bft) S-SW 200 ° 0 min 39 W/m² 2,9 °C 4,6 °C 6,4 km/h (2 Bft)
14.01.2026 10:34 21,7 °C 4,6 °C 48 % 89 % 1012,1 hPa 0,0 l/m² 7,4 km/h (2 Bft) S 191 ° 0 min 39 W/m² 2,9 °C 3,7 °C 9,7 km/h (2 Bft)
14.01.2026 10:35 21,7 °C 4,6 °C 48 % 89 % 1012,1 hPa 0,0 l/m² 7,5 km/h (2 Bft) S-SW 196 ° 0 min 39 W/m² 2,9 °C 3,6 °C 9,7 km/h (2 Bft)
14.01.2026 10:36 21,7 °C 4,6 °C 49 % 89 % 1012,2 hPa 0,0 l/m² 7,5 km/h (2 Bft) S-SW 195 ° 0 min 39 W/m² 2,9 °C 3,6 °C 9,7 km/h (2 Bft)
14.01.2026 10:37 21,7 °C 4,6 °C 49 % 89 % 1012,1 hPa 0,0 l/m² 7,9 km/h (2 Bft) S-SW 196 ° 0 min 39 W/m² 2,9 °C 3,3 °C 11,3 km/h (2 Bft)
14.01.2026 10:38 21,7 °C 4,6 °C 49 % 89 % 1012,2 hPa 0,0 l/m² 7,0 km/h (2 Bft) S-SW 196 ° 0 min 40 W/m² 2,9 °C 4,1 °C 11,3 km/h (2 Bft)
14.01.2026 10:39 21,7 °C 4,6 °C 49 % 90 % 1012,1 hPa 0,0 l/m² 5,9 km/h (2 Bft) S-SW 197 ° 0 min 40 W/m² 3,1 °C 4,6 °C 8,0 km/h (2 Bft)
14.01.2026 10:41 21,7 °C 4,6 °C 49 % 90 % 1012,1 hPa 0,0 l/m² 7,2 km/h (2 Bft) S-SW 205 ° 0 min 44 W/m² 3,1 °C 3,9 °C 9,7 km/h (2 Bft)
14.01.2026 10:43 21,7 °C 4,7 °C 49 % 90 % 1012,2 hPa 0,0 l/m² 6,3 km/h (2 Bft) S-SW 204 ° 0 min 47 W/m² 3,2 °C 4,7 °C 8,0 km/h (2 Bft)
14.01.2026 10:44 21,7 °C 4,7 °C 49 % 90 % 1012,1 hPa 0,0 l/m² 6,8 km/h (2 Bft) S-SW 203 ° 0 min 47 W/m² 3,2 °C 4,4 °C 9,7 km/h (2 Bft)
14.01.2026 10:45 21,7 °C 4,7 °C 49 % 90 % 1012,1 hPa 0,0 l/m² 6,1 km/h (2 Bft) S-SW 203 ° 0 min 47 W/m² 3,2 °C 4,7 °C 8,0 km/h (2 Bft)
14.01.2026 10:46 21,7 °C 4,7 °C 49 % 90 % 1012,1 hPa 0,0 l/m² 7,1 km/h (2 Bft) S-SW 202 ° 0 min 46 W/m² 3,2 °C 4,1 °C 8,0 km/h (2 Bft)
14.01.2026 10:47 21,7 °C 4,7 °C 49 % 90 % 1012,2 hPa 0,0 l/m² 5,8 km/h (2 Bft) S-SW 200 ° 0 min 44 W/m² 3,2 °C 4,7 °C 8,0 km/h (2 Bft)
14.01.2026 10:48 21,7 °C 4,7 °C 49 % 90 % 1012,2 hPa 0,0 l/m² 6,7 km/h (2 Bft) S-SW 202 ° 0 min 39 W/m² 3,2 °C 4,4 °C 8,0 km/h (2 Bft)
14.01.2026 10:49 21,7 °C 4,7 °C 49 % 90 % 1012,1 hPa 0,0 l/m² 6,1 km/h (2 Bft) S-SW 205 ° 0 min 35 W/m² 3,2 °C 4,7 °C 8,0 km/h (2 Bft)
14.01.2026 10:51 21,7 °C 4,8 °C 49 % 90 % 1012,2 hPa 0,0 l/m² 7,8 km/h (2 Bft) S-SW 199 ° 0 min 30 W/m² 3,3 °C 3,6 °C 9,7 km/h (2 Bft)
14.01.2026 10:53 21,7 °C 4,8 °C 49 % 90 % 1012,2 hPa 0,0 l/m² 7,9 km/h (2 Bft) S-SW 211 ° 0 min 26 W/m² 3,3 °C 3,5 °C 9,7 km/h (2 Bft)
14.01.2026 10:54 21,7 °C 4,8 °C 49 % 90 % 1012,2 hPa 0,0 l/m² 6,4 km/h (2 Bft) S-SW 210 ° 0 min 26 W/m² 3,3 °C 4,8 °C 8,0 km/h (2 Bft)
14.01.2026 10:55 21,7 °C 4,8 °C 49 % 90 % 1012,2 hPa 0,0 l/m² 6,4 km/h (2 Bft) S-SW 207 ° 0 min 26 W/m² 3,3 °C 4,8 °C 9,7 km/h (2 Bft)
14.01.2026 10:56 21,7 °C 4,8 °C 49 % 90 % 1012,2 hPa 0,0 l/m² 5,9 km/h (2 Bft) S-SW 207 ° 0 min 28 W/m² 3,3 °C 4,8 °C 8,0 km/h (2 Bft)
14.01.2026 10:57 21,7 °C 4,9 °C 49 % 90 % 1012,3 hPa 0,0 l/m² 5,6 km/h (2 Bft) S-SW 207 ° 0 min 30 W/m² 3,4 °C 4,9 °C 6,4 km/h (2 Bft)
14.01.2026 10:58 21,7 °C 4,9 °C 49 % 90 % 1012,3 hPa 0,0 l/m² 6,7 km/h (2 Bft) SW 223 ° 0 min 32 W/m² 3,4 °C 4,7 °C 8,0 km/h (2 Bft)
14.01.2026 10:59 21,7 °C 4,9 °C 49 % 90 % 1012,2 hPa 0,0 l/m² 6,1 km/h (2 Bft) SW 226 ° 0 min 35 W/m² 3,4 °C 4,9 °C 8,0 km/h (2 Bft)
14.01.2026 11:01 21,7 °C 4,9 °C 49 % 90 % 1012,2 hPa 0,0 l/m² 6,7 km/h (2 Bft) SW 215 ° 0 min 42 W/m² 3,4 °C 4,7 °C 8,0 km/h (2 Bft)
14.01.2026 11:03 21,7 °C 4,9 °C 49 % 90 % 1012,2 hPa 0,0 l/m² 7,3 km/h (2 Bft) S-SW 209 ° 0 min 49 W/m² 3,4 °C 4,1 °C 9,7 km/h (2 Bft)
14.01.2026 11:04 21,7 °C 4,9 °C 49 % 90 % 1012,3 hPa 0,0 l/m² 6,9 km/h (2 Bft) S-SW 208 ° 1 min 53 W/m² 3,4 °C 4,5 °C 9,7 km/h (2 Bft)
14.01.2026 11:05 21,8 °C 4,9 °C 49 % 90 % 1012,2 hPa 0,0 l/m² 6,9 km/h (2 Bft) S-SW 211 ° 1 min 54 W/m² 3,4 °C 4,5 °C 8,0 km/h (2 Bft)
14.01.2026 11:06 21,8 °C 4,9 °C 49 % 90 % 1012,2 hPa 0,0 l/m² 6,8 km/h (2 Bft) SW 221 ° 1 min 56 W/m² 3,4 °C 4,6 °C 8,0 km/h (2 Bft)
14.01.2026 11:07 21,7 °C 5,0 °C 49 % 90 % 1012,3 hPa 0,0 l/m² 7,7 km/h (2 Bft) SW 221 ° 1 min 58 W/m² 3,5 °C 3,9 °C 9,7 km/h (2 Bft)
14.01.2026 11:08 21,7 °C 4,9 °C 49 % 90 % 1012,3 hPa 0,0 l/m² 7,2 km/h (2 Bft) SW 218 ° 1 min 62 W/m² 3,4 °C 4,2 °C 8,0 km/h (2 Bft)
14.01.2026 11:09 21,8 °C 4,9 °C 49 % 90 % 1012,3 hPa 0,0 l/m² 6,8 km/h (2 Bft) SW 215 ° 1 min 63 W/m² 3,4 °C 4,6 °C 9,7 km/h (2 Bft)
14.01.2026 11:11 21,8 °C 4,9 °C 49 % 90 % 1012,3 hPa 0,0 l/m² 6,5 km/h (2 Bft) S-SW 211 ° 2 min 67 W/m² 3,4 °C 4,8 °C 8,0 km/h (2 Bft)
14.01.2026 11:13 21,7 °C 4,9 °C 49 % 90 % 1012,2 hPa 0,0 l/m² 8,6 km/h (2 Bft) S-SW 205 ° 2 min 74 W/m² 3,4 °C 3,0 °C 11,3 km/h (2 Bft)
14.01.2026 11:14 21,7 °C 4,9 °C 49 % 90 % 1012,3 hPa 0,0 l/m² 9,1 km/h (2 Bft) S-SW 197 ° 1 min 70 W/m² 3,4 °C 2,6 °C 11,3 km/h (2 Bft)
14.01.2026 11:15 21,8 °C 4,9 °C 49 % 90 % 1012,3 hPa 0,0 l/m² 10,4 km/h (2 Bft) S-SW 194 ° 1 min 65 W/m² 3,4 °C 1,7 °C 12,9 km/h (3 Bft)
14.01.2026 11:16 21,8 °C 4,9 °C 49 % 90 % 1012,3 hPa 0,0 l/m² 10,2 km/h (2 Bft) S-SW 196 ° 1 min 58 W/m² 3,4 °C 1,8 °C 12,9 km/h (3 Bft)
14.01.2026 11:17 21,7 °C 4,9 °C 49 % 90 % 1012,2 hPa 0,0 l/m² 11,8 km/h (2 Bft) S-SW 196 ° 1 min 53 W/m² 3,4 °C 0,8 °C 14,5 km/h (3 Bft)
14.01.2026 11:18 21,7 °C 4,9 °C 49 % 90 % 1012,1 hPa 0,0 l/m² 10,6 km/h (2 Bft) S-SW 194 ° 0 min 44 W/m² 3,4 °C 1,5 °C 12,9 km/h (3 Bft)
14.01.2026 11:19 21,7 °C 4,9 °C 49 % 90 % 1012,2 hPa 0,0 l/m² 11,2 km/h (2 Bft) S-SW 201 ° 0 min 40 W/m² 3,4 °C 1,1 °C 14,5 km/h (3 Bft)
14.01.2026 11:21 21,7 °C 5,0 °C 49 % 90 % 1012,3 hPa 0,0 l/m² 9,5 km/h (2 Bft) S-SW 205 ° 0 min 37 W/m² 3,5 °C 2,4 °C 12,9 km/h (3 Bft)
14.01.2026 11:23 21,8 °C 5,0 °C 49 % 90 % 1012,4 hPa 0,0 l/m² 8,5 km/h (2 Bft) S-SW 200 ° 0 min 39 W/m² 3,5 °C 3,2 °C 12,9 km/h (3 Bft)
14.01.2026 11:24 21,8 °C 5,0 °C 49 % 90 % 1012,4 hPa 0,0 l/m² 6,8 km/h (2 Bft) SW 215 ° 0 min 40 W/m² 3,5 °C 4,7 °C 8,0 km/h (2 Bft)
14.01.2026 11:25 21,7 °C 5,1 °C 49 % 90 % 1012,4 hPa 0,0 l/m² 5,8 km/h (2 Bft) SW 218 ° 0 min 40 W/m² 3,6 °C 5,1 °C 9,7 km/h (2 Bft)
14.01.2026 11:26 21,8 °C 5,0 °C 49 % 90 % 1012,3 hPa 0,0 l/m² 5,2 km/h (1 Bft) SW 221 ° 0 min 40 W/m² 3,5 °C 5,0 °C 6,4 km/h (2 Bft)
14.01.2026 11:27 21,7 °C 5,1 °C 49 % 90 % 1012,4 hPa 0,0 l/m² 5,9 km/h (2 Bft) SW 228 ° 0 min 40 W/m² 3,6 °C 5,1 °C 6,4 km/h (2 Bft)
14.01.2026 11:28 21,7 °C 5,1 °C 49 % 90 % 1012,3 hPa 0,0 l/m² 6,2 km/h (2 Bft) SW 225 ° 0 min 40 W/m² 3,6 °C 5,1 °C 9,7 km/h (2 Bft)
14.01.2026 11:29 21,8 °C 5,1 °C 49 % 90 % 1012,4 hPa 0,0 l/m² 7,2 km/h (2 Bft) SW 224 ° 0 min 42 W/m² 3,6 °C 4,4 °C 9,7 km/h (2 Bft)
14.01.2026 11:31 21,8 °C 5,1 °C 49 % 90 % 1012,5 hPa 0,0 l/m² 5,4 km/h (2 Bft) SW 224 ° 0 min 42 W/m² 3,6 °C 5,1 °C 8,0 km/h (2 Bft)
14.01.2026 11:33 21,8 °C 5,1 °C 49 % 90 % 1012,4 hPa 0,0 l/m² 5,2 km/h (1 Bft) SW 228 ° 0 min 39 W/m² 3,6 °C 5,1 °C 8,0 km/h (2 Bft)
14.01.2026 11:34 21,8 °C 5,2 °C 49 % 90 % 1012,4 hPa 0,0 l/m² 0,0 km/h (0 Bft) SW 228 ° 0 min 39 W/m² 3,7 °C 5,2 °C 0,0 km/h (0 Bft)
14.01.2026 11:35 21,8 °C 5,1 °C 49 % 90 % 1012,5 hPa 0,0 l/m² 5,4 km/h (2 Bft) SW 228 ° 0 min 40 W/m² 3,6 °C 5,1 °C 6,4 km/h (2 Bft)
14.01.2026 11:36 21,8 °C 5,2 °C 49 % 90 % 1012,5 hPa 0,0 l/m² 5,2 km/h (1 Bft) SW 228 ° 0 min 44 W/m² 3,7 °C 5,2 °C 8,0 km/h (2 Bft)
14.01.2026 11:37 21,8 °C 5,2 °C 49 % 90 % 1012,5 hPa 0,0 l/m² 6,2 km/h (2 Bft) SW 228 ° 0 min 47 W/m² 3,7 °C 5,2 °C 8,0 km/h (2 Bft)
14.01.2026 11:38 21,8 °C 5,1 °C 49 % 90 % 1012,5 hPa 0,0 l/m² 3,7 km/h (1 Bft) SW 228 ° 1 min 54 W/m² 3,6 °C 5,1 °C 6,4 km/h (2 Bft)
14.01.2026 11:39 21,7 °C 5,2 °C 49 % 90 % 1012,5 hPa 0,0 l/m² 4,7 km/h (1 Bft) SW 228 ° 1 min 60 W/m² 3,7 °C 5,2 °C 6,4 km/h (2 Bft)
14.01.2026 11:41 21,8 °C 5,2 °C 49 % 90 % 1012,5 hPa 0,0 l/m² 5,3 km/h (1 Bft) SW 218 ° 2 min 70 W/m² 3,7 °C 5,2 °C 8,0 km/h (2 Bft)
14.01.2026 11:43 21,8 °C 5,2 °C 49 % 90 % 1012,5 hPa 0,0 l/m² 5,2 km/h (1 Bft) SW 219 ° 2 min 79 W/m² 3,7 °C 5,2 °C 8,0 km/h (2 Bft)
14.01.2026 11:44 21,8 °C 5,2 °C 49 % 90 % 1012,5 hPa 0,0 l/m² 6,9 km/h (2 Bft) SW 214 ° 1 min 83 W/m² 3,7 °C 4,8 °C 9,7 km/h (2 Bft)
14.01.2026 11:45 21,8 °C 5,1 °C 49 % 90 % 1012,5 hPa 0,0 l/m² 5,0 km/h (1 Bft) S-SW 211 ° 1 min 84 W/m² 3,6 °C 5,1 °C 6,4 km/h (2 Bft)
14.01.2026 11:46 21,8 °C 5,1 °C 49 % 90 % 1012,5 hPa 0,0 l/m² 5,7 km/h (2 Bft) SW 214 ° 1 min 84 W/m² 3,6 °C 5,1 °C 8,0 km/h (2 Bft)
14.01.2026 11:47 21,8 °C 5,1 °C 49 % 90 % 1012,5 hPa 0,0 l/m² 5,8 km/h (2 Bft) SW 214 ° 1 min 79 W/m² 3,6 °C 5,1 °C 8,0 km/h (2 Bft)
14.01.2026 11:48 21,8 °C 5,1 °C 49 % 90 % 1012,5 hPa 0,0 l/m² 5,3 km/h (1 Bft) SW 215 ° 1 min 77 W/m² 3,6 °C 5,1 °C 6,4 km/h (2 Bft)
14.01.2026 11:49 21,8 °C 5,1 °C 49 % 90 % 1012,5 hPa 0,0 l/m² 6,3 km/h (2 Bft) SW 219 ° 1 min 74 W/m² 3,6 °C 5,1 °C 9,7 km/h (2 Bft)
14.01.2026 11:51 21,7 °C 5,1 °C 49 % 90 % 1012,5 hPa 0,0 l/m² 4,5 km/h (1 Bft) SW 219 ° 2 min 72 W/m² 3,6 °C 5,1 °C 8,0 km/h (2 Bft)
14.01.2026 11:53 21,7 °C 5,1 °C 49 % 90 % 1012,3 hPa 0,0 l/m² 3,8 km/h (1 Bft) SW 221 ° 2 min 70 W/m² 3,6 °C 5,1 °C 8,0 km/h (2 Bft)
14.01.2026 11:54 21,7 °C 5,1 °C 49 % 90 % 1012,3 hPa 0,0 l/m² 6,3 km/h (2 Bft) S-SW 211 ° 1 min 70 W/m² 3,6 °C 5,1 °C 11,3 km/h (2 Bft)
14.01.2026 11:55 21,8 °C 5,1 °C 49 % 90 % 1012,4 hPa 0,0 l/m² 6,2 km/h (2 Bft) S-SW 207 ° 1 min 69 W/m² 3,6 °C 5,1 °C 12,9 km/h (3 Bft)
14.01.2026 11:56 21,8 °C 5,1 °C 49 % 90 % 1012,3 hPa 0,0 l/m² 10,9 km/h (2 Bft) SW 234 ° 1 min 63 W/m² 3,6 °C 1,6 °C 17,7 km/h (3 Bft)
14.01.2026 11:57 21,8 °C 5,1 °C 49 % 90 % 1012,3 hPa 0,0 l/m² 10,9 km/h (2 Bft) SW 236 ° 1 min 60 W/m² 3,6 °C 1,6 °C 16,1 km/h (3 Bft)
14.01.2026 11:58 21,8 °C 5,2 °C 49 % 90 % 1012,4 hPa 0,0 l/m² 11,1 km/h (2 Bft) S-SW 213 ° 1 min 58 W/m² 3,7 °C 1,6 °C 20,9 km/h (4 Bft)
14.01.2026 11:59 21,8 °C 5,2 °C 49 % 90 % 1012,4 hPa 0,0 l/m² 11,1 km/h (2 Bft) SW 234 ° 1 min 62 W/m² 3,7 °C 1,6 °C 14,5 km/h (3 Bft)
14.01.2026 12:00 21,8 °C 5,2 °C 49 % 90 % 1012,3 hPa 0,0 l/m² 14,5 km/h (3 Bft) SW 225 ° 1 min 65 W/m² 3,7 °C -0,4 °C 16,1 km/h (3 Bft)
14.01.2026 12:06 21,7 °C 5,4 °C 49 % 90 % 1012,4 hPa 0,0 l/m² 12,9 km/h (3 Bft) SW 221 ° 6 min 104 W/m² 3,9 °C 0,7 °C 16,1 km/h (3 Bft)
14.01.2026 12:07 21,7 °C 5,4 °C 49 % 90 % 1012,4 hPa 0,0 l/m² 12,4 km/h (2 Bft) SW 229 ° 1 min 105 W/m² 3,9 °C 1,0 °C 16,1 km/h (3 Bft)
14.01.2026 12:08 21,7 °C 5,5 °C 49 % 91 % 1012,6 hPa 0,0 l/m² 16,2 km/h (3 Bft) W 261 ° 1 min 102 W/m² 4,2 °C -0,9 °C 20,9 km/h (4 Bft)
14.01.2026 12:09 21,7 °C 5,5 °C 49 % 91 % 1012,6 hPa 0,0 l/m² 15,4 km/h (3 Bft) S-SW 213 ° 1 min 97 W/m² 4,2 °C -0,5 °C 19,3 km/h (3 Bft)
14.01.2026 12:12 21,7 °C 5,6 °C 49 % 91 % 1012,7 hPa 0,0 l/m² 12,5 km/h (2 Bft) SW 217 ° 3 min 100 W/m² 4,2 °C 1,2 °C 19,3 km/h (3 Bft)
14.01.2026 12:13 21,8 °C 5,6 °C 49 % 91 % 1012,6 hPa 0,0 l/m² 12,9 km/h (3 Bft) SW 214 ° 1 min 100 W/m² 4,2 °C 0,9 °C 19,3 km/h (3 Bft)
14.01.2026 12:15 21,8 °C 5,6 °C 49 % 91 % 1012,7 hPa 0,0 l/m² 11,0 km/h (2 Bft) SW 214 ° 2 min 91 W/m² 4,2 °C 2,1 °C 17,7 km/h (3 Bft)
14.01.2026 12:17 21,8 °C 5,6 °C 50 % 91 % 1012,7 hPa 0,0 l/m² 12,0 km/h (2 Bft) SW 227 ° 2 min 91 W/m² 4,2 °C 1,4 °C 16,1 km/h (3 Bft)
14.01.2026 12:19 21,8 °C 5,7 °C 50 % 91 % 1012,6 hPa 0,0 l/m² 12,1 km/h (2 Bft) SW 214 ° 2 min 97 W/m² 4,3 °C 1,5 °C 17,7 km/h (3 Bft)
14.01.2026 12:21 21,8 °C 5,7 °C 50 % 90 % 1012,7 hPa 0,0 l/m² 11,3 km/h (2 Bft) SW 229 ° 2 min 105 W/m² 4,2 °C 2,0 °C 17,7 km/h (3 Bft)
14.01.2026 12:23 21,8 °C 5,7 °C 50 % 90 % 1012,7 hPa 0,0 l/m² 13,7 km/h (3 Bft) SW 229 ° 2 min 97 W/m² 4,2 °C 0,6 °C 17,7 km/h (3 Bft)
14.01.2026 12:25 21,8 °C 5,7 °C 50 % 90 % 1012,8 hPa 0,0 l/m² 15,4 km/h (3 Bft) SW 229 ° 2 min 84 W/m² 4,2 °C -0,3 °C 22,5 km/h (4 Bft)
14.01.2026 12:27 21,8 °C 5,7 °C 50 % 90 % 1012,8 hPa 0,0 l/m² 14,7 km/h (3 Bft) SW 222 ° 2 min 77 W/m² 4,2 °C 0,1 °C 19,3 km/h (3 Bft)
14.01.2026 12:29 21,8 °C 5,7 °C 50 % 90 % 1012,8 hPa 0,0 l/m² 13,3 km/h (3 Bft) SW 225 ° 2 min 83 W/m² 4,2 °C 0,8 °C 16,1 km/h (3 Bft)
14.01.2026 12:31 21,8 °C 5,7 °C 50 % 90 % 1012,9 hPa 0,0 l/m² 13,8 km/h (3 Bft) SW 231 ° 2 min 74 W/m² 4,2 °C 0,5 °C 19,3 km/h (3 Bft)
14.01.2026 12:33 21,8 °C 5,7 °C 50 % 90 % 1012,8 hPa 0,0 l/m² 13,7 km/h (3 Bft) SW 227 ° 2 min 72 W/m² 4,2 °C 0,6 °C 19,3 km/h (3 Bft)
14.01.2026 12:35 21,8 °C 5,7 °C 50 % 90 % 1012,8 hPa 0,0 l/m² 13,0 km/h (3 Bft) S-SW 206 ° 2 min 76 W/m² 4,2 °C 1,0 °C 20,9 km/h (4 Bft)
14.01.2026 12:37 21,8 °C 5,7 °C 50 % 90 % 1012,9 hPa 0,0 l/m² 12,8 km/h (3 Bft) SW 227 ° 2 min 72 W/m² 4,2 °C 1,1 °C 19,3 km/h (3 Bft)
14.01.2026 12:39 21,8 °C 5,7 °C 50 % 90 % 1012,8 hPa 0,0 l/m² 14,5 km/h (3 Bft) SW 225 ° 2 min 81 W/m² 4,2 °C 0,2 °C 19,3 km/h (3 Bft)
14.01.2026 12:41 21,8 °C 5,7 °C 50 % 90 % 1012,8 hPa 0,0 l/m² 13,3 km/h (3 Bft) SW 217 ° 2 min 86 W/m² 4,2 °C 0,8 °C 20,9 km/h (4 Bft)
14.01.2026 12:43 21,8 °C 5,7 °C 50 % 90 % 1012,9 hPa 0,0 l/m² 14,4 km/h (3 Bft) SW 219 ° 2 min 86 W/m² 4,2 °C 0,2 °C 20,9 km/h (4 Bft)
14.01.2026 12:46 21,8 °C 5,8 °C 50 % 90 % 1012,8 hPa 0,0 l/m² 16,4 km/h (3 Bft) SW 219 ° 3 min 91 W/m² 4,3 °C -0,6 °C 22,5 km/h (4 Bft)
14.01.2026 12:48 21,8 °C 5,7 °C 50 % 90 % 1012,8 hPa 0,0 l/m² 15,6 km/h (3 Bft) SW 220 ° 2 min 83 W/m² 4,2 °C -0,4 °C 20,9 km/h (4 Bft)
14.01.2026 12:50 21,8 °C 5,8 °C 50 % 90 % 1012,8 hPa 0,0 l/m² 14,7 km/h (3 Bft) SW 223 ° 2 min 81 W/m² 4,3 °C 0,2 °C 20,9 km/h (4 Bft)
14.01.2026 12:52 21,7 °C 5,8 °C 50 % 90 % 1012,8 hPa 0,0 l/m² 18,5 km/h (3 Bft) SW 220 ° 2 min 74 W/m² 4,3 °C -1,5 °C 24,1 km/h (4 Bft)
14.01.2026 12:54 21,8 °C 5,8 °C 50 % 90 % 1012,8 hPa 0,0 l/m² 16,5 km/h (3 Bft) SW 217 ° 2 min 72 W/m² 4,3 °C -0,7 °C 19,3 km/h (3 Bft)
14.01.2026 12:56 21,8 °C 5,8 °C 49 % 90 % 1012,8 hPa 0,0 l/m² 16,2 km/h (3 Bft) SW 216 ° 2 min 76 W/m² 4,3 °C -0,5 °C 20,9 km/h (4 Bft)
14.01.2026 12:58 21,7 °C 5,8 °C 50 % 90 % 1012,8 hPa 0,0 l/m² 15,8 km/h (3 Bft) SW 225 ° 2 min 70 W/m² 4,3 °C -0,3 °C 22,5 km/h (4 Bft)
14.01.2026 13:00 21,7 °C 5,8 °C 50 % 90 % 1012,8 hPa 0,0 l/m² 16,4 km/h (3 Bft) SW 222 ° 2 min 60 W/m² 4,3 °C -0,6 °C 20,9 km/h (4 Bft)
14.01.2026 13:02 21,8 °C 5,8 °C 49 % 90 % 1012,8 hPa 0,0 l/m² 14,5 km/h (3 Bft) SW 222 ° 2 min 56 W/m² 4,3 °C 0,3 °C 20,9 km/h (4 Bft)
14.01.2026 13:04 21,7 °C 5,8 °C 49 % 90 % 1012,8 hPa 0,0 l/m² 10,5 km/h (2 Bft) SW 221 ° 2 min 67 W/m² 4,3 °C 2,6 °C 16,1 km/h (3 Bft)
14.01.2026 13:06 21,7 °C 5,8 °C 49 % 90 % 1012,8 hPa 0,0 l/m² 9,0 km/h (2 Bft) SW 234 ° 2 min 67 W/m² 4,3 °C 3,7 °C 14,5 km/h (3 Bft)
14.01.2026 13:08 21,7 °C 5,8 °C 49 % 90 % 1012,8 hPa 0,0 l/m² 8,3 km/h (2 Bft) SW 227 ° 2 min 67 W/m² 4,3 °C 4,2 °C 16,1 km/h (3 Bft)
14.01.2026 13:10 21,7 °C 5,8 °C 49 % 90 % 1012,9 hPa 0,0 l/m² 10,6 km/h (2 Bft) SW 226 ° 2 min 62 W/m² 4,3 °C 2,6 °C 14,5 km/h (3 Bft)
14.01.2026 13:12 21,7 °C 5,8 °C 49 % 90 % 1012,8 hPa 0,0 l/m² 13,0 km/h (3 Bft) SW 223 ° 2 min 54 W/m² 4,3 °C 1,1 °C 20,9 km/h (4 Bft)
14.01.2026 13:13 21,7 °C 5,9 °C 49 % 90 % 1012,8 hPa 0,0 l/m² 13,8 km/h (3 Bft) SW 225 ° 1 min 56 W/m² 4,4 °C 0,8 °C 17,7 km/h (3 Bft)
14.01.2026 13:14 21,7 °C 5,8 °C 49 % 90 % 1012,8 hPa 0,0 l/m² 13,7 km/h (3 Bft) S-SW 209 ° 1 min 56 W/m² 4,3 °C 0,7 °C 16,1 km/h (3 Bft)
14.01.2026 13:16 21,7 °C 5,9 °C 49 % 90 % 1012,9 hPa 0,0 l/m² 13,5 km/h (3 Bft) SW 217 ° 2 min 53 W/m² 4,4 °C 0,9 °C 20,9 km/h (4 Bft)
14.01.2026 13:18 21,7 °C 5,9 °C 49 % 90 % 1012,9 hPa 0,0 l/m² 13,4 km/h (3 Bft) SW 229 ° 0 min 49 W/m² 4,4 °C 1,0 °C 16,1 km/h (3 Bft)
14.01.2026 13:20 21,7 °C 5,9 °C 49 % 90 % 1012,9 hPa 0,0 l/m² 11,6 km/h (2 Bft) SW 233 ° 2 min 53 W/m² 4,4 °C 2,0 °C 17,7 km/h (3 Bft)
14.01.2026 13:22 21,7 °C 6,0 °C 49 % 90 % 1013,0 hPa 0,0 l/m² 10,4 km/h (2 Bft) SW 219 ° 0 min 44 W/m² 4,5 °C 2,9 °C 17,7 km/h (3 Bft)
14.01.2026 13:24 21,7 °C 6,0 °C 50 % 90 % 1013,0 hPa 0,0 l/m² 9,4 km/h (2 Bft) W-SW 241 ° 0 min 39 W/m² 4,5 °C 3,6 °C 14,5 km/h (3 Bft)
14.01.2026 13:26 21,7 °C 6,1 °C 49 % 90 % 1013,0 hPa 0,0 l/m² 8,8 km/h (2 Bft) W-SW 243 ° 0 min 40 W/m² 4,6 °C 4,1 °C 17,7 km/h (3 Bft)
14.01.2026 13:28 21,7 °C 6,1 °C 49 % 90 % 1013,0 hPa 0,0 l/m² 7,8 km/h (2 Bft) W-SW 257 ° 0 min 40 W/m² 4,6 °C 4,9 °C 16,1 km/h (3 Bft)
14.01.2026 13:30 21,7 °C 6,1 °C 49 % 90 % 1013,0 hPa 0,0 l/m² 6,9 km/h (2 Bft) W-SW 250 ° 0 min 42 W/m² 4,6 °C 5,7 °C 11,3 km/h (2 Bft)
14.01.2026 13:32 21,7 °C 6,1 °C 49 % 90 % 1013,1 hPa 0,0 l/m² 6,8 km/h (2 Bft) W-SW 243 ° 2 min 54 W/m² 4,6 °C 5,8 °C 11,3 km/h (2 Bft)
14.01.2026 13:34 21,7 °C 6,1 °C 49 % 90 % 1013,0 hPa 0,0 l/m² 4,1 km/h (1 Bft) SW 219 ° 2 min 65 W/m² 4,6 °C 6,1 °C 6,4 km/h (2 Bft)
14.01.2026 13:36 21,7 °C 6,1 °C 49 % 90 % 1012,9 hPa 0,0 l/m² 1,8 km/h (1 Bft) W-SW 246 ° 2 min 53 W/m² 4,6 °C 6,1 °C 6,4 km/h (2 Bft)
14.01.2026 13:38 21,7 °C 6,1 °C 49 % 90 % 1013,1 hPa 0,0 l/m² 5,0 km/h (1 Bft) SW 231 ° 2 min 53 W/m² 4,6 °C 6,1 °C 8,0 km/h (2 Bft)
14.01.2026 13:40 21,7 °C 6,1 °C 49 % 90 % 1013,0 hPa 0,0 l/m² 2,4 km/h (1 Bft) W-SW 239 ° 2 min 63 W/m² 4,6 °C 6,1 °C 6,4 km/h (2 Bft)
14.01.2026 13:42 21,7 °C 6,1 °C 49 % 90 % 1013,0 hPa 0,0 l/m² 1,2 km/h (1 Bft) S-SW 211 ° 0 min 51 W/m² 4,6 °C 6,1 °C 12,9 km/h (3 Bft)
14.01.2026 13:44 21,7 °C 6,1 °C 49 % 90 % 1013,1 hPa 0,0 l/m² 1,3 km/h (1 Bft) SW 225 ° 2 min 53 W/m² 4,6 °C 6,1 °C 8,0 km/h (2 Bft)
14.01.2026 13:46 21,7 °C 6,2 °C 49 % 90 % 1013,1 hPa 0,0 l/m² 3,6 km/h (1 Bft) SW 225 ° 0 min 49 W/m² 4,7 °C 6,2 °C 9,7 km/h (2 Bft)
14.01.2026 13:48 21,7 °C 6,2 °C 49 % 90 % 1013,2 hPa 0,0 l/m² 6,4 km/h (2 Bft) SW 230 ° 2 min 54 W/m² 4,7 °C 6,2 °C 9,7 km/h (2 Bft)
14.01.2026 13:50 21,7 °C 6,2 °C 49 % 90 % 1013,1 hPa 0,0 l/m² 7,4 km/h (2 Bft) W-SW 240 ° 2 min 74 W/m² 4,7 °C 5,4 °C 11,3 km/h (2 Bft)
14.01.2026 13:52 21,7 °C 6,2 °C 49 % 90 % 1013,1 hPa 0,0 l/m² 8,0 km/h (2 Bft) SW 232 ° 2 min 90 W/m² 4,7 °C 4,9 °C 12,9 km/h (3 Bft)
14.01.2026 13:54 21,7 °C 6,2 °C 49 % 90 % 1013,1 hPa 0,0 l/m² 7,3 km/h (2 Bft) SW 222 ° 2 min 91 W/m² 4,7 °C 5,4 °C 12,9 km/h (3 Bft)
14.01.2026 13:56 21,7 °C 6,2 °C 49 % 90 % 1013,1 hPa 0,0 l/m² 7,7 km/h (2 Bft) W-SW 237 ° 2 min 88 W/m² 4,7 °C 5,1 °C 11,3 km/h (2 Bft)
14.01.2026 13:58 21,7 °C 6,2 °C 49 % 90 % 1013,1 hPa 0,0 l/m² 8,2 km/h (2 Bft) SW 236 ° 2 min 74 W/m² 4,7 °C 4,7 °C 11,3 km/h (2 Bft)
14.01.2026 14:00 21,7 °C 6,2 °C 49 % 90 % 1013,2 hPa 0,0 l/m² 3,9 km/h (1 Bft) SW 217 ° 2 min 62 W/m² 4,7 °C 6,2 °C 9,7 km/h (2 Bft)
14.01.2026 14:02 21,7 °C 6,2 °C 49 % 90 % 1013,1 hPa 0,0 l/m² 9,0 km/h (2 Bft) SW 217 ° 0 min 47 W/m² 4,7 °C 4,1 °C 12,9 km/h (3 Bft)
14.01.2026 14:04 21,7 °C 6,2 °C 49 % 90 % 1013,2 hPa 0,0 l/m² 13,1 km/h (3 Bft) W-SW 240 ° 0 min 44 W/m² 4,7 °C 1,5 °C 17,7 km/h (3 Bft)
14.01.2026 14:06 21,7 °C 6,2 °C 49 % 90 % 1013,3 hPa 0,0 l/m² 11,8 km/h (2 Bft) SW 225 ° 0 min 44 W/m² 4,7 °C 2,3 °C 16,1 km/h (3 Bft)
14.01.2026 14:08 21,7 °C 6,2 °C 49 % 90 % 1013,2 hPa 0,0 l/m² 13,1 km/h (3 Bft) SW 228 ° 0 min 46 W/m² 4,7 °C 1,5 °C 17,7 km/h (3 Bft)
14.01.2026 14:09 21,7 °C 6,2 °C 49 % 90 % 1013,2 hPa 0,0 l/m² 13,3 km/h (3 Bft) SW 221 ° 0 min 44 W/m² 4,7 °C 1,4 °C 16,1 km/h (3 Bft)
14.01.2026 14:10 21,7 °C 6,2 °C 49 % 90 % 1013,2 hPa 0,0 l/m² 12,9 km/h (3 Bft) SW 225 ° 0 min 42 W/m² 4,7 °C 1,6 °C 16,1 km/h (3 Bft)
14.01.2026 14:11 21,7 °C 6,2 °C 49 % 90 % 1013,2 hPa 0,0 l/m² 12,9 km/h (3 Bft) SW 225 ° 0 min 40 W/m² 4,7 °C 1,6 °C 19,3 km/h (3 Bft)
14.01.2026 14:12 21,7 °C 6,2 °C 49 % 90 % 1013,3 hPa 0,0 l/m² 12,9 km/h (3 Bft) SW 225 ° 0 min 39 W/m² 4,7 °C 1,6 °C 16,1 km/h (3 Bft)
14.01.2026 14:13 21,7 °C 6,2 °C 49 % 90 % 1013,2 hPa 0,0 l/m² 11,3 km/h (2 Bft) SW 225 ° 0 min 39 W/m² 4,7 °C 2,6 °C 14,5 km/h (3 Bft)
14.01.2026 14:14 21,7 °C 6,2 °C 49 % 90 % 1013,2 hPa 0,0 l/m² 12,9 km/h (3 Bft) SW 225 ° 0 min 40 W/m² 4,7 °C 1,6 °C 14,5 km/h (3 Bft)
14.01.2026 14:15 21,7 °C 6,2 °C 49 % 90 % 1013,3 hPa 0,0 l/m² 9,7 km/h (2 Bft) SW 225 ° 0 min 40 W/m² 4,7 °C 3,6 °C 14,5 km/h (3 Bft)
14.01.2026 14:16 21,7 °C 6,2 °C 49 % 90 % 1013,2 hPa 0,0 l/m² 8,0 km/h (2 Bft) SW 225 ° 0 min 42 W/m² 4,7 °C 4,9 °C 14,5 km/h (3 Bft)
14.01.2026 14:17 21,7 °C 6,2 °C 49 % 90 % 1013,2 hPa 0,0 l/m² 8,0 km/h (2 Bft) SW 225 ° 0 min 46 W/m² 4,7 °C 4,9 °C 11,3 km/h (2 Bft)
14.01.2026 14:18 21,7 °C 6,2 °C 49 % 90 % 1013,3 hPa 0,0 l/m² 9,7 km/h (2 Bft) SW 225 ° 0 min 46 W/m² 4,7 °C 3,6 °C 12,9 km/h (3 Bft)
14.01.2026 14:19 21,7 °C 6,2 °C 49 % 90 % 1013,3 hPa 0,0 l/m² 6,4 km/h (2 Bft) SW 225 ° 0 min 49 W/m² 4,7 °C 6,2 °C 11,3 km/h (2 Bft)
14.01.2026 14:20 21,7 °C 6,2 °C 49 % 90 % 1013,2 hPa 0,0 l/m² 8,0 km/h (2 Bft) SW 225 ° 1 min 53 W/m² 4,7 °C 4,9 °C 12,9 km/h (3 Bft)
14.01.2026 14:21 21,7 °C 6,2 °C 49 % 90 % 1013,3 hPa 0,0 l/m² 9,7 km/h (2 Bft) SW 225 ° 1 min 54 W/m² 4,7 °C 3,6 °C 12,9 km/h (3 Bft)
14.01.2026 14:22 21,7 °C 6,2 °C 49 % 90 % 1013,3 hPa 0,0 l/m² 8,0 km/h (2 Bft) SW 225 ° 1 min 54 W/m² 4,7 °C 4,9 °C 12,9 km/h (3 Bft)
14.01.2026 14:23 21,7 °C 6,2 °C 49 % 90 % 1013,4 hPa 0,0 l/m² 8,0 km/h (2 Bft) SW 225 ° 0 min 51 W/m² 4,7 °C 4,9 °C 14,5 km/h (3 Bft)
14.01.2026 14:24 21,7 °C 6,2 °C 49 % 90 % 1013,4 hPa 0,0 l/m² 8,0 km/h (2 Bft) SW 225 ° 0 min 49 W/m² 4,7 °C 4,9 °C 11,3 km/h (2 Bft)
14.01.2026 14:25 21,8 °C 6,2 °C 49 % 90 % 1013,4 hPa 0,0 l/m² 8,0 km/h (2 Bft) SW 225 ° 0 min 47 W/m² 4,7 °C 4,9 °C 9,7 km/h (2 Bft)
14.01.2026 14:26 21,7 °C 6,2 °C 49 % 90 % 1013,4 hPa 0,0 l/m² 9,7 km/h (2 Bft) SW 225 ° 0 min 47 W/m² 4,7 °C 3,6 °C 16,1 km/h (3 Bft)
14.01.2026 14:27 21,7 °C 6,2 °C 49 % 90 % 1013,4 hPa 0,0 l/m² 4,8 km/h (1 Bft) SW 225 ° 0 min 51 W/m² 4,7 °C 6,2 °C 8,0 km/h (2 Bft)
14.01.2026 14:28 21,7 °C 6,2 °C 49 % 90 % 1013,4 hPa 0,0 l/m² 6,4 km/h (2 Bft) SW 225 ° 1 min 54 W/m² 4,7 °C 6,2 °C 8,0 km/h (2 Bft)
14.01.2026 14:29 21,7 °C 6,2 °C 49 % 90 % 1013,5 hPa 0,0 l/m² 6,4 km/h (2 Bft) SW 225 ° 1 min 54 W/m² 4,7 °C 6,2 °C 9,7 km/h (2 Bft)
14.01.2026 14:30 21,7 °C 6,2 °C 49 % 90 % 1013,5 hPa 0,0 l/m² 6,4 km/h (2 Bft) SW 225 ° 1 min 54 W/m² 4,7 °C 6,2 °C 8,0 km/h (2 Bft)
14.01.2026 14:31 21,7 °C 6,3 °C 49 % 90 % 1013,5 hPa 0,0 l/m² 3,2 km/h (1 Bft) SW 225 ° 1 min 58 W/m² 4,8 °C 6,3 °C 8,0 km/h (2 Bft)
14.01.2026 14:32 21,7 °C 6,3 °C 49 % 90 % 1013,5 hPa 0,0 l/m² 6,4 km/h (2 Bft) SW 225 ° 1 min 58 W/m² 4,8 °C 6,3 °C 12,9 km/h (3 Bft)
14.01.2026 14:33 21,7 °C 6,3 °C 49 % 90 % 1013,5 hPa 0,0 l/m² 3,2 km/h (1 Bft) W-SW 247 ° 1 min 58 W/m² 4,8 °C 6,3 °C 6,4 km/h (2 Bft)
14.01.2026 14:34 21,7 °C 6,3 °C 49 % 90 % 1013,5 hPa 0,0 l/m² 3,2 km/h (1 Bft) W-SW 247 ° 1 min 58 W/m² 4,8 °C 6,3 °C 8,0 km/h (2 Bft)
14.01.2026 14:35 21,7 °C 6,3 °C 49 % 90 % 1013,5 hPa 0,0 l/m² 3,2 km/h (1 Bft) SW 225 ° 1 min 58 W/m² 4,8 °C 6,3 °C 8,0 km/h (2 Bft)
14.01.2026 14:36 21,7 °C 6,3 °C 49 % 90 % 1013,6 hPa 0,0 l/m² 3,2 km/h (1 Bft) W-SW 247 ° 1 min 60 W/m² 4,8 °C 6,3 °C 6,4 km/h (2 Bft)
14.01.2026 14:37 21,7 °C 6,3 °C 49 % 90 % 1013,6 hPa 0,0 l/m² 0,0 km/h (0 Bft) W-SW 247 ° 1 min 67 W/m² 4,8 °C 6,3 °C 3,2 km/h (1 Bft)
14.01.2026 14:38 21,7 °C 6,3 °C 49 % 90 % 1013,6 hPa 0,0 l/m² 0,0 km/h (0 Bft) N 0 ° 1 min 65 W/m² 4,8 °C 6,3 °C 0,0 km/h (0 Bft)
14.01.2026 14:39 21,7 °C 6,3 °C 49 % 90 % 1013,6 hPa 0,0 l/m² 0,0 km/h (0 Bft) N 0 ° 1 min 74 W/m² 4,8 °C 6,3 °C 0,0 km/h (0 Bft)
14.01.2026 14:40 21,7 °C 6,3 °C 49 % 90 % 1013,6 hPa 0,0 l/m² 0,0 km/h (0 Bft) W-SW 247 ° 1 min 77 W/m² 4,8 °C 6,3 °C 1,6 km/h (1 Bft)
14.01.2026 14:41 21,7 °C 6,4 °C 49 % 90 % 1013,6 hPa 0,0 l/m² 0,0 km/h (0 Bft) N 0 ° 1 min 67 W/m² 4,9 °C 6,4 °C 0,0 km/h (0 Bft)
14.01.2026 14:42 21,7 °C 6,3 °C 49 % 90 % 1013,7 hPa 0,0 l/m² 0,0 km/h (0 Bft) W-SW 247 ° 1 min 54 W/m² 4,8 °C 6,3 °C 6,4 km/h (2 Bft)
14.01.2026 14:43 21,7 °C 6,4 °C 49 % 90 % 1013,6 hPa 0,0 l/m² 3,2 km/h (1 Bft) W-SW 247 ° 0 min 51 W/m² 4,9 °C 6,4 °C 8,0 km/h (2 Bft)
14.01.2026 14:44 21,7 °C 6,3 °C 49 % 90 % 1013,7 hPa 0,0 l/m² 0,0 km/h (0 Bft) W-SW 247 ° 0 min 33 W/m² 4,8 °C 6,3 °C 1,6 km/h (1 Bft)
14.01.2026 14:45 21,7 °C 6,4 °C 49 % 90 % 1013,7 hPa 0,0 l/m² 6,4 km/h (2 Bft) W-SW 247 ° 0 min 30 W/m² 4,9 °C 6,4 °C 8,0 km/h (2 Bft)
14.01.2026 14:46 21,8 °C 6,4 °C 49 % 90 % 1013,7 hPa 0,0 l/m² 6,4 km/h (2 Bft) W-SW 247 ° 0 min 26 W/m² 4,9 °C 6,4 °C 8,0 km/h (2 Bft)
14.01.2026 14:47 21,7 °C 6,4 °C 49 % 90 % 1013,6 hPa 0,0 l/m² 1,6 km/h (1 Bft) W-SW 247 ° 0 min 23 W/m² 4,9 °C 6,4 °C 4,8 km/h (1 Bft)
14.01.2026 14:48 21,7 °C 6,4 °C 49 % 90 % 1013,7 hPa 0,0 l/m² 4,8 km/h (1 Bft) W-SW 247 ° 0 min 19 W/m² 4,9 °C 6,4 °C 8,0 km/h (2 Bft)
14.01.2026 14:49 21,7 °C 6,4 °C 49 % 90 % 1013,7 hPa 0,0 l/m² 4,8 km/h (1 Bft) W-SW 247 ° 0 min 14 W/m² 4,9 °C 6,4 °C 6,4 km/h (2 Bft)
14.01.2026 14:50 21,7 °C 6,4 °C 49 % 90 % 1013,8 hPa 0,0 l/m² 4,8 km/h (1 Bft) W-SW 247 ° 0 min 12 W/m² 4,9 °C 6,4 °C 8,0 km/h (2 Bft)
14.01.2026 14:51 21,7 °C 6,4 °C 49 % 90 % 1013,7 hPa 0,0 l/m² 6,4 km/h (2 Bft) W-SW 247 ° 0 min 12 W/m² 4,9 °C 6,4 °C 8,0 km/h (2 Bft)
14.01.2026 14:52 21,7 °C 6,4 °C 49 % 90 % 1013,8 hPa 0,0 l/m² 3,2 km/h (1 Bft) SW 225 ° 0 min 12 W/m² 4,9 °C 6,4 °C 6,4 km/h (2 Bft)
14.01.2026 14:53 21,7 °C 6,4 °C 49 % 90 % 1013,8 hPa 0,0 l/m² 1,6 km/h (1 Bft) SW 225 ° 0 min 14 W/m² 4,9 °C 6,4 °C 8,0 km/h (2 Bft)
14.01.2026 14:54 21,7 °C 6,4 °C 49 % 90 % 1013,9 hPa 0,0 l/m² 6,4 km/h (2 Bft) SW 225 ° 0 min 14 W/m² 4,9 °C 6,4 °C 9,7 km/h (2 Bft)
14.01.2026 14:55 21,7 °C 6,3 °C 49 % 90 % 1013,9 hPa 0,0 l/m² 6,4 km/h (2 Bft) SW 225 ° 0 min 16 W/m² 4,8 °C 6,3 °C 9,7 km/h (2 Bft)
14.01.2026 14:56 21,8 °C 6,3 °C 49 % 90 % 1013,8 hPa 0,0 l/m² 6,4 km/h (2 Bft) SW 225 ° 0 min 16 W/m² 4,8 °C 6,3 °C 8,0 km/h (2 Bft)
14.01.2026 14:57 21,7 °C 6,3 °C 49 % 90 % 1013,9 hPa 0,0 l/m² 6,4 km/h (2 Bft) SW 225 ° 0 min 18 W/m² 4,8 °C 6,3 °C 9,7 km/h (2 Bft)
14.01.2026 14:58 21,7 °C 6,3 °C 49 % 90 % 1013,9 hPa 0,0 l/m² 6,4 km/h (2 Bft) SW 225 ° 0 min 19 W/m² 4,8 °C 6,3 °C 8,0 km/h (2 Bft)
14.01.2026 14:59 21,7 °C 6,3 °C 49 % 90 % 1013,9 hPa 0,0 l/m² 4,8 km/h (1 Bft) SW 225 ° 0 min 19 W/m² 4,8 °C 6,3 °C 8,0 km/h (2 Bft)
14.01.2026 15:00 21,7 °C 6,3 °C 49 % 90 % 1014,0 hPa 0,0 l/m² 3,2 km/h (1 Bft) SW 225 ° 0 min 23 W/m² 4,8 °C 6,3 °C 6,4 km/h (2 Bft)
14.01.2026 15:01 21,8 °C 6,3 °C 49 % 90 % 1014,0 hPa 0,0 l/m² 1,6 km/h (1 Bft) SW 225 ° 0 min 26 W/m² 4,8 °C 6,3 °C 6,4 km/h (2 Bft)
14.01.2026 15:02 21,7 °C 6,3 °C 49 % 90 % 1014,0 hPa 0,0 l/m² 0,0 km/h (0 Bft) N 0 ° 0 min 33 W/m² 4,8 °C 6,3 °C 0,0 km/h (0 Bft)
14.01.2026 15:03 21,7 °C 6,3 °C 49 % 90 % 1014,0 hPa 0,0 l/m² 0,0 km/h (0 Bft) N 0 ° 0 min 39 W/m² 4,8 °C 6,3 °C 0,0 km/h (0 Bft)
14.01.2026 15:04 21,7 °C 6,3 °C 49 % 90 % 1014,0 hPa 0,0 l/m² 0,0 km/h (0 Bft) SW 225 ° 0 min 42 W/m² 4,8 °C 6,3 °C 1,6 km/h (1 Bft)
14.01.2026 15:05 21,7 °C 6,3 °C 49 % 90 % 1014,0 hPa 0,0 l/m² 0,0 km/h (0 Bft) SW 225 ° 0 min 42 W/m² 4,8 °C 6,3 °C 1,6 km/h (1 Bft)
14.01.2026 15:06 21,7 °C 6,3 °C 49 % 90 % 1014,0 hPa 0,0 l/m² 0,0 km/h (0 Bft) N 0 ° 0 min 44 W/m² 4,8 °C 6,3 °C 0,0 km/h (0 Bft)
14.01.2026 15:07 21,7 °C 6,3 °C 49 % 90 % 1014,1 hPa 0,0 l/m² 0,0 km/h (0 Bft) N 0 ° 0 min 39 W/m² 4,8 °C 6,3 °C 0,0 km/h (0 Bft)
14.01.2026 15:08 21,7 °C 6,3 °C 49 % 90 % 1014,1 hPa 0,0 l/m² 0,0 km/h (0 Bft) N 0 ° 0 min 32 W/m² 4,8 °C 6,3 °C 0,0 km/h (0 Bft)
14.01.2026 15:09 21,7 °C 6,2 °C 49 % 90 % 1014,1 hPa 0,0 l/m² 0,0 km/h (0 Bft) N 0 ° 0 min 26 W/m² 4,7 °C 6,2 °C 0,0 km/h (0 Bft)
14.01.2026 15:10 21,7 °C 6,3 °C 49 % 90 % 1014,2 hPa 0,0 l/m² 0,0 km/h (0 Bft) N 0 ° 0 min 21 W/m² 4,8 °C 6,3 °C 0,0 km/h (0 Bft)
14.01.2026 15:11 21,7 °C 6,3 °C 49 % 90 % 1014,1 hPa 0,0 l/m² 0,0 km/h (0 Bft) N 0 ° 0 min 18 W/m² 4,8 °C 6,3 °C 0,0 km/h (0 Bft)
14.01.2026 15:12 21,7 °C 6,2 °C 49 % 90 % 1014,2 hPa 0,0 l/m² 0,0 km/h (0 Bft) N 0 ° 0 min 16 W/m² 4,7 °C 6,2 °C 0,0 km/h (0 Bft)
14.01.2026 15:13 21,7 °C 6,3 °C 49 % 90 % 1014,3 hPa 0,0 l/m² 0,0 km/h (0 Bft) N 0 ° 0 min 18 W/m² 4,8 °C 6,3 °C 0,0 km/h (0 Bft)
14.01.2026 15:14 21,8 °C 6,3 °C 49 % 90 % 1014,2 hPa 0,0 l/m² 0,0 km/h (0 Bft) N 0 ° 0 min 19 W/m² 4,8 °C 6,3 °C 0,0 km/h (0 Bft)
14.01.2026 15:15 21,7 °C 6,2 °C 49 % 90 % 1014,3 hPa 0,0 l/m² 0,0 km/h (0 Bft) N 0 ° 0 min 19 W/m² 4,7 °C 6,2 °C 0,0 km/h (0 Bft)
14.01.2026 15:16 21,7 °C 6,2 °C 49 % 90 % 1014,2 hPa 0,0 l/m² 0,0 km/h (0 Bft) N 0 ° 0 min 21 W/m² 4,7 °C 6,2 °C 0,0 km/h (0 Bft)
14.01.2026 15:17 21,7 °C 6,2 °C 49 % 90 % 1014,2 hPa 0,0 l/m² 0,0 km/h (0 Bft) N 0 ° 0 min 23 W/m² 4,7 °C 6,2 °C 0,0 km/h (0 Bft)
14.01.2026 15:18 21,7 °C 6,2 °C 49 % 90 % 1014,3 hPa 0,0 l/m² 0,0 km/h (0 Bft) N 0 ° 0 min 25 W/m² 4,7 °C 6,2 °C 0,0 km/h (0 Bft)
14.01.2026 15:19 21,7 °C 6,2 °C 49 % 90 % 1014,3 hPa 0,0 l/m² 0,0 km/h (0 Bft) N 0 ° 0 min 25 W/m² 4,7 °C 6,2 °C 0,0 km/h (0 Bft)
14.01.2026 15:20 21,7 °C 6,2 °C 49 % 90 % 1014,2 hPa 0,0 l/m² 0,0 km/h (0 Bft) N 0 ° 0 min 25 W/m² 4,7 °C 6,2 °C 0,0 km/h (0 Bft)
14.01.2026 15:21 21,7 °C 6,2 °C 49 % 90 % 1014,3 hPa 0,0 l/m² 0,0 km/h (0 Bft) N 0 ° 0 min 25 W/m² 4,7 °C 6,2 °C 0,0 km/h (0 Bft)
14.01.2026 15:22 21,7 °C 6,2 °C 49 % 90 % 1014,3 hPa 0,0 l/m² 0,0 km/h (0 Bft) N 0 ° 0 min 23 W/m² 4,7 °C 6,2 °C 0,0 km/h (0 Bft)
14.01.2026 15:23 21,7 °C 6,2 °C 49 % 90 % 1014,3 hPa 0,0 l/m² 0,0 km/h (0 Bft) N 0 ° 0 min 21 W/m² 4,7 °C 6,2 °C 0,0 km/h (0 Bft)
14.01.2026 15:24 21,7 °C 6,2 °C 49 % 90 % 1014,3 hPa 0,0 l/m² 0,0 km/h (0 Bft) N 0 ° 0 min 19 W/m² 4,7 °C 6,2 °C 0,0 km/h (0 Bft)
14.01.2026 15:25 21,7 °C 6,2 °C 49 % 90 % 1014,4 hPa 0,0 l/m² 0,0 km/h (0 Bft) N 0 ° 0 min 19 W/m² 4,7 °C 6,2 °C 0,0 km/h (0 Bft)
14.01.2026 15:26 21,7 °C 6,2 °C 49 % 90 % 1014,4 hPa 0,0 l/m² 0,0 km/h (0 Bft) N 0 ° 0 min 19 W/m² 4,7 °C 6,2 °C 0,0 km/h (0 Bft)
14.01.2026 15:27 21,7 °C 6,2 °C 49 % 90 % 1014,4 hPa 0,0 l/m² 0,0 km/h (0 Bft) N 0 ° 0 min 18 W/m² 4,7 °C 6,2 °C 0,0 km/h (0 Bft)
14.01.2026 15:28 21,7 °C 6,2 °C 49 % 90 % 1014,4 hPa 0,0 l/m² 0,0 km/h (0 Bft) N 0 ° 0 min 18 W/m² 4,7 °C 6,2 °C 0,0 km/h (0 Bft)
14.01.2026 15:29 21,7 °C 6,2 °C 49 % 90 % 1014,4 hPa 0,0 l/m² 0,0 km/h (0 Bft) N 0 ° 0 min 18 W/m² 4,7 °C 6,2 °C 0,0 km/h (0 Bft)
14.01.2026 15:30 21,7 °C 6,2 °C 49 % 90 % 1014,4 hPa 0,0 l/m² 0,0 km/h (0 Bft) N 0 ° 0 min 18 W/m² 4,7 °C 6,2 °C 0,0 km/h (0 Bft)
14.01.2026 15:31 21,7 °C 6,2 °C 49 % 90 % 1014,4 hPa 0,0 l/m² 0,0 km/h (0 Bft) N 0 ° 0 min 18 W/m² 4,7 °C 6,2 °C 0,0 km/h (0 Bft)
14.01.2026 15:32 21,7 °C 6,2 °C 49 % 90 % 1014,4 hPa 0,0 l/m² 0,0 km/h (0 Bft) N 0 ° 0 min 16 W/m² 4,7 °C 6,2 °C 0,0 km/h (0 Bft)
14.01.2026 15:33 21,7 °C 6,2 °C 49 % 90 % 1014,5 hPa 0,0 l/m² 0,0 km/h (0 Bft) N 0 ° 0 min 16 W/m² 4,7 °C 6,2 °C 0,0 km/h (0 Bft)
14.01.2026 15:34 21,7 °C 6,2 °C 49 % 90 % 1014,5 hPa 0,0 l/m² 0,0 km/h (0 Bft) N 0 ° 0 min 14 W/m² 4,7 °C 6,2 °C 0,0 km/h (0 Bft)
14.01.2026 15:35 21,7 °C 6,2 °C 49 % 90 % 1014,5 hPa 0,0 l/m² 0,0 km/h (0 Bft) N 0 ° 0 min 14 W/m² 4,7 °C 6,2 °C 0,0 km/h (0 Bft)
14.01.2026 15:36 21,7 °C 6,2 °C 49 % 90 % 1014,5 hPa 0,0 l/m² 0,0 km/h (0 Bft) N 0 ° 0 min 14 W/m² 4,7 °C 6,2 °C 0,0 km/h (0 Bft)
14.01.2026 15:37 21,7 °C 6,2 °C 49 % 90 % 1014,5 hPa 0,0 l/m² 0,0 km/h (0 Bft) N 0 ° 0 min 12 W/m² 4,7 °C 6,2 °C 0,0 km/h (0 Bft)
14.01.2026 15:38 21,7 °C 6,2 °C 49 % 90 % 1014,6 hPa 0,0 l/m² 0,0 km/h (0 Bft) N 0 ° 0 min 12 W/m² 4,7 °C 6,2 °C 0,0 km/h (0 Bft)
14.01.2026 15:39 21,7 °C 6,2 °C 49 % 90 % 1014,5 hPa 0,0 l/m² 0,0 km/h (0 Bft) N 0 ° 0 min 12 W/m² 4,7 °C 6,2 °C 0,0 km/h (0 Bft)
14.01.2026 15:40 21,7 °C 6,2 °C 49 % 90 % 1014,6 hPa 0,0 l/m² 0,0 km/h (0 Bft) N 0 ° 0 min 12 W/m² 4,7 °C 6,2 °C 0,0 km/h (0 Bft)
14.01.2026 15:41 21,7 °C 6,2 °C 49 % 90 % 1014,5 hPa 0,0 l/m² 0,0 km/h (0 Bft) N 0 ° 0 min 12 W/m² 4,7 °C 6,2 °C 0,0 km/h (0 Bft)
14.01.2026 15:42 21,7 °C 6,1 °C 49 % 90 % 1014,5 hPa 0,0 l/m² 0,0 km/h (0 Bft) N 0 ° 0 min 12 W/m² 4,6 °C 6,1 °C 0,0 km/h (0 Bft)
14.01.2026 15:43 21,7 °C 6,1 °C 49 % 90 % 1014,5 hPa 0,0 l/m² 0,0 km/h (0 Bft) N 0 ° 0 min 11 W/m² 4,6 °C 6,1 °C 0,0 km/h (0 Bft)
14.01.2026 15:44 21,7 °C 6,1 °C 49 % 90 % 1014,6 hPa 0,0 l/m² 0,0 km/h (0 Bft) N 0 ° 0 min 11 W/m² 4,6 °C 6,1 °C 0,0 km/h (0 Bft)
14.01.2026 15:45 21,7 °C 6,1 °C 49 % 90 % 1014,5 hPa 0,0 l/m² 0,0 km/h (0 Bft) N 0 ° 0 min 11 W/m² 4,6 °C 6,1 °C 0,0 km/h (0 Bft)
14.01.2026 15:46 21,7 °C 6,1 °C 49 % 90 % 1014,6 hPa 0,0 l/m² 0,0 km/h (0 Bft) N 0 ° 0 min 11 W/m² 4,6 °C 6,1 °C 0,0 km/h (0 Bft)
14.01.2026 15:47 21,7 °C 6,2 °C 49 % 90 % 1014,5 hPa 0,0 l/m² 0,0 km/h (0 Bft) N 0 ° 0 min 11 W/m² 4,7 °C 6,2 °C 0,0 km/h (0 Bft)
14.01.2026 15:48 21,7 °C 6,1 °C 49 % 90 % 1014,6 hPa 0,0 l/m² 0,0 km/h (0 Bft) N 0 ° 0 min 11 W/m² 4,6 °C 6,1 °C 0,0 km/h (0 Bft)
14.01.2026 15:49 21,7 °C 6,1 °C 49 % 90 % 1014,6 hPa 0,0 l/m² 0,0 km/h (0 Bft) N 0 ° 0 min 9 W/m² 4,6 °C 6,1 °C 0,0 km/h (0 Bft)
14.01.2026 15:50 21,7 °C 6,2 °C 49 % 90 % 1014,6 hPa 0,0 l/m² 0,0 km/h (0 Bft) N 0 ° 0 min 9 W/m² 4,7 °C 6,2 °C 0,0 km/h (0 Bft)
14.01.2026 15:51 21,7 °C 6,2 °C 49 % 90 % 1014,7 hPa 0,0 l/m² 0,0 km/h (0 Bft) N 0 ° 0 min 9 W/m² 4,7 °C 6,2 °C 0,0 km/h (0 Bft)
14.01.2026 15:52 21,7 °C 6,1 °C 49 % 91 % 1014,7 hPa 0,0 l/m² 0,0 km/h (0 Bft) N 0 ° 0 min 7 W/m² 4,7 °C 6,1 °C 0,0 km/h (0 Bft)
14.01.2026 15:53 21,7 °C 6,1 °C 49 % 90 % 1014,8 hPa 0,0 l/m² 0,0 km/h (0 Bft) N 0 ° 0 min 7 W/m² 4,6 °C 6,1 °C 0,0 km/h (0 Bft)
14.01.2026 15:54 21,7 °C 6,2 °C 49 % 90 % 1014,7 hPa 0,0 l/m² 0,0 km/h (0 Bft) N 0 ° 0 min 7 W/m² 4,7 °C 6,2 °C 0,0 km/h (0 Bft)
14.01.2026 15:55 21,7 °C 6,2 °C 49 % 90 % 1014,7 hPa 0,0 l/m² 0,0 km/h (0 Bft) N 0 ° 0 min 7 W/m² 4,7 °C 6,2 °C 0,0 km/h (0 Bft)
14.01.2026 15:56 21,7 °C 6,1 °C 49 % 90 % 1014,7 hPa 0,0 l/m² 0,0 km/h (0 Bft) N 0 ° 0 min 7 W/m² 4,6 °C 6,1 °C 0,0 km/h (0 Bft)
14.01.2026 15:57 21,7 °C 6,2 °C 49 % 90 % 1014,8 hPa 0,0 l/m² 0,0 km/h (0 Bft) N 0 ° 0 min 7 W/m² 4,7 °C 6,2 °C 0,0 km/h (0 Bft)
14.01.2026 15:58 21,7 °C 6,2 °C 49 % 90 % 1014,8 hPa 0,0 l/m² 0,0 km/h (0 Bft) N 0 ° 0 min 7 W/m² 4,7 °C 6,2 °C 0,0 km/h (0 Bft)
14.01.2026 15:59 21,7 °C 6,1 °C 49 % 90 % 1014,8 hPa 0,0 l/m² 0,0 km/h (0 Bft) N 0 ° 0 min 7 W/m² 4,6 °C 6,1 °C 0,0 km/h (0 Bft)
14.01.2026 16:00 21,7 °C 6,1 °C 49 % 90 % 1014,8 hPa 0,0 l/m² 0,0 km/h (0 Bft) N 0 ° 0 min 5 W/m² 4,6 °C 6,1 °C 0,0 km/h (0 Bft)
14.01.2026 16:01 21,7 °C 6,1 °C 49 % 90 % 1014,8 hPa 0,0 l/m² 0,0 km/h (0 Bft) N 0 ° 0 min 5 W/m² 4,6 °C 6,1 °C 0,0 km/h (0 Bft)
14.01.2026 16:02 21,7 °C 6,1 °C 49 % 90 % 1014,8 hPa 0,0 l/m² 0,0 km/h (0 Bft) N 0 ° 0 min 5 W/m² 4,6 °C 6,1 °C 0,0 km/h (0 Bft)
14.01.2026 16:03 21,7 °C 6,1 °C 49 % 90 % 1014,9 hPa 0,0 l/m² 0,0 km/h (0 Bft) N 0 ° 0 min 5 W/m² 4,6 °C 6,1 °C 0,0 km/h (0 Bft)
14.01.2026 16:04 21,7 °C 6,1 °C 49 % 90 % 1014,9 hPa 0,0 l/m² 0,0 km/h (0 Bft) N 0 ° 0 min 5 W/m² 4,6 °C 6,1 °C 0,0 km/h (0 Bft)
14.01.2026 16:05 21,7 °C 6,1 °C 49 % 90 % 1014,9 hPa 0,0 l/m² 0,0 km/h (0 Bft) N 0 ° 0 min 0 W/m² 4,6 °C 6,1 °C 0,0 km/h (0 Bft)
14.01.2026 16:06 21,7 °C 6,1 °C 49 % 90 % 1014,9 hPa 0,0 l/m² 0,0 km/h (0 Bft) N 0 ° 0 min 0 W/m² 4,6 °C 6,1 °C 0,0 km/h (0 Bft)
14.01.2026 16:07 21,7 °C 6,1 °C 49 % 90 % 1014,9 hPa 0,0 l/m² 0,0 km/h (0 Bft) N 0 ° 0 min 0 W/m² 4,6 °C 6,1 °C 0,0 km/h (0 Bft)
14.01.2026 16:08 21,7 °C 6,1 °C 49 % 90 % 1014,9 hPa 0,0 l/m² 0,0 km/h (0 Bft) N 0 ° 0 min 0 W/m² 4,6 °C 6,1 °C 0,0 km/h (0 Bft)
14.01.2026 16:09 21,7 °C 6,1 °C 49 % 90 % 1015,0 hPa 0,0 l/m² 0,0 km/h (0 Bft) N 0 ° 0 min 0 W/m² 4,6 °C 6,1 °C 0,0 km/h (0 Bft)
14.01.2026 16:10 21,7 °C 6,1 °C 49 % 90 % 1015,0 hPa 0,0 l/m² 0,0 km/h (0 Bft) N 0 ° 0 min 0 W/m² 4,6 °C 6,1 °C 0,0 km/h (0 Bft)
14.01.2026 16:11 21,7 °C 6,1 °C 49 % 90 % 1015,0 hPa 0,0 l/m² 0,0 km/h (0 Bft) N 0 ° 0 min 0 W/m² 4,6 °C 6,1 °C 0,0 km/h (0 Bft)
14.01.2026 16:12 21,7 °C 6,1 °C 49 % 90 % 1015,0 hPa 0,0 l/m² 0,0 km/h (0 Bft) N 0 ° 0 min 0 W/m² 4,6 °C 6,1 °C 0,0 km/h (0 Bft)
14.01.2026 16:13 21,7 °C 6,1 °C 49 % 90 % 1015,0 hPa 0,0 l/m² 0,0 km/h (0 Bft) N 0 ° 0 min 0 W/m² 4,6 °C 6,1 °C 0,0 km/h (0 Bft)
14.01.2026 16:14 21,7 °C 6,1 °C 49 % 90 % 1015,1 hPa 0,0 l/m² 0,0 km/h (0 Bft) N 0 ° 0 min 0 W/m² 4,6 °C 6,1 °C 0,0 km/h (0 Bft)
14.01.2026 16:15 21,7 °C 6,1 °C 49 % 90 % 1015,0 hPa 0,0 l/m² 0,0 km/h (0 Bft) N 0 ° 0 min 0 W/m² 4,6 °C 6,1 °C 0,0 km/h (0 Bft)
14.01.2026 16:16 21,7 °C 6,0 °C 49 % 90 % 1014,9 hPa 0,0 l/m² 0,0 km/h (0 Bft) N 0 ° 0 min 0 W/m² 4,5 °C 6,0 °C 0,0 km/h (0 Bft)
14.01.2026 16:17 21,7 °C 6,0 °C 49 % 90 % 1015,0 hPa 0,0 l/m² 0,0 km/h (0 Bft) N 0 ° 0 min 0 W/m² 4,5 °C 6,0 °C 0,0 km/h (0 Bft)
14.01.2026 16:18 21,7 °C 5,9 °C 49 % 90 % 1015,0 hPa 0,0 l/m² 0,0 km/h (0 Bft) N 0 ° 0 min 0 W/m² 4,4 °C 5,9 °C 0,0 km/h (0 Bft)
14.01.2026 16:19 21,7 °C 5,9 °C 49 % 90 % 1015,0 hPa 0,0 l/m² 0,0 km/h (0 Bft) N 0 ° 0 min 0 W/m² 4,4 °C 5,9 °C 0,0 km/h (0 Bft)
14.01.2026 16:20 21,7 °C 5,9 °C 49 % 90 % 1015,0 hPa 0,0 l/m² 0,0 km/h (0 Bft) N 0 ° 0 min 0 W/m² 4,4 °C 5,9 °C 0,0 km/h (0 Bft)
14.01.2026 16:21 21,7 °C 5,9 °C 49 % 90 % 1015,0 hPa 0,0 l/m² 0,0 km/h (0 Bft) N 0 ° 0 min 0 W/m² 4,4 °C 5,9 °C 0,0 km/h (0 Bft)
14.01.2026 16:22 21,7 °C 5,9 °C 49 % 90 % 1015,1 hPa 0,0 l/m² 0,0 km/h (0 Bft) N 0 ° 0 min 0 W/m² 4,4 °C 5,9 °C 0,0 km/h (0 Bft)
14.01.2026 16:23 21,7 °C 5,9 °C 49 % 90 % 1015,0 hPa 0,0 l/m² 0,0 km/h (0 Bft) N 0 ° 0 min 0 W/m² 4,4 °C 5,9 °C 0,0 km/h (0 Bft)
14.01.2026 16:24 21,6 °C 5,8 °C 49 % 90 % 1015,0 hPa 0,0 l/m² 0,0 km/h (0 Bft) N 0 ° 0 min 0 W/m² 4,3 °C 5,8 °C 0,0 km/h (0 Bft)
14.01.2026 16:25 21,7 °C 5,8 °C 49 % 90 % 1015,0 hPa 0,0 l/m² 0,0 km/h (0 Bft) N 0 ° 0 min 0 W/m² 4,3 °C 5,8 °C 0,0 km/h (0 Bft)
14.01.2026 16:26 21,6 °C 5,8 °C 49 % 90 % 1015,0 hPa 0,0 l/m² 0,0 km/h (0 Bft) N 0 ° 0 min 0 W/m² 4,3 °C 5,8 °C 0,0 km/h (0 Bft)
14.01.2026 16:27 21,6 °C 5,8 °C 49 % 90 % 1015,0 hPa 0,0 l/m² 0,0 km/h (0 Bft) N 0 ° 0 min 0 W/m² 4,3 °C 5,8 °C 0,0 km/h (0 Bft)
14.01.2026 16:28 21,6 °C 5,8 °C 49 % 90 % 1014,9 hPa 0,0 l/m² 0,0 km/h (0 Bft) N 0 ° 0 min 0 W/m² 4,3 °C 5,8 °C 0,0 km/h (0 Bft)
14.01.2026 16:29 21,6 °C 5,7 °C 49 % 90 % 1015,0 hPa 0,0 l/m² 0,0 km/h (0 Bft) N 0 ° 0 min 0 W/m² 4,2 °C 5,7 °C 0,0 km/h (0 Bft)
14.01.2026 16:30 21,6 °C 5,7 °C 49 % 90 % 1015,0 hPa 0,0 l/m² 0,0 km/h (0 Bft) N 0 ° 0 min 0 W/m² 4,2 °C 5,7 °C 0,0 km/h (0 Bft)
14.01.2026 16:31 21,6 °C 5,7 °C 49 % 90 % 1014,9 hPa 0,0 l/m² 0,0 km/h (0 Bft) N 0 ° 0 min 0 W/m² 4,2 °C 5,7 °C 0,0 km/h (0 Bft)
14.01.2026 16:32 21,7 °C 5,7 °C 49 % 90 % 1014,9 hPa 0,0 l/m² 0,0 km/h (0 Bft) N 0 ° 0 min 0 W/m² 4,2 °C 5,7 °C 0,0 km/h (0 Bft)
14.01.2026 16:33 21,7 °C 5,7 °C 49 % 90 % 1014,9 hPa 0,0 l/m² 0,0 km/h (0 Bft) N 0 ° 0 min 0 W/m² 4,2 °C 5,7 °C 0,0 km/h (0 Bft)
14.01.2026 16:34 21,6 °C 5,7 °C 49 % 90 % 1015,0 hPa 0,0 l/m² 0,0 km/h (0 Bft) N 0 ° 0 min 0 W/m² 4,2 °C 5,7 °C 0,0 km/h (0 Bft)
14.01.2026 16:35 21,6 °C 5,6 °C 49 % 90 % 1015,0 hPa 0,0 l/m² 0,0 km/h (0 Bft) N 0 ° 0 min 0 W/m² 4,1 °C 5,6 °C 0,0 km/h (0 Bft)
14.01.2026 16:36 21,7 °C 5,6 °C 49 % 90 % 1015,0 hPa 0,0 l/m² 0,0 km/h (0 Bft) N 0 ° 0 min 0 W/m² 4,1 °C 5,6 °C 0,0 km/h (0 Bft)
14.01.2026 16:37 21,6 °C 5,6 °C 49 % 90 % 1015,0 hPa 0,0 l/m² 0,0 km/h (0 Bft) N 0 ° 0 min 0 W/m² 4,1 °C 5,6 °C 0,0 km/h (0 Bft)
14.01.2026 16:38 21,6 °C 5,6 °C 49 % 90 % 1015,0 hPa 0,0 l/m² 0,0 km/h (0 Bft) N 0 ° 0 min 0 W/m² 4,1 °C 5,6 °C 0,0 km/h (0 Bft)
14.01.2026 16:39 21,7 °C 5,6 °C 49 % 90 % 1015,1 hPa 0,0 l/m² 0,0 km/h (0 Bft) N 0 ° 0 min 0 W/m² 4,1 °C 5,6 °C 0,0 km/h (0 Bft)
14.01.2026 16:40 21,6 °C 5,6 °C 49 % 90 % 1015,1 hPa 0,0 l/m² 0,0 km/h (0 Bft) N 0 ° 0 min 0 W/m² 4,1 °C 5,6 °C 0,0 km/h (0 Bft)
14.01.2026 16:41 21,6 °C 5,5 °C 49 % 90 % 1015,2 hPa 0,0 l/m² 0,0 km/h (0 Bft) N 0 ° 0 min 0 W/m² 4,0 °C 5,5 °C 0,0 km/h (0 Bft)
14.01.2026 16:42 21,6 °C 5,5 °C 49 % 90 % 1015,2 hPa 0,0 l/m² 0,0 km/h (0 Bft) N 0 ° 0 min 0 W/m² 4,0 °C 5,5 °C 0,0 km/h (0 Bft)
14.01.2026 16:43 21,6 °C 5,4 °C 49 % 90 % 1015,2 hPa 0,0 l/m² 0,0 km/h (0 Bft) N 0 ° 0 min 0 W/m² 3,9 °C 5,4 °C 0,0 km/h (0 Bft)
14.01.2026 16:44 21,6 °C 5,4 °C 49 % 90 % 1015,2 hPa 0,0 l/m² 0,0 km/h (0 Bft) N 0 ° 0 min 0 W/m² 3,9 °C 5,4 °C 0,0 km/h (0 Bft)
14.01.2026 16:45 21,6 °C 5,4 °C 49 % 90 % 1015,3 hPa 0,0 l/m² 0,0 km/h (0 Bft) N 0 ° 0 min 0 W/m² 3,9 °C 5,4 °C 0,0 km/h (0 Bft)
14.01.2026 16:46 21,7 °C 5,4 °C 49 % 90 % 1015,3 hPa 0,0 l/m² 0,0 km/h (0 Bft) N 0 ° 0 min 0 W/m² 3,9 °C 5,4 °C 0,0 km/h (0 Bft)
14.01.2026 16:47 21,7 °C 5,4 °C 49 % 90 % 1015,3 hPa 0,0 l/m² 0,0 km/h (0 Bft) N 0 ° 0 min 0 W/m² 3,9 °C 5,4 °C 0,0 km/h (0 Bft)
14.01.2026 16:48 21,6 °C 5,3 °C 49 % 90 % 1015,3 hPa 0,0 l/m² 0,0 km/h (0 Bft) N 0 ° 0 min 0 W/m² 3,8 °C 5,3 °C 0,0 km/h (0 Bft)
14.01.2026 16:49 21,6 °C 5,4 °C 49 % 90 % 1015,3 hPa 0,0 l/m² 0,0 km/h (0 Bft) N 0 ° 0 min 0 W/m² 3,9 °C 5,4 °C 0,0 km/h (0 Bft)
14.01.2026 16:50 21,7 °C 5,3 °C 49 % 90 % 1015,3 hPa 0,0 l/m² 0,0 km/h (0 Bft) N 0 ° 0 min 0 W/m² 3,8 °C 5,3 °C 0,0 km/h (0 Bft)
14.01.2026 16:51 21,6 °C 5,3 °C 49 % 90 % 1015,2 hPa 0,0 l/m² 0,0 km/h (0 Bft) N 0 ° 0 min 0 W/m² 3,8 °C 5,3 °C 0,0 km/h (0 Bft)
14.01.2026 16:52 21,6 °C 5,3 °C 49 % 90 % 1015,3 hPa 0,0 l/m² 0,0 km/h (0 Bft) N 0 ° 0 min 0 W/m² 3,8 °C 5,3 °C 0,0 km/h (0 Bft)
14.01.2026 16:53 21,7 °C 5,3 °C 49 % 90 % 1015,3 hPa 0,0 l/m² 0,0 km/h (0 Bft) N 0 ° 0 min 0 W/m² 3,8 °C 5,3 °C 0,0 km/h (0 Bft)
14.01.2026 16:54 21,7 °C 5,3 °C 49 % 90 % 1015,3 hPa 0,0 l/m² 0,0 km/h (0 Bft) N 0 ° 0 min 0 W/m² 3,8 °C 5,3 °C 0,0 km/h (0 Bft)
14.01.2026 16:55 21,6 °C 5,3 °C 49 % 90 % 1015,4 hPa 0,0 l/m² 0,0 km/h (0 Bft) N 0 ° 0 min 0 W/m² 3,8 °C 5,3 °C 0,0 km/h (0 Bft)
14.01.2026 16:56 21,7 °C 5,2 °C 49 % 90 % 1015,4 hPa 0,0 l/m² 0,0 km/h (0 Bft) N 0 ° 0 min 0 W/m² 3,7 °C 5,2 °C 0,0 km/h (0 Bft)
14.01.2026 16:57 21,6 °C 5,2 °C 49 % 90 % 1015,4 hPa 0,0 l/m² 0,0 km/h (0 Bft) N 0 ° 0 min 0 W/m² 3,7 °C 5,2 °C 0,0 km/h (0 Bft)
14.01.2026 16:58 21,6 °C 5,2 °C 49 % 90 % 1015,4 hPa 0,0 l/m² 0,0 km/h (0 Bft) N 0 ° 0 min 0 W/m² 3,7 °C 5,2 °C 0,0 km/h (0 Bft)
14.01.2026 16:59 21,6 °C 5,2 °C 49 % 90 % 1015,4 hPa 0,0 l/m² 0,0 km/h (0 Bft) N 0 ° 0 min 0 W/m² 3,7 °C 5,2 °C 0,0 km/h (0 Bft)
14.01.2026 17:00 21,6 °C 5,2 °C 49 % 90 % 1015,4 hPa 0,0 l/m² 0,0 km/h (0 Bft) N 0 ° 0 min 0 W/m² 3,7 °C 5,2 °C 0,0 km/h (0 Bft)
14.01.2026 17:01 21,6 °C 5,1 °C 49 % 90 % 1015,3 hPa 0,0 l/m² 0,0 km/h (0 Bft) N 0 ° 0 min 0 W/m² 3,6 °C 5,1 °C 0,0 km/h (0 Bft)
14.01.2026 17:02 21,6 °C 5,1 °C 49 % 90 % 1015,4 hPa 0,0 l/m² 0,0 km/h (0 Bft) N 0 ° 0 min 0 W/m² 3,6 °C 5,1 °C 0,0 km/h (0 Bft)
14.01.2026 17:03 21,7 °C 5,1 °C 49 % 90 % 1015,4 hPa 0,0 l/m² 0,0 km/h (0 Bft) N 0 ° 0 min 0 W/m² 3,6 °C 5,1 °C 0,0 km/h (0 Bft)
14.01.2026 17:04 21,6 °C 5,1 °C 49 % 90 % 1015,3 hPa 0,0 l/m² 0,0 km/h (0 Bft) N 0 ° 0 min 0 W/m² 3,6 °C 5,1 °C 0,0 km/h (0 Bft)
14.01.2026 17:05 21,6 °C 5,1 °C 49 % 90 % 1015,4 hPa 0,0 l/m² 0,0 km/h (0 Bft) N 0 ° 0 min 0 W/m² 3,6 °C 5,1 °C 0,0 km/h (0 Bft)
14.01.2026 17:06 21,6 °C 5,0 °C 49 % 90 % 1015,5 hPa 0,0 l/m² 0,0 km/h (0 Bft) N 0 ° 0 min 0 W/m² 3,5 °C 5,0 °C 0,0 km/h (0 Bft)
14.01.2026 17:07 21,7 °C 5,0 °C 49 % 90 % 1015,4 hPa 0,0 l/m² 0,0 km/h (0 Bft) N 0 ° 0 min 0 W/m² 3,5 °C 5,0 °C 0,0 km/h (0 Bft)
14.01.2026 17:08 21,6 °C 5,0 °C 49 % 90 % 1015,4 hPa 0,0 l/m² 0,0 km/h (0 Bft) N 0 ° 0 min 0 W/m² 3,5 °C 5,0 °C 0,0 km/h (0 Bft)
14.01.2026 17:09 21,6 °C 5,0 °C 49 % 90 % 1015,4 hPa 0,0 l/m² 0,0 km/h (0 Bft) N 0 ° 0 min 0 W/m² 3,5 °C 5,0 °C 0,0 km/h (0 Bft)
14.01.2026 17:10 21,6 °C 4,9 °C 49 % 90 % 1015,5 hPa 0,0 l/m² 0,0 km/h (0 Bft) N 0 ° 0 min 0 W/m² 3,4 °C 4,9 °C 0,0 km/h (0 Bft)
14.01.2026 17:11 21,7 °C 4,9 °C 49 % 90 % 1015,5 hPa 0,0 l/m² 0,0 km/h (0 Bft) N 0 ° 0 min 0 W/m² 3,4 °C 4,9 °C 0,0 km/h (0 Bft)
14.01.2026 17:12 21,6 °C 4,9 °C 49 % 90 % 1015,5 hPa 0,0 l/m² 0,0 km/h (0 Bft) N 0 ° 0 min 0 W/m² 3,4 °C 4,9 °C 0,0 km/h (0 Bft)
14.01.2026 17:13 21,7 °C 4,9 °C 49 % 90 % 1015,5 hPa 0,0 l/m² 0,0 km/h (0 Bft) N 0 ° 0 min 0 W/m² 3,4 °C 4,9 °C 0,0 km/h (0 Bft)
14.01.2026 17:14 21,6 °C 4,9 °C 49 % 90 % 1015,6 hPa 0,0 l/m² 0,0 km/h (0 Bft) N 0 ° 0 min 0 W/m² 3,4 °C 4,9 °C 0,0 km/h (0 Bft)
14.01.2026 17:15 21,7 °C 4,9 °C 49 % 90 % 1015,6 hPa 0,0 l/m² 0,0 km/h (0 Bft) N 0 ° 0 min 0 W/m² 3,4 °C 4,9 °C 0,0 km/h (0 Bft)
14.01.2026 17:16 21,7 °C 4,9 °C 49 % 90 % 1015,6 hPa 0,0 l/m² 0,0 km/h (0 Bft) N 0 ° 0 min 0 W/m² 3,4 °C 4,9 °C 0,0 km/h (0 Bft)
14.01.2026 17:17 21,6 °C 4,9 °C 49 % 90 % 1015,7 hPa 0,0 l/m² 0,0 km/h (0 Bft) N 0 ° 0 min 0 W/m² 3,4 °C 4,9 °C 0,0 km/h (0 Bft)
14.01.2026 17:18 21,6 °C 4,8 °C 49 % 90 % 1015,7 hPa 0,0 l/m² 0,0 km/h (0 Bft) N 0 ° 0 min 0 W/m² 3,3 °C 4,8 °C 0,0 km/h (0 Bft)
14.01.2026 17:19 21,7 °C 4,8 °C 49 % 90 % 1015,7 hPa 0,0 l/m² 0,0 km/h (0 Bft) N 0 ° 0 min 0 W/m² 3,3 °C 4,8 °C 0,0 km/h (0 Bft)
14.01.2026 17:20 21,6 °C 4,8 °C 49 % 90 % 1015,7 hPa 0,0 l/m² 0,0 km/h (0 Bft) N 0 ° 0 min 0 W/m² 3,3 °C 4,8 °C 0,0 km/h (0 Bft)
14.01.2026 17:21 21,7 °C 4,8 °C 49 % 90 % 1015,7 hPa 0,0 l/m² 0,0 km/h (0 Bft) N 0 ° 0 min 0 W/m² 3,3 °C 4,8 °C 0,0 km/h (0 Bft)
14.01.2026 17:22 21,7 °C 4,8 °C 49 % 90 % 1015,8 hPa 0,0 l/m² 0,0 km/h (0 Bft) N 0 ° 0 min 0 W/m² 3,3 °C 4,8 °C 0,0 km/h (0 Bft)
14.01.2026 17:23 21,6 °C 4,8 °C 49 % 90 % 1015,8 hPa 0,0 l/m² 0,0 km/h (0 Bft) N 0 ° 0 min 0 W/m² 3,3 °C 4,8 °C 0,0 km/h (0 Bft)
14.01.2026 17:24 21,7 °C 4,8 °C 49 % 90 % 1015,8 hPa 0,0 l/m² 0,0 km/h (0 Bft) N 0 ° 0 min 0 W/m² 3,3 °C 4,8 °C 0,0 km/h (0 Bft)
14.01.2026 17:25 21,7 °C 4,8 °C 49 % 90 % 1015,8 hPa 0,0 l/m² 0,0 km/h (0 Bft) N 0 ° 0 min 0 W/m² 3,3 °C 4,8 °C 0,0 km/h (0 Bft)
14.01.2026 17:26 21,6 °C 4,8 °C 49 % 90 % 1015,7 hPa 0,0 l/m² 0,0 km/h (0 Bft) N 0 ° 0 min 0 W/m² 3,3 °C 4,8 °C 0,0 km/h (0 Bft)
14.01.2026 17:27 21,7 °C 4,8 °C 49 % 90 % 1015,7 hPa 0,0 l/m² 0,0 km/h (0 Bft) N 0 ° 0 min 0 W/m² 3,3 °C 4,8 °C 0,0 km/h (0 Bft)
14.01.2026 17:28 21,7 °C 4,8 °C 49 % 90 % 1015,8 hPa 0,0 l/m² 0,0 km/h (0 Bft) N 0 ° 0 min 0 W/m² 3,3 °C 4,8 °C 0,0 km/h (0 Bft)
14.01.2026 17:29 21,7 °C 4,7 °C 49 % 90 % 1015,7 hPa 0,0 l/m² 0,0 km/h (0 Bft) N 0 ° 0 min 0 W/m² 3,2 °C 4,7 °C 0,0 km/h (0 Bft)
14.01.2026 17:30 21,6 °C 4,7 °C 49 % 90 % 1015,8 hPa 0,0 l/m² 0,0 km/h (0 Bft) N 0 ° 0 min 0 W/m² 3,2 °C 4,7 °C 0,0 km/h (0 Bft)
14.01.2026 17:31 21,7 °C 4,7 °C 49 % 90 % 1015,8 hPa 0,0 l/m² 0,0 km/h (0 Bft) N 0 ° 0 min 0 W/m² 3,2 °C 4,7 °C 0,0 km/h (0 Bft)
14.01.2026 17:32 21,7 °C 4,7 °C 49 % 90 % 1015,8 hPa 0,0 l/m² 0,0 km/h (0 Bft) N 0 ° 0 min 0 W/m² 3,2 °C 4,7 °C 0,0 km/h (0 Bft)
14.01.2026 17:33 21,7 °C 4,7 °C 49 % 90 % 1015,8 hPa 0,0 l/m² 0,0 km/h (0 Bft) N 0 ° 0 min 0 W/m² 3,2 °C 4,7 °C 0,0 km/h (0 Bft)
14.01.2026 17:34 21,7 °C 4,7 °C 49 % 90 % 1015,9 hPa 0,0 l/m² 0,0 km/h (0 Bft) N 0 ° 0 min 0 W/m² 3,2 °C 4,7 °C 0,0 km/h (0 Bft)
14.01.2026 17:35 21,7 °C 4,7 °C 49 % 90 % 1015,8 hPa 0,0 l/m² 0,0 km/h (0 Bft) N 0 ° 0 min 0 W/m² 3,2 °C 4,7 °C 0,0 km/h (0 Bft)
14.01.2026 17:36 21,7 °C 4,6 °C 49 % 90 % 1015,8 hPa 0,0 l/m² 0,0 km/h (0 Bft) N 0 ° 0 min 0 W/m² 3,1 °C 4,6 °C 0,0 km/h (0 Bft)
14.01.2026 17:37 21,7 °C 4,6 °C 49 % 90 % 1015,8 hPa 0,0 l/m² 0,0 km/h (0 Bft) N 0 ° 0 min 0 W/m² 3,1 °C 4,6 °C 0,0 km/h (0 Bft)
14.01.2026 17:38 21,7 °C 4,6 °C 49 % 90 % 1015,8 hPa 0,0 l/m² 0,0 km/h (0 Bft) N 0 ° 0 min 0 W/m² 3,1 °C 4,6 °C 0,0 km/h (0 Bft)
14.01.2026 17:39 21,7 °C 4,5 °C 49 % 90 % 1015,8 hPa 0,0 l/m² 0,0 km/h (0 Bft) N 0 ° 0 min 0 W/m² 3,0 °C 4,5 °C 0,0 km/h (0 Bft)
14.01.2026 17:40 21,7 °C 4,4 °C 49 % 90 % 1015,8 hPa 0,0 l/m² 0,0 km/h (0 Bft) N 0 ° 0 min 0 W/m² 2,9 °C 4,4 °C 0,0 km/h (0 Bft)
14.01.2026 17:41 21,7 °C 4,4 °C 49 % 90 % 1015,8 hPa 0,0 l/m² 0,0 km/h (0 Bft) N 0 ° 0 min 0 W/m² 2,9 °C 4,4 °C 0,0 km/h (0 Bft)
14.01.2026 17:42 21,7 °C 4,4 °C 49 % 90 % 1015,9 hPa 0,0 l/m² 0,0 km/h (0 Bft) N 0 ° 0 min 0 W/m² 2,9 °C 4,4 °C 0,0 km/h (0 Bft)
14.01.2026 17:43 21,7 °C 4,4 °C 49 % 90 % 1015,9 hPa 0,0 l/m² 0,0 km/h (0 Bft) N 0 ° 0 min 0 W/m² 2,9 °C 4,4 °C 0,0 km/h (0 Bft)
14.01.2026 17:44 21,7 °C 4,4 °C 49 % 90 % 1015,9 hPa 0,0 l/m² 0,0 km/h (0 Bft) N 0 ° 0 min 0 W/m² 2,9 °C 4,4 °C 0,0 km/h (0 Bft)
14.01.2026 17:45 21,7 °C 4,4 °C 49 % 90 % 1015,8 hPa 0,0 l/m² 0,0 km/h (0 Bft) N 0 ° 0 min 0 W/m² 2,9 °C 4,4 °C 0,0 km/h (0 Bft)
14.01.2026 17:46 21,7 °C 4,3 °C 49 % 90 % 1015,9 hPa 0,0 l/m² 0,0 km/h (0 Bft) N 0 ° 0 min 0 W/m² 2,8 °C 4,3 °C 0,0 km/h (0 Bft)
14.01.2026 17:47 21,7 °C 4,4 °C 49 % 90 % 1015,8 hPa 0,0 l/m² 0,0 km/h (0 Bft) N 0 ° 0 min 0 W/m² 2,9 °C 4,4 °C 0,0 km/h (0 Bft)
14.01.2026 17:48 21,7 °C 4,3 °C 49 % 90 % 1015,8 hPa 0,0 l/m² 0,0 km/h (0 Bft) N 0 ° 0 min 0 W/m² 2,8 °C 4,3 °C 0,0 km/h (0 Bft)
14.01.2026 17:49 21,7 °C 4,3 °C 49 % 90 % 1015,9 hPa 0,0 l/m² 0,0 km/h (0 Bft) N 0 ° 0 min 0 W/m² 2,8 °C 4,3 °C 0,0 km/h (0 Bft)
14.01.2026 17:50 21,7 °C 4,3 °C 49 % 90 % 1015,9 hPa 0,0 l/m² 0,0 km/h (0 Bft) N 0 ° 0 min 0 W/m² 2,8 °C 4,3 °C 0,0 km/h (0 Bft)
14.01.2026 17:51 21,7 °C 4,3 °C 49 % 90 % 1015,9 hPa 0,0 l/m² 0,0 km/h (0 Bft) N 0 ° 0 min 0 W/m² 2,8 °C 4,3 °C 0,0 km/h (0 Bft)
14.01.2026 17:52 21,7 °C 4,3 °C 49 % 90 % 1015,9 hPa 0,0 l/m² 0,0 km/h (0 Bft) N 0 ° 0 min 0 W/m² 2,8 °C 4,3 °C 0,0 km/h (0 Bft)
14.01.2026 17:53 21,7 °C 4,3 °C 49 % 90 % 1015,9 hPa 0,0 l/m² 0,0 km/h (0 Bft) N 0 ° 0 min 0 W/m² 2,8 °C 4,3 °C 0,0 km/h (0 Bft)
14.01.2026 17:54 21,7 °C 4,2 °C 49 % 90 % 1015,9 hPa 0,0 l/m² 0,0 km/h (0 Bft) N 0 ° 0 min 0 W/m² 2,7 °C 4,2 °C 0,0 km/h (0 Bft)
14.01.2026 17:55 21,7 °C 4,2 °C 49 % 90 % 1015,9 hPa 0,0 l/m² 0,0 km/h (0 Bft) N 0 ° 0 min 0 W/m² 2,7 °C 4,2 °C 0,0 km/h (0 Bft)
14.01.2026 17:56 21,7 °C 4,2 °C 49 % 90 % 1015,9 hPa 0,0 l/m² 0,0 km/h (0 Bft) N 0 ° 0 min 0 W/m² 2,7 °C 4,2 °C 0,0 km/h (0 Bft)
14.01.2026 17:57 21,7 °C 4,2 °C 49 % 90 % 1016,0 hPa 0,0 l/m² 0,0 km/h (0 Bft) N 0 ° 0 min 0 W/m² 2,7 °C 4,2 °C 0,0 km/h (0 Bft)
14.01.2026 17:58 21,7 °C 4,2 °C 49 % 90 % 1016,0 hPa 0,0 l/m² 0,0 km/h (0 Bft) N 0 ° 0 min 0 W/m² 2,7 °C 4,2 °C 0,0 km/h (0 Bft)
14.01.2026 17:59 21,7 °C 4,2 °C 49 % 90 % 1016,0 hPa 0,0 l/m² 0,0 km/h (0 Bft) N 0 ° 0 min 0 W/m² 2,7 °C 4,2 °C 0,0 km/h (0 Bft)
14.01.2026 18:00 21,7 °C 4,2 °C 49 % 90 % 1016,0 hPa 0,0 l/m² 0,0 km/h (0 Bft) N 0 ° 0 min 0 W/m² 2,7 °C 4,2 °C 0,0 km/h (0 Bft)
14.01.2026 18:01 21,7 °C 4,1 °C 49 % 90 % 1015,9 hPa 0,0 l/m² 0,0 km/h (0 Bft) N 0 ° 0 min 0 W/m² 2,6 °C 4,1 °C 0,0 km/h (0 Bft)
14.01.2026 18:02 21,7 °C 4,1 °C 49 % 90 % 1015,9 hPa 0,0 l/m² 0,0 km/h (0 Bft) N 0 ° 0 min 0 W/m² 2,6 °C 4,1 °C 0,0 km/h (0 Bft)
14.01.2026 18:03 21,7 °C 4,1 °C 49 % 90 % 1016,0 hPa 0,0 l/m² 0,0 km/h (0 Bft) N 0 ° 0 min 0 W/m² 2,6 °C 4,1 °C 0,0 km/h (0 Bft)
14.01.2026 18:04 21,7 °C 4,1 °C 49 % 90 % 1016,0 hPa 0,0 l/m² 0,0 km/h (0 Bft) N 0 ° 0 min 0 W/m² 2,6 °C 4,1 °C 0,0 km/h (0 Bft)
14.01.2026 18:05 21,7 °C 4,1 °C 49 % 90 % 1016,0 hPa 0,0 l/m² 0,0 km/h (0 Bft) N 0 ° 0 min 0 W/m² 2,6 °C 4,1 °C 0,0 km/h (0 Bft)
14.01.2026 18:06 21,7 °C 4,1 °C 49 % 90 % 1015,9 hPa 0,0 l/m² 0,0 km/h (0 Bft) N 0 ° 0 min 0 W/m² 2,6 °C 4,1 °C 0,0 km/h (0 Bft)
14.01.2026 18:07 21,7 °C 4,1 °C 49 % 90 % 1016,0 hPa 0,0 l/m² 0,0 km/h (0 Bft) N 0 ° 0 min 0 W/m² 2,6 °C 4,1 °C 0,0 km/h (0 Bft)
14.01.2026 18:08 21,7 °C 4,1 °C 49 % 91 % 1016,0 hPa 0,0 l/m² 0,0 km/h (0 Bft) N 0 ° 0 min 0 W/m² 2,8 °C 4,1 °C 0,0 km/h (0 Bft)
14.01.2026 18:09 21,7 °C 4,1 °C 49 % 91 % 1016,0 hPa 0,0 l/m² 0,0 km/h (0 Bft) N 0 ° 0 min 0 W/m² 2,8 °C 4,1 °C 0,0 km/h (0 Bft)
14.01.2026 18:10 21,7 °C 4,1 °C 49 % 91 % 1015,9 hPa 0,0 l/m² 0,0 km/h (0 Bft) N 0 ° 0 min 0 W/m² 2,8 °C 4,1 °C 0,0 km/h (0 Bft)
14.01.2026 18:11 21,7 °C 4,1 °C 49 % 91 % 1016,0 hPa 0,0 l/m² 0,0 km/h (0 Bft) N 0 ° 0 min 0 W/m² 2,8 °C 4,1 °C 0,0 km/h (0 Bft)
14.01.2026 18:12 21,7 °C 4,0 °C 49 % 90 % 1016,0 hPa 0,0 l/m² 0,0 km/h (0 Bft) N 0 ° 0 min 0 W/m² 2,5 °C 4,0 °C 0,0 km/h (0 Bft)
14.01.2026 18:13 21,7 °C 4,1 °C 49 % 90 % 1016,0 hPa 0,0 l/m² 0,0 km/h (0 Bft) N 0 ° 0 min 0 W/m² 2,6 °C 4,1 °C 0,0 km/h (0 Bft)
14.01.2026 18:14 21,7 °C 4,0 °C 49 % 90 % 1016,1 hPa 0,0 l/m² 0,0 km/h (0 Bft) N 0 ° 0 min 0 W/m² 2,5 °C 4,0 °C 0,0 km/h (0 Bft)
14.01.2026 18:15 21,7 °C 4,0 °C 49 % 90 % 1016,1 hPa 0,0 l/m² 0,0 km/h (0 Bft) N 0 ° 0 min 0 W/m² 2,5 °C 4,0 °C 0,0 km/h (0 Bft)
14.01.2026 18:16 21,7 °C 4,0 °C 49 % 90 % 1016,1 hPa 0,0 l/m² 0,0 km/h (0 Bft) N 0 ° 0 min 0 W/m² 2,5 °C 4,0 °C 0,0 km/h (0 Bft)
14.01.2026 18:17 21,7 °C 4,0 °C 49 % 90 % 1016,2 hPa 0,0 l/m² 0,0 km/h (0 Bft) N 0 ° 0 min 0 W/m² 2,5 °C 4,0 °C 0,0 km/h (0 Bft)
14.01.2026 18:18 21,7 °C 4,0 °C 49 % 90 % 1016,2 hPa 0,0 l/m² 0,0 km/h (0 Bft) N 0 ° 0 min 0 W/m² 2,5 °C 4,0 °C 0,0 km/h (0 Bft)
14.01.2026 18:19 21,7 °C 3,9 °C 49 % 90 % 1016,2 hPa 0,0 l/m² 0,0 km/h (0 Bft) N 0 ° 0 min 0 W/m² 2,4 °C 3,9 °C 0,0 km/h (0 Bft)
14.01.2026 18:20 21,7 °C 3,9 °C 49 % 90 % 1016,2 hPa 0,0 l/m² 0,0 km/h (0 Bft) N 0 ° 0 min 0 W/m² 2,4 °C 3,9 °C 0,0 km/h (0 Bft)
14.01.2026 18:21 21,7 °C 3,9 °C 49 % 90 % 1016,1 hPa 0,0 l/m² 0,0 km/h (0 Bft) N 0 ° 0 min 0 W/m² 2,4 °C 3,9 °C 0,0 km/h (0 Bft)
14.01.2026 18:22 21,7 °C 3,9 °C 49 % 91 % 1016,1 hPa 0,0 l/m² 0,0 km/h (0 Bft) N 0 ° 0 min 0 W/m² 2,6 °C 3,9 °C 0,0 km/h (0 Bft)
14.01.2026 18:23 21,7 °C 3,9 °C 49 % 91 % 1016,3 hPa 0,0 l/m² 0,0 km/h (0 Bft) N 0 ° 0 min 0 W/m² 2,6 °C 3,9 °C 0,0 km/h (0 Bft)
14.01.2026 18:24 21,7 °C 3,9 °C 49 % 91 % 1016,1 hPa 0,0 l/m² 0,0 km/h (0 Bft) N 0 ° 0 min 0 W/m² 2,6 °C 3,9 °C 0,0 km/h (0 Bft)
14.01.2026 18:25 21,7 °C 3,9 °C 49 % 91 % 1016,2 hPa 0,0 l/m² 0,0 km/h (0 Bft) N 0 ° 0 min 0 W/m² 2,6 °C 3,9 °C 0,0 km/h (0 Bft)
14.01.2026 18:26 21,7 °C 3,9 °C 49 % 91 % 1016,1 hPa 0,0 l/m² 0,0 km/h (0 Bft) N 0 ° 0 min 0 W/m² 2,6 °C 3,9 °C 0,0 km/h (0 Bft)
14.01.2026 18:27 21,7 °C 3,9 °C 49 % 91 % 1016,2 hPa 0,0 l/m² 0,0 km/h (0 Bft) N 0 ° 0 min 0 W/m² 2,6 °C 3,9 °C 0,0 km/h (0 Bft)
14.01.2026 18:28 21,7 °C 3,9 °C 49 % 91 % 1016,2 hPa 0,0 l/m² 0,0 km/h (0 Bft) N 0 ° 0 min 0 W/m² 2,6 °C 3,9 °C 0,0 km/h (0 Bft)
14.01.2026 18:29 21,7 °C 3,9 °C 49 % 91 % 1016,3 hPa 0,0 l/m² 0,0 km/h (0 Bft) N 0 ° 0 min 0 W/m² 2,6 °C 3,9 °C 0,0 km/h (0 Bft)
14.01.2026 18:30 21,7 °C 3,9 °C 49 % 91 % 1016,2 hPa 0,0 l/m² 0,0 km/h (0 Bft) N 0 ° 0 min 0 W/m² 2,6 °C 3,9 °C 0,0 km/h (0 Bft)
14.01.2026 18:31 21,7 °C 3,9 °C 49 % 91 % 1016,2 hPa 0,0 l/m² 0,0 km/h (0 Bft) N 0 ° 0 min 0 W/m² 2,6 °C 3,9 °C 0,0 km/h (0 Bft)
14.01.2026 18:32 21,7 °C 3,8 °C 50 % 91 % 1016,2 hPa 0,0 l/m² 0,0 km/h (0 Bft) N 0 ° 0 min 0 W/m² 2,5 °C 3,8 °C 0,0 km/h (0 Bft)
14.01.2026 18:33 21,7 °C 3,8 °C 50 % 91 % 1016,2 hPa 0,0 l/m² 0,0 km/h (0 Bft) N 0 ° 0 min 0 W/m² 2,5 °C 3,8 °C 0,0 km/h (0 Bft)
14.01.2026 18:34 21,7 °C 3,8 °C 50 % 91 % 1016,2 hPa 0,0 l/m² 0,0 km/h (0 Bft) N 0 ° 0 min 0 W/m² 2,5 °C 3,8 °C 0,0 km/h (0 Bft)
14.01.2026 18:35 21,7 °C 3,8 °C 50 % 91 % 1016,2 hPa 0,0 l/m² 0,0 km/h (0 Bft) N 0 ° 0 min 0 W/m² 2,5 °C 3,8 °C 0,0 km/h (0 Bft)
14.01.2026 18:36 21,7 °C 3,8 °C 50 % 91 % 1016,2 hPa 0,0 l/m² 0,0 km/h (0 Bft) N 0 ° 0 min 0 W/m² 2,5 °C 3,8 °C 0,0 km/h (0 Bft)
14.01.2026 18:37 21,7 °C 3,8 °C 50 % 91 % 1016,2 hPa 0,0 l/m² 0,0 km/h (0 Bft) N 0 ° 0 min 0 W/m² 2,5 °C 3,8 °C 0,0 km/h (0 Bft)
14.01.2026 18:38 21,7 °C 3,8 °C 50 % 91 % 1016,1 hPa 0,0 l/m² 0,0 km/h (0 Bft) N 0 ° 0 min 0 W/m² 2,5 °C 3,8 °C 0,0 km/h (0 Bft)
14.01.2026 18:39 21,7 °C 3,8 °C 50 % 91 % 1016,1 hPa 0,0 l/m² 0,0 km/h (0 Bft) N 0 ° 0 min 0 W/m² 2,5 °C 3,8 °C 0,0 km/h (0 Bft)
14.01.2026 18:40 21,7 °C 3,8 °C 50 % 91 % 1016,1 hPa 0,0 l/m² 0,0 km/h (0 Bft) N 0 ° 0 min 0 W/m² 2,5 °C 3,8 °C 0,0 km/h (0 Bft)
14.01.2026 18:41 21,7 °C 3,8 °C 50 % 91 % 1016,1 hPa 0,0 l/m² 0,0 km/h (0 Bft) N 0 ° 0 min 0 W/m² 2,5 °C 3,8 °C 0,0 km/h (0 Bft)
14.01.2026 18:42 21,7 °C 3,7 °C 50 % 91 % 1016,2 hPa 0,0 l/m² 0,0 km/h (0 Bft) N 0 ° 0 min 0 W/m² 2,4 °C 3,7 °C 0,0 km/h (0 Bft)
14.01.2026 18:43 21,7 °C 3,7 °C 50 % 91 % 1016,2 hPa 0,0 l/m² 0,0 km/h (0 Bft) N 0 ° 0 min 0 W/m² 2,4 °C 3,7 °C 0,0 km/h (0 Bft)
14.01.2026 18:44 21,7 °C 3,7 °C 50 % 91 % 1016,1 hPa 0,0 l/m² 0,0 km/h (0 Bft) N 0 ° 0 min 0 W/m² 2,4 °C 3,7 °C 0,0 km/h (0 Bft)
14.01.2026 18:45 21,8 °C 3,7 °C 50 % 91 % 1016,2 hPa 0,0 l/m² 0,0 km/h (0 Bft) N 0 ° 0 min 0 W/m² 2,4 °C 3,7 °C 0,0 km/h (0 Bft)
14.01.2026 18:46 21,7 °C 3,6 °C 50 % 91 % 1016,2 hPa 0,0 l/m² 0,0 km/h (0 Bft) N 0 ° 0 min 0 W/m² 2,3 °C 3,6 °C 0,0 km/h (0 Bft)
14.01.2026 18:47 21,7 °C 3,6 °C 50 % 91 % 1016,2 hPa 0,0 l/m² 0,0 km/h (0 Bft) N 0 ° 0 min 0 W/m² 2,3 °C 3,6 °C 0,0 km/h (0 Bft)
14.01.2026 18:48 21,7 °C 3,6 °C 50 % 91 % 1016,2 hPa 0,0 l/m² 0,0 km/h (0 Bft) N 0 ° 0 min 0 W/m² 2,3 °C 3,6 °C 0,0 km/h (0 Bft)
14.01.2026 18:49 21,8 °C 3,6 °C 50 % 91 % 1016,2 hPa 0,0 l/m² 0,0 km/h (0 Bft) N 0 ° 0 min 0 W/m² 2,3 °C 3,6 °C 0,0 km/h (0 Bft)
14.01.2026 18:50 21,8 °C 3,6 °C 50 % 91 % 1016,1 hPa 0,0 l/m² 0,0 km/h (0 Bft) N 0 ° 0 min 0 W/m² 2,3 °C 3,6 °C 0,0 km/h (0 Bft)
14.01.2026 18:51 21,7 °C 3,6 °C 50 % 91 % 1016,0 hPa 0,0 l/m² 0,0 km/h (0 Bft) N 0 ° 0 min 0 W/m² 2,3 °C 3,6 °C 0,0 km/h (0 Bft)
14.01.2026 18:52 21,7 °C 3,5 °C 50 % 91 % 1016,2 hPa 0,0 l/m² 0,0 km/h (0 Bft) N 0 ° 0 min 0 W/m² 2,2 °C 3,5 °C 0,0 km/h (0 Bft)
14.01.2026 18:53 21,7 °C 3,6 °C 50 % 91 % 1016,1 hPa 0,0 l/m² 0,0 km/h (0 Bft) N 0 ° 0 min 0 W/m² 2,3 °C 3,6 °C 0,0 km/h (0 Bft)
14.01.2026 18:54 21,7 °C 3,5 °C 50 % 91 % 1016,1 hPa 0,0 l/m² 0,0 km/h (0 Bft) N 0 ° 0 min 0 W/m² 2,2 °C 3,5 °C 0,0 km/h (0 Bft)
14.01.2026 18:55 21,7 °C 3,4 °C 50 % 91 % 1016,2 hPa 0,0 l/m² 0,0 km/h (0 Bft) N 0 ° 0 min 0 W/m² 2,1 °C 3,4 °C 0,0 km/h (0 Bft)
14.01.2026 18:56 21,7 °C 3,4 °C 50 % 91 % 1016,2 hPa 0,0 l/m² 0,0 km/h (0 Bft) N 0 ° 0 min 0 W/m² 2,1 °C 3,4 °C 0,0 km/h (0 Bft)
14.01.2026 18:57 21,8 °C 3,4 °C 50 % 91 % 1016,2 hPa 0,0 l/m² 0,0 km/h (0 Bft) N 0 ° 0 min 0 W/m² 2,1 °C 3,4 °C 0,0 km/h (0 Bft)
14.01.2026 18:58 21,8 °C 3,4 °C 50 % 91 % 1016,2 hPa 0,0 l/m² 0,0 km/h (0 Bft) N 0 ° 0 min 0 W/m² 2,1 °C 3,4 °C 0,0 km/h (0 Bft)
14.01.2026 18:59 21,7 °C 3,4 °C 50 % 91 % 1016,2 hPa 0,0 l/m² 0,0 km/h (0 Bft) N 0 ° 0 min 0 W/m² 2,1 °C 3,4 °C 0,0 km/h (0 Bft)
14.01.2026 19:00 21,8 °C 3,4 °C 50 % 91 % 1016,2 hPa 0,0 l/m² 0,0 km/h (0 Bft) N 0 ° 0 min 0 W/m² 2,1 °C 3,4 °C 0,0 km/h (0 Bft)
14.01.2026 19:01 21,7 °C 3,4 °C 50 % 91 % 1016,3 hPa 0,0 l/m² 0,0 km/h (0 Bft) N 0 ° 0 min 0 W/m² 2,1 °C 3,4 °C 0,0 km/h (0 Bft)
14.01.2026 19:02 21,8 °C 3,4 °C 50 % 91 % 1016,2 hPa 0,0 l/m² 0,0 km/h (0 Bft) N 0 ° 0 min 0 W/m² 2,1 °C 3,4 °C 0,0 km/h (0 Bft)
14.01.2026 19:03 21,8 °C 3,4 °C 50 % 91 % 1016,2 hPa 0,0 l/m² 0,0 km/h (0 Bft) N 0 ° 0 min 0 W/m² 2,1 °C 3,4 °C 0,0 km/h (0 Bft)
14.01.2026 19:04 21,8 °C 3,4 °C 50 % 91 % 1016,1 hPa 0,0 l/m² 0,0 km/h (0 Bft) N 0 ° 0 min 0 W/m² 2,1 °C 3,4 °C 0,0 km/h (0 Bft)
14.01.2026 19:05 21,8 °C 3,4 °C 50 % 91 % 1016,1 hPa 0,0 l/m² 0,0 km/h (0 Bft) N 0 ° 0 min 0 W/m² 2,1 °C 3,4 °C 0,0 km/h (0 Bft)
14.01.2026 19:06 21,8 °C 3,4 °C 50 % 91 % 1016,1 hPa 0,0 l/m² 0,0 km/h (0 Bft) N 0 ° 0 min 0 W/m² 2,1 °C 3,4 °C 0,0 km/h (0 Bft)
14.01.2026 19:07 21,8 °C 3,4 °C 50 % 91 % 1016,1 hPa 0,0 l/m² 0,0 km/h (0 Bft) N 0 ° 0 min 0 W/m² 2,1 °C 3,4 °C 0,0 km/h (0 Bft)
14.01.2026 19:08 21,8 °C 3,3 °C 50 % 91 % 1016,1 hPa 0,0 l/m² 0,0 km/h (0 Bft) N 0 ° 0 min 0 W/m² 2,0 °C 3,3 °C 0,0 km/h (0 Bft)
14.01.2026 19:09 21,7 °C 3,3 °C 50 % 91 % 1016,1 hPa 0,0 l/m² 0,0 km/h (0 Bft) N 0 ° 0 min 0 W/m² 2,0 °C 3,3 °C 0,0 km/h (0 Bft)
14.01.2026 19:10 21,8 °C 3,3 °C 50 % 91 % 1016,1 hPa 0,0 l/m² 0,0 km/h (0 Bft) N 0 ° 0 min 0 W/m² 2,0 °C 3,3 °C 0,0 km/h (0 Bft)
14.01.2026 19:11 21,8 °C 3,3 °C 50 % 91 % 1016,1 hPa 0,0 l/m² 0,0 km/h (0 Bft) N 0 ° 0 min 0 W/m² 2,0 °C 3,3 °C 0,0 km/h (0 Bft)
14.01.2026 19:12 21,8 °C 3,3 °C 50 % 91 % 1016,1 hPa 0,0 l/m² 0,0 km/h (0 Bft) N 0 ° 0 min 0 W/m² 2,0 °C 3,3 °C 0,0 km/h (0 Bft)
14.01.2026 19:13 21,8 °C 3,3 °C 50 % 91 % 1016,2 hPa 0,0 l/m² 0,0 km/h (0 Bft) N 0 ° 0 min 0 W/m² 2,0 °C 3,3 °C 0,0 km/h (0 Bft)
14.01.2026 19:14 21,8 °C 3,3 °C 50 % 91 % 1016,2 hPa 0,0 l/m² 0,0 km/h (0 Bft) N 0 ° 0 min 0 W/m² 2,0 °C 3,3 °C 0,0 km/h (0 Bft)
14.01.2026 19:15 21,7 °C 3,4 °C 50 % 91 % 1016,2 hPa 0,0 l/m² 0,0 km/h (0 Bft) N 0 ° 0 min 0 W/m² 2,1 °C 3,4 °C 0,0 km/h (0 Bft)
14.01.2026 19:16 21,8 °C 3,4 °C 50 % 91 % 1016,2 hPa 0,0 l/m² 0,0 km/h (0 Bft) N 0 ° 0 min 0 W/m² 2,1 °C 3,4 °C 0,0 km/h (0 Bft)
14.01.2026 19:17 21,8 °C 3,3 °C 50 % 91 % 1016,2 hPa 0,0 l/m² 0,0 km/h (0 Bft) N 0 ° 0 min 0 W/m² 2,0 °C 3,3 °C 0,0 km/h (0 Bft)
14.01.2026 19:18 21,7 °C 3,3 °C 50 % 91 % 1016,2 hPa 0,0 l/m² 0,0 km/h (0 Bft) N 0 ° 0 min 0 W/m² 2,0 °C 3,3 °C 0,0 km/h (0 Bft)
14.01.2026 19:19 21,7 °C 3,3 °C 50 % 91 % 1016,2 hPa 0,0 l/m² 0,0 km/h (0 Bft) N 0 ° 0 min 0 W/m² 2,0 °C 3,3 °C 0,0 km/h (0 Bft)
14.01.2026 19:20 21,7 °C 3,4 °C 50 % 91 % 1016,2 hPa 0,0 l/m² 0,0 km/h (0 Bft) N 0 ° 0 min 0 W/m² 2,1 °C 3,4 °C 0,0 km/h (0 Bft)
14.01.2026 19:21 21,7 °C 3,3 °C 50 % 91 % 1016,2 hPa 0,0 l/m² 0,0 km/h (0 Bft) N 0 ° 0 min 0 W/m² 2,0 °C 3,3 °C 0,0 km/h (0 Bft)
14.01.2026 19:22 21,7 °C 3,3 °C 50 % 91 % 1016,3 hPa 0,0 l/m² 0,0 km/h (0 Bft) N 0 ° 0 min 0 W/m² 2,0 °C 3,3 °C 0,0 km/h (0 Bft)
14.01.2026 19:23 21,7 °C 3,3 °C 50 % 91 % 1016,2 hPa 0,0 l/m² 0,0 km/h (0 Bft) N 0 ° 0 min 0 W/m² 2,0 °C 3,3 °C 0,0 km/h (0 Bft)
14.01.2026 19:24 21,7 °C 3,4 °C 50 % 91 % 1016,3 hPa 0,0 l/m² 0,0 km/h (0 Bft) N 0 ° 0 min 0 W/m² 2,1 °C 3,4 °C 0,0 km/h (0 Bft)
14.01.2026 19:25 21,7 °C 3,3 °C 50 % 91 % 1016,2 hPa 0,0 l/m² 0,0 km/h (0 Bft) N 0 ° 0 min 0 W/m² 2,0 °C 3,3 °C 0,0 km/h (0 Bft)
14.01.2026 19:26 21,7 °C 3,4 °C 50 % 91 % 1016,3 hPa 0,0 l/m² 0,0 km/h (0 Bft) N 0 ° 0 min 0 W/m² 2,1 °C 3,4 °C 0,0 km/h (0 Bft)
14.01.2026 19:27 21,8 °C 3,4 °C 50 % 91 % 1016,2 hPa 0,0 l/m² 0,0 km/h (0 Bft) N 0 ° 0 min 0 W/m² 2,1 °C 3,4 °C 0,0 km/h (0 Bft)
14.01.2026 19:28 21,7 °C 3,4 °C 50 % 91 % 1016,2 hPa 0,0 l/m² 0,0 km/h (0 Bft) N 0 ° 0 min 0 W/m² 2,1 °C 3,4 °C 0,0 km/h (0 Bft)
14.01.2026 19:29 21,7 °C 3,4 °C 50 % 91 % 1016,3 hPa 0,0 l/m² 0,0 km/h (0 Bft) N 0 ° 0 min 0 W/m² 2,1 °C 3,4 °C 0,0 km/h (0 Bft)
14.01.2026 19:30 21,7 °C 3,3 °C 50 % 91 % 1016,2 hPa 0,0 l/m² 0,0 km/h (0 Bft) N 0 ° 0 min 0 W/m² 2,0 °C 3,3 °C 0,0 km/h (0 Bft)
14.01.2026 19:31 21,7 °C 3,4 °C 50 % 91 % 1016,2 hPa 0,0 l/m² 0,0 km/h (0 Bft) N 0 ° 0 min 0 W/m² 2,1 °C 3,4 °C 0,0 km/h (0 Bft)
14.01.2026 19:32 21,7 °C 3,4 °C 50 % 91 % 1016,3 hPa 0,0 l/m² 0,0 km/h (0 Bft) N 0 ° 0 min 0 W/m² 2,1 °C 3,4 °C 0,0 km/h (0 Bft)
14.01.2026 19:33 21,7 °C 3,4 °C 50 % 91 % 1016,2 hPa 0,0 l/m² 0,0 km/h (0 Bft) N 0 ° 0 min 0 W/m² 2,1 °C 3,4 °C 0,0 km/h (0 Bft)
14.01.2026 19:34 21,7 °C 3,4 °C 50 % 91 % 1016,3 hPa 0,0 l/m² 0,0 km/h (0 Bft) N 0 ° 0 min 0 W/m² 2,1 °C 3,4 °C 0,0 km/h (0 Bft)
14.01.2026 19:35 21,7 °C 3,4 °C 50 % 91 % 1016,2 hPa 0,0 l/m² 0,0 km/h (0 Bft) N 0 ° 0 min 0 W/m² 2,1 °C 3,4 °C 0,0 km/h (0 Bft)
14.01.2026 19:36 21,7 °C 3,4 °C 50 % 91 % 1016,2 hPa 0,0 l/m² 0,0 km/h (0 Bft) N 0 ° 0 min 0 W/m² 2,1 °C 3,4 °C 0,0 km/h (0 Bft)
14.01.2026 19:37 21,7 °C 3,4 °C 50 % 91 % 1016,3 hPa 0,0 l/m² 0,0 km/h (0 Bft) N 0 ° 0 min 0 W/m² 2,1 °C 3,4 °C 0,0 km/h (0 Bft)
14.01.2026 19:38 21,7 °C 3,4 °C 50 % 91 % 1016,3 hPa 0,0 l/m² 0,0 km/h (0 Bft) N 0 ° 0 min 0 W/m² 2,1 °C 3,4 °C 0,0 km/h (0 Bft)
14.01.2026 19:39 21,7 °C 3,4 °C 50 % 91 % 1016,3 hPa 0,0 l/m² 0,0 km/h (0 Bft) N 0 ° 0 min 0 W/m² 2,1 °C 3,4 °C 0,0 km/h (0 Bft)
14.01.2026 19:40 21,7 °C 3,3 °C 50 % 91 % 1016,4 hPa 0,0 l/m² 0,0 km/h (0 Bft) N 0 ° 0 min 0 W/m² 2,0 °C 3,3 °C 0,0 km/h (0 Bft)
14.01.2026 19:41 21,7 °C 3,4 °C 50 % 91 % 1016,3 hPa 0,0 l/m² 0,0 km/h (0 Bft) N 0 ° 0 min 0 W/m² 2,1 °C 3,4 °C 0,0 km/h (0 Bft)
14.01.2026 19:42 21,7 °C 3,3 °C 50 % 91 % 1016,4 hPa 0,0 l/m² 0,0 km/h (0 Bft) N 0 ° 0 min 0 W/m² 2,0 °C 3,3 °C 0,0 km/h (0 Bft)
14.01.2026 19:43 21,7 °C 3,3 °C 50 % 91 % 1016,4 hPa 0,0 l/m² 0,0 km/h (0 Bft) N 0 ° 0 min 0 W/m² 2,0 °C 3,3 °C 0,0 km/h (0 Bft)
14.01.2026 19:44 21,7 °C 3,3 °C 50 % 91 % 1016,3 hPa 0,0 l/m² 0,0 km/h (0 Bft) N 0 ° 0 min 0 W/m² 2,0 °C 3,3 °C 0,0 km/h (0 Bft)
14.01.2026 19:45 21,7 °C 3,3 °C 50 % 91 % 1016,4 hPa 0,0 l/m² 0,0 km/h (0 Bft) N 0 ° 0 min 0 W/m² 2,0 °C 3,3 °C 0,0 km/h (0 Bft)
14.01.2026 19:46 21,7 °C 3,3 °C 50 % 91 % 1016,3 hPa 0,0 l/m² 0,0 km/h (0 Bft) N 0 ° 0 min 0 W/m² 2,0 °C 3,3 °C 0,0 km/h (0 Bft)
14.01.2026 19:47 21,7 °C 3,3 °C 50 % 91 % 1016,3 hPa 0,0 l/m² 0,0 km/h (0 Bft) N 0 ° 0 min 0 W/m² 2,0 °C 3,3 °C 0,0 km/h (0 Bft)
14.01.2026 19:48 21,7 °C 3,3 °C 50 % 91 % 1016,3 hPa 0,0 l/m² 0,0 km/h (0 Bft) N 0 ° 0 min 0 W/m² 2,0 °C 3,3 °C 0,0 km/h (0 Bft)
14.01.2026 19:49 21,7 °C 3,3 °C 50 % 91 % 1016,3 hPa 0,0 l/m² 0,0 km/h (0 Bft) N 0 ° 0 min 0 W/m² 2,0 °C 3,3 °C 0,0 km/h (0 Bft)
14.01.2026 19:50 21,7 °C 3,3 °C 50 % 91 % 1016,4 hPa 0,0 l/m² 0,0 km/h (0 Bft) N 0 ° 0 min 0 W/m² 2,0 °C 3,3 °C 0,0 km/h (0 Bft)
14.01.2026 19:51 21,7 °C 3,3 °C 50 % 91 % 1016,3 hPa 0,0 l/m² 0,0 km/h (0 Bft) N 0 ° 0 min 0 W/m² 2,0 °C 3,3 °C 0,0 km/h (0 Bft)
14.01.2026 19:52 21,7 °C 3,3 °C 50 % 91 % 1016,3 hPa 0,0 l/m² 0,0 km/h (0 Bft) N 0 ° 0 min 0 W/m² 2,0 °C 3,3 °C 0,0 km/h (0 Bft)
14.01.2026 19:53 21,7 °C 3,3 °C 50 % 91 % 1016,3 hPa 0,0 l/m² 0,0 km/h (0 Bft) N 0 ° 0 min 0 W/m² 2,0 °C 3,3 °C 0,0 km/h (0 Bft)
14.01.2026 19:54 21,7 °C 3,2 °C 50 % 91 % 1016,3 hPa 0,0 l/m² 0,0 km/h (0 Bft) N 0 ° 0 min 0 W/m² 1,9 °C 3,2 °C 0,0 km/h (0 Bft)
14.01.2026 19:55 21,7 °C 3,2 °C 50 % 91 % 1016,3 hPa 0,0 l/m² 0,0 km/h (0 Bft) N 0 ° 0 min 0 W/m² 1,9 °C 3,2 °C 0,0 km/h (0 Bft)
14.01.2026 19:56 21,7 °C 3,2 °C 50 % 91 % 1016,4 hPa 0,0 l/m² 0,0 km/h (0 Bft) N 0 ° 0 min 0 W/m² 1,9 °C 3,2 °C 0,0 km/h (0 Bft)
14.01.2026 19:57 21,7 °C 3,2 °C 50 % 91 % 1016,3 hPa 0,0 l/m² 0,0 km/h (0 Bft) N 0 ° 0 min 0 W/m² 1,9 °C 3,2 °C 0,0 km/h (0 Bft)
14.01.2026 19:58 21,8 °C 3,2 °C 50 % 91 % 1016,3 hPa 0,0 l/m² 0,0 km/h (0 Bft) N 0 ° 0 min 0 W/m² 1,9 °C 3,2 °C 0,0 km/h (0 Bft)
14.01.2026 19:59 21,7 °C 3,2 °C 50 % 91 % 1016,3 hPa 0,0 l/m² 0,0 km/h (0 Bft) N 0 ° 0 min 0 W/m² 1,9 °C 3,2 °C 0,0 km/h (0 Bft)
14.01.2026 20:00 21,8 °C 3,2 °C 50 % 91 % 1016,3 hPa 0,0 l/m² 0,0 km/h (0 Bft) N 0 ° 0 min 0 W/m² 1,9 °C 3,2 °C 0,0 km/h (0 Bft)
14.01.2026 20:01 21,8 °C 3,2 °C 50 % 91 % 1016,3 hPa 0,0 l/m² 0,0 km/h (0 Bft) N 0 ° 0 min 0 W/m² 1,9 °C 3,2 °C 0,0 km/h (0 Bft)
14.01.2026 20:02 21,8 °C 3,2 °C 50 % 91 % 1016,4 hPa 0,0 l/m² 0,0 km/h (0 Bft) N 0 ° 0 min 0 W/m² 1,9 °C 3,2 °C 0,0 km/h (0 Bft)
14.01.2026 20:03 21,8 °C 3,2 °C 50 % 91 % 1016,4 hPa 0,0 l/m² 0,0 km/h (0 Bft) N 0 ° 0 min 0 W/m² 1,9 °C 3,2 °C 0,0 km/h (0 Bft)
14.01.2026 20:04 21,8 °C 3,1 °C 50 % 91 % 1016,4 hPa 0,0 l/m² 0,0 km/h (0 Bft) N 0 ° 0 min 0 W/m² 1,8 °C 3,1 °C 0,0 km/h (0 Bft)
14.01.2026 20:05 21,8 °C 3,1 °C 50 % 91 % 1016,4 hPa 0,0 l/m² 0,0 km/h (0 Bft) N 0 ° 0 min 0 W/m² 1,8 °C 3,1 °C 0,0 km/h (0 Bft)
14.01.2026 20:06 21,8 °C 3,1 °C 50 % 91 % 1016,4 hPa 0,0 l/m² 0,0 km/h (0 Bft) N 0 ° 0 min 0 W/m² 1,8 °C 3,1 °C 0,0 km/h (0 Bft)
14.01.2026 20:07 21,8 °C 3,1 °C 51 % 91 % 1016,4 hPa 0,0 l/m² 0,0 km/h (0 Bft) N 0 ° 0 min 0 W/m² 1,8 °C 3,1 °C 0,0 km/h (0 Bft)
14.01.2026 20:08 21,8 °C 3,1 °C 51 % 91 % 1016,4 hPa 0,0 l/m² 0,0 km/h (0 Bft) N 0 ° 0 min 0 W/m² 1,8 °C 3,1 °C 0,0 km/h (0 Bft)
14.01.2026 20:09 21,8 °C 3,1 °C 51 % 91 % 1016,4 hPa 0,0 l/m² 0,0 km/h (0 Bft) N 0 ° 0 min 0 W/m² 1,8 °C 3,1 °C 0,0 km/h (0 Bft)
14.01.2026 20:10 21,8 °C 3,1 °C 51 % 91 % 1016,4 hPa 0,0 l/m² 0,0 km/h (0 Bft) N 0 ° 0 min 0 W/m² 1,8 °C 3,1 °C 0,0 km/h (0 Bft)
14.01.2026 20:11 21,8 °C 3,1 °C 51 % 91 % 1016,4 hPa 0,0 l/m² 0,0 km/h (0 Bft) N 0 ° 0 min 0 W/m² 1,8 °C 3,1 °C 0,0 km/h (0 Bft)
14.01.2026 20:12 21,8 °C 3,1 °C 51 % 91 % 1016,4 hPa 0,0 l/m² 0,0 km/h (0 Bft) N 0 ° 0 min 0 W/m² 1,8 °C 3,1 °C 0,0 km/h (0 Bft)
14.01.2026 20:13 21,8 °C 3,0 °C 51 % 91 % 1016,4 hPa 0,0 l/m² 0,0 km/h (0 Bft) N 0 ° 0 min 0 W/m² 1,7 °C 3,0 °C 0,0 km/h (0 Bft)
14.01.2026 20:14 21,8 °C 3,1 °C 51 % 92 % 1016,4 hPa 0,0 l/m² 0,0 km/h (0 Bft) N 0 ° 0 min 0 W/m² 1,9 °C 3,1 °C 0,0 km/h (0 Bft)
14.01.2026 20:15 21,8 °C 3,1 °C 51 % 92 % 1016,5 hPa 0,0 l/m² 0,0 km/h (0 Bft) N 0 ° 0 min 0 W/m² 1,9 °C 3,1 °C 0,0 km/h (0 Bft)
14.01.2026 20:16 21,8 °C 3,1 °C 51 % 92 % 1016,4 hPa 0,0 l/m² 0,0 km/h (0 Bft) N 0 ° 0 min 0 W/m² 1,9 °C 3,1 °C 0,0 km/h (0 Bft)
14.01.2026 20:17 21,8 °C 3,1 °C 51 % 92 % 1016,4 hPa 0,0 l/m² 0,0 km/h (0 Bft) N 0 ° 0 min 0 W/m² 1,9 °C 3,1 °C 0,0 km/h (0 Bft)
14.01.2026 20:18 21,8 °C 3,0 °C 51 % 92 % 1016,4 hPa 0,0 l/m² 0,0 km/h (0 Bft) N 0 ° 0 min 0 W/m² 1,8 °C 3,0 °C 0,0 km/h (0 Bft)
14.01.2026 20:19 21,8 °C 3,0 °C 51 % 91 % 1016,4 hPa 0,0 l/m² 0,0 km/h (0 Bft) N 0 ° 0 min 0 W/m² 1,7 °C 3,0 °C 0,0 km/h (0 Bft)
14.01.2026 20:20 21,8 °C 2,9 °C 51 % 91 % 1016,4 hPa 0,0 l/m² 0,0 km/h (0 Bft) N 0 ° 0 min 0 W/m² 1,6 °C 2,9 °C 0,0 km/h (0 Bft)
14.01.2026 20:21 21,8 °C 2,9 °C 51 % 91 % 1016,4 hPa 0,0 l/m² 0,0 km/h (0 Bft) N 0 ° 0 min 0 W/m² 1,6 °C 2,9 °C 0,0 km/h (0 Bft)
14.01.2026 20:22 21,8 °C 2,9 °C 51 % 91 % 1016,4 hPa 0,0 l/m² 0,0 km/h (0 Bft) N 0 ° 0 min 0 W/m² 1,6 °C 2,9 °C 0,0 km/h (0 Bft)
14.01.2026 20:23 21,8 °C 2,9 °C 51 % 91 % 1016,4 hPa 0,0 l/m² 0,0 km/h (0 Bft) N 0 ° 0 min 0 W/m² 1,6 °C 2,9 °C 0,0 km/h (0 Bft)
14.01.2026 20:24 21,8 °C 2,9 °C 51 % 91 % 1016,4 hPa 0,0 l/m² 0,0 km/h (0 Bft) N 0 ° 0 min 0 W/m² 1,6 °C 2,9 °C 0,0 km/h (0 Bft)
14.01.2026 20:25 21,8 °C 2,9 °C 51 % 91 % 1016,4 hPa 0,0 l/m² 0,0 km/h (0 Bft) N 0 ° 0 min 0 W/m² 1,6 °C 2,9 °C 0,0 km/h (0 Bft)
14.01.2026 20:26 21,8 °C 2,9 °C 51 % 91 % 1016,4 hPa 0,0 l/m² 0,0 km/h (0 Bft) N 0 ° 0 min 0 W/m² 1,6 °C 2,9 °C 0,0 km/h (0 Bft)
14.01.2026 20:27 21,8 °C 2,9 °C 51 % 91 % 1016,5 hPa 0,0 l/m² 0,0 km/h (0 Bft) N 0 ° 0 min 0 W/m² 1,6 °C 2,9 °C 0,0 km/h (0 Bft)
14.01.2026 20:28 21,8 °C 2,9 °C 51 % 91 % 1016,5 hPa 0,0 l/m² 0,0 km/h (0 Bft) N 0 ° 0 min 0 W/m² 1,6 °C 2,9 °C 0,0 km/h (0 Bft)
14.01.2026 20:29 21,8 °C 2,8 °C 51 % 91 % 1016,5 hPa 0,0 l/m² 0,0 km/h (0 Bft) N 0 ° 0 min 0 W/m² 1,5 °C 2,8 °C 0,0 km/h (0 Bft)
14.01.2026 20:30 21,8 °C 2,8 °C 51 % 91 % 1016,4 hPa 0,0 l/m² 0,0 km/h (0 Bft) N 0 ° 0 min 0 W/m² 1,5 °C 2,8 °C 0,0 km/h (0 Bft)
14.01.2026 20:31 21,8 °C 2,8 °C 51 % 91 % 1016,5 hPa 0,0 l/m² 0,0 km/h (0 Bft) N 0 ° 0 min 0 W/m² 1,5 °C 2,8 °C 0,0 km/h (0 Bft)
14.01.2026 20:32 21,8 °C 2,8 °C 51 % 91 % 1016,5 hPa 0,0 l/m² 0,0 km/h (0 Bft) N 0 ° 0 min 0 W/m² 1,5 °C 2,8 °C 0,0 km/h (0 Bft)
14.01.2026 20:33 21,8 °C 2,8 °C 51 % 91 % 1016,4 hPa 0,0 l/m² 0,0 km/h (0 Bft) N 0 ° 0 min 0 W/m² 1,5 °C 2,8 °C 0,0 km/h (0 Bft)
14.01.2026 20:34 21,8 °C 2,8 °C 51 % 91 % 1016,5 hPa 0,0 l/m² 0,0 km/h (0 Bft) N 0 ° 0 min 0 W/m² 1,5 °C 2,8 °C 0,0 km/h (0 Bft)
14.01.2026 20:35 21,8 °C 2,8 °C 51 % 91 % 1016,5 hPa 0,0 l/m² 0,0 km/h (0 Bft) N 0 ° 0 min 0 W/m² 1,5 °C 2,8 °C 0,0 km/h (0 Bft)
14.01.2026 20:36 21,8 °C 2,8 °C 51 % 91 % 1016,4 hPa 0,0 l/m² 0,0 km/h (0 Bft) N 0 ° 0 min 0 W/m² 1,5 °C 2,8 °C 0,0 km/h (0 Bft)
14.01.2026 20:37 21,9 °C 2,8 °C 51 % 91 % 1016,5 hPa 0,0 l/m² 0,0 km/h (0 Bft) N 0 ° 0 min 0 W/m² 1,5 °C 2,8 °C 0,0 km/h (0 Bft)
14.01.2026 20:38 21,8 °C 2,8 °C 51 % 91 % 1016,5 hPa 0,0 l/m² 0,0 km/h (0 Bft) N 0 ° 0 min 0 W/m² 1,5 °C 2,8 °C 0,0 km/h (0 Bft)
14.01.2026 20:39 21,8 °C 2,8 °C 51 % 91 % 1016,4 hPa 0,0 l/m² 0,0 km/h (0 Bft) N 0 ° 0 min 0 W/m² 1,5 °C 2,8 °C 0,0 km/h (0 Bft)
14.01.2026 20:40 21,8 °C 2,8 °C 51 % 91 % 1016,4 hPa 0,0 l/m² 0,0 km/h (0 Bft) N 0 ° 0 min 0 W/m² 1,5 °C 2,8 °C 0,0 km/h (0 Bft)
14.01.2026 20:41 21,8 °C 2,8 °C 51 % 92 % 1016,5 hPa 0,0 l/m² 0,0 km/h (0 Bft) N 0 ° 0 min 0 W/m² 1,6 °C 2,8 °C 0,0 km/h (0 Bft)
14.01.2026 20:42 21,8 °C 2,8 °C 51 % 92 % 1016,5 hPa 0,0 l/m² 0,0 km/h (0 Bft) N 0 ° 0 min 0 W/m² 1,6 °C 2,8 °C 0,0 km/h (0 Bft)
14.01.2026 20:43 21,8 °C 2,8 °C 51 % 92 % 1016,5 hPa 0,0 l/m² 0,0 km/h (0 Bft) N 0 ° 0 min 0 W/m² 1,6 °C 2,8 °C 0,0 km/h (0 Bft)
14.01.2026 20:44 21,8 °C 2,8 °C 51 % 92 % 1016,4 hPa 0,0 l/m² 0,0 km/h (0 Bft) N 0 ° 0 min 0 W/m² 1,6 °C 2,8 °C 0,0 km/h (0 Bft)
14.01.2026 20:45 21,8 °C 2,8 °C 51 % 92 % 1016,4 hPa 0,0 l/m² 0,0 km/h (0 Bft) N 0 ° 0 min 0 W/m² 1,6 °C 2,8 °C 0,0 km/h (0 Bft)
14.01.2026 20:46 21,8 °C 2,8 °C 51 % 92 % 1016,4 hPa 0,0 l/m² 0,0 km/h (0 Bft) N 0 ° 0 min 0 W/m² 1,6 °C 2,8 °C 0,0 km/h (0 Bft)
14.01.2026 20:47 21,8 °C 2,8 °C 51 % 92 % 1016,4 hPa 0,0 l/m² 0,0 km/h (0 Bft) N 0 ° 0 min 0 W/m² 1,6 °C 2,8 °C 0,0 km/h (0 Bft)
14.01.2026 20:48 21,9 °C 2,8 °C 51 % 92 % 1016,3 hPa 0,0 l/m² 0,0 km/h (0 Bft) N 0 ° 0 min 0 W/m² 1,6 °C 2,8 °C 0,0 km/h (0 Bft)
14.01.2026 20:49 21,8 °C 2,8 °C 51 % 92 % 1016,4 hPa 0,0 l/m² 0,0 km/h (0 Bft) N 0 ° 0 min 0 W/m² 1,6 °C 2,8 °C 0,0 km/h (0 Bft)
14.01.2026 20:50 21,9 °C 2,8 °C 51 % 92 % 1016,4 hPa 0,0 l/m² 0,0 km/h (0 Bft) N 0 ° 0 min 0 W/m² 1,6 °C 2,8 °C 0,0 km/h (0 Bft)
14.01.2026 20:51 21,8 °C 2,8 °C 51 % 92 % 1016,4 hPa 0,0 l/m² 0,0 km/h (0 Bft) N 0 ° 0 min 0 W/m² 1,6 °C 2,8 °C 0,0 km/h (0 Bft)
14.01.2026 20:52 21,9 °C 2,8 °C 51 % 92 % 1016,4 hPa 0,0 l/m² 0,0 km/h (0 Bft) N 0 ° 0 min 0 W/m² 1,6 °C 2,8 °C 0,0 km/h (0 Bft)
14.01.2026 20:53 21,8 °C 2,8 °C 51 % 92 % 1016,4 hPa 0,0 l/m² 0,0 km/h (0 Bft) N 0 ° 0 min 0 W/m² 1,6 °C 2,8 °C 0,0 km/h (0 Bft)
14.01.2026 20:54 21,8 °C 2,8 °C 51 % 92 % 1016,4 hPa 0,0 l/m² 0,0 km/h (0 Bft) N 0 ° 0 min 0 W/m² 1,6 °C 2,8 °C 0,0 km/h (0 Bft)
14.01.2026 20:55 21,8 °C 2,8 °C 51 % 92 % 1016,4 hPa 0,0 l/m² 0,0 km/h (0 Bft) N 0 ° 0 min 0 W/m² 1,6 °C 2,8 °C 0,0 km/h (0 Bft)
14.01.2026 20:56 21,8 °C 2,7 °C 51 % 92 % 1016,4 hPa 0,0 l/m² 0,0 km/h (0 Bft) N 0 ° 0 min 0 W/m² 1,5 °C 2,7 °C 0,0 km/h (0 Bft)
14.01.2026 20:57 21,9 °C 2,7 °C 51 % 92 % 1016,5 hPa 0,0 l/m² 0,0 km/h (0 Bft) N 0 ° 0 min 0 W/m² 1,5 °C 2,7 °C 0,0 km/h (0 Bft)
14.01.2026 20:58 21,9 °C 2,8 °C 51 % 92 % 1016,5 hPa 0,0 l/m² 0,0 km/h (0 Bft) N 0 ° 0 min 0 W/m² 1,6 °C 2,8 °C 0,0 km/h (0 Bft)
14.01.2026 20:59 21,8 °C 2,8 °C 51 % 92 % 1016,5 hPa 0,0 l/m² 0,0 km/h (0 Bft) N 0 ° 0 min 0 W/m² 1,6 °C 2,8 °C 0,0 km/h (0 Bft)
14.01.2026 21:00 21,9 °C 2,7 °C 51 % 92 % 1016,5 hPa 0,0 l/m² 0,0 km/h (0 Bft) N 0 ° 0 min 0 W/m² 1,5 °C 2,7 °C 0,0 km/h (0 Bft)
14.01.2026 21:01 21,9 °C 2,8 °C 51 % 92 % 1016,5 hPa 0,0 l/m² 0,0 km/h (0 Bft) N 0 ° 0 min 0 W/m² 1,6 °C 2,8 °C 0,0 km/h (0 Bft)
14.01.2026 21:02 21,9 °C 2,7 °C 51 % 92 % 1016,5 hPa 0,0 l/m² 0,0 km/h (0 Bft) N 0 ° 0 min 0 W/m² 1,5 °C 2,7 °C 0,0 km/h (0 Bft)
14.01.2026 21:03 21,8 °C 2,7 °C 51 % 92 % 1016,5 hPa 0,0 l/m² 0,0 km/h (0 Bft) N 0 ° 0 min 0 W/m² 1,5 °C 2,7 °C 0,0 km/h (0 Bft)
14.01.2026 21:04 21,9 °C 2,7 °C 51 % 92 % 1016,5 hPa 0,0 l/m² 0,0 km/h (0 Bft) N 0 ° 0 min 0 W/m² 1,5 °C 2,7 °C 0,0 km/h (0 Bft)
14.01.2026 21:05 21,8 °C 2,7 °C 51 % 92 % 1016,5 hPa 0,0 l/m² 0,0 km/h (0 Bft) N 0 ° 0 min 0 W/m² 1,5 °C 2,7 °C 0,0 km/h (0 Bft)
14.01.2026 21:06 21,8 °C 2,7 °C 51 % 92 % 1016,5 hPa 0,0 l/m² 0,0 km/h (0 Bft) N 0 ° 0 min 0 W/m² 1,5 °C 2,7 °C 0,0 km/h (0 Bft)
14.01.2026 21:07 21,8 °C 2,7 °C 51 % 92 % 1016,5 hPa 0,0 l/m² 0,0 km/h (0 Bft) N 0 ° 0 min 0 W/m² 1,5 °C 2,7 °C 0,0 km/h (0 Bft)
14.01.2026 21:08 21,9 °C 2,7 °C 51 % 92 % 1016,5 hPa 0,0 l/m² 0,0 km/h (0 Bft) N 0 ° 0 min 0 W/m² 1,5 °C 2,7 °C 0,0 km/h (0 Bft)
14.01.2026 21:09 21,9 °C 2,7 °C 51 % 92 % 1016,6 hPa 0,0 l/m² 0,0 km/h (0 Bft) N 0 ° 0 min 0 W/m² 1,5 °C 2,7 °C 0,0 km/h (0 Bft)
14.01.2026 21:10 21,8 °C 2,7 °C 51 % 92 % 1016,5 hPa 0,0 l/m² 0,0 km/h (0 Bft) N 0 ° 0 min 0 W/m² 1,5 °C 2,7 °C 0,0 km/h (0 Bft)
14.01.2026 21:11 21,9 °C 2,7 °C 51 % 92 % 1016,6 hPa 0,0 l/m² 0,0 km/h (0 Bft) N 0 ° 0 min 0 W/m² 1,5 °C 2,7 °C 0,0 km/h (0 Bft)
14.01.2026 21:12 21,9 °C 2,7 °C 51 % 92 % 1016,5 hPa 0,0 l/m² 0,0 km/h (0 Bft) N 0 ° 0 min 0 W/m² 1,5 °C 2,7 °C 0,0 km/h (0 Bft)
14.01.2026 21:13 21,9 °C 2,7 °C 51 % 92 % 1016,5 hPa 0,0 l/m² 0,0 km/h (0 Bft) N 0 ° 0 min 0 W/m² 1,5 °C 2,7 °C 0,0 km/h (0 Bft)
14.01.2026 21:14 21,9 °C 2,7 °C 51 % 92 % 1016,5 hPa 0,0 l/m² 0,0 km/h (0 Bft) N 0 ° 0 min 0 W/m² 1,5 °C 2,7 °C 0,0 km/h (0 Bft)
14.01.2026 21:15 21,9 °C 2,7 °C 51 % 92 % 1016,5 hPa 0,0 l/m² 0,0 km/h (0 Bft) N 0 ° 0 min 0 W/m² 1,5 °C 2,7 °C 0,0 km/h (0 Bft)
14.01.2026 21:16 21,9 °C 2,6 °C 51 % 92 % 1016,6 hPa 0,0 l/m² 0,0 km/h (0 Bft) N 0 ° 0 min 0 W/m² 1,4 °C 2,6 °C 0,0 km/h (0 Bft)
14.01.2026 21:17 21,9 °C 2,6 °C 51 % 92 % 1016,6 hPa 0,0 l/m² 0,0 km/h (0 Bft) N 0 ° 0 min 0 W/m² 1,4 °C 2,6 °C 0,0 km/h (0 Bft)
14.01.2026 21:18 21,9 °C 2,6 °C 51 % 92 % 1016,6 hPa 0,0 l/m² 0,0 km/h (0 Bft) N 0 ° 0 min 0 W/m² 1,4 °C 2,6 °C 0,0 km/h (0 Bft)
14.01.2026 21:19 21,9 °C 2,6 °C 51 % 92 % 1016,6 hPa 0,0 l/m² 0,0 km/h (0 Bft) N 0 ° 0 min 0 W/m² 1,4 °C 2,6 °C 0,0 km/h (0 Bft)
14.01.2026 21:20 21,9 °C 2,6 °C 51 % 92 % 1016,6 hPa 0,0 l/m² 0,0 km/h (0 Bft) N 0 ° 0 min 0 W/m² 1,4 °C 2,6 °C 0,0 km/h (0 Bft)
14.01.2026 21:21 21,9 °C 2,6 °C 51 % 92 % 1016,6 hPa 0,0 l/m² 0,0 km/h (0 Bft) N 0 ° 0 min 0 W/m² 1,4 °C 2,6 °C 0,0 km/h (0 Bft)
14.01.2026 21:22 21,9 °C 2,6 °C 51 % 92 % 1016,6 hPa 0,0 l/m² 0,0 km/h (0 Bft) N 0 ° 0 min 0 W/m² 1,4 °C 2,6 °C 0,0 km/h (0 Bft)
14.01.2026 21:23 21,9 °C 2,6 °C 51 % 92 % 1016,7 hPa 0,0 l/m² 0,0 km/h (0 Bft) N 0 ° 0 min 0 W/m² 1,4 °C 2,6 °C 0,0 km/h (0 Bft)
14.01.2026 21:24 21,9 °C 2,6 °C 51 % 92 % 1016,6 hPa 0,0 l/m² 0,0 km/h (0 Bft) N 0 ° 0 min 0 W/m² 1,4 °C 2,6 °C 0,0 km/h (0 Bft)
14.01.2026 21:25 21,9 °C 2,5 °C 51 % 92 % 1016,7 hPa 0,0 l/m² 0,0 km/h (0 Bft) N 0 ° 0 min 0 W/m² 1,3 °C 2,5 °C 0,0 km/h (0 Bft)
14.01.2026 21:26 21,9 °C 2,6 °C 51 % 92 % 1016,7 hPa 0,0 l/m² 0,0 km/h (0 Bft) N 0 ° 0 min 0 W/m² 1,4 °C 2,6 °C 0,0 km/h (0 Bft)
14.01.2026 21:27 21,9 °C 2,6 °C 51 % 92 % 1016,7 hPa 0,0 l/m² 0,0 km/h (0 Bft) N 0 ° 0 min 0 W/m² 1,4 °C 2,6 °C 0,0 km/h (0 Bft)
14.01.2026 21:28 21,9 °C 2,6 °C 51 % 92 % 1016,7 hPa 0,0 l/m² 0,0 km/h (0 Bft) N 0 ° 0 min 0 W/m² 1,4 °C 2,6 °C 0,0 km/h (0 Bft)
14.01.2026 21:29 21,9 °C 2,5 °C 51 % 92 % 1016,5 hPa 0,0 l/m² 0,0 km/h (0 Bft) N 0 ° 0 min 0 W/m² 1,3 °C 2,5 °C 0,0 km/h (0 Bft)
14.01.2026 21:30 21,8 °C 2,5 °C 51 % 92 % 1016,6 hPa 0,0 l/m² 0,0 km/h (0 Bft) N 0 ° 0 min 0 W/m² 1,3 °C 2,5 °C 0,0 km/h (0 Bft)
14.01.2026 21:31 21,9 °C 2,5 °C 51 % 92 % 1016,7 hPa 0,0 l/m² 0,0 km/h (0 Bft) N 0 ° 0 min 0 W/m² 1,3 °C 2,5 °C 0,0 km/h (0 Bft)
14.01.2026 21:32 21,9 °C 2,5 °C 51 % 92 % 1016,6 hPa 0,0 l/m² 0,0 km/h (0 Bft) N 0 ° 0 min 0 W/m² 1,3 °C 2,5 °C 0,0 km/h (0 Bft)
14.01.2026 21:33 21,9 °C 2,5 °C 51 % 92 % 1016,7 hPa 0,0 l/m² 0,0 km/h (0 Bft) N 0 ° 0 min 0 W/m² 1,3 °C 2,5 °C 0,0 km/h (0 Bft)
14.01.2026 21:34 21,9 °C 2,5 °C 51 % 92 % 1016,7 hPa 0,0 l/m² 0,0 km/h (0 Bft) N 0 ° 0 min 0 W/m² 1,3 °C 2,5 °C 0,0 km/h (0 Bft)
14.01.2026 21:35 21,9 °C 2,5 °C 51 % 92 % 1016,6 hPa 0,0 l/m² 0,0 km/h (0 Bft) N 0 ° 0 min 0 W/m² 1,3 °C 2,5 °C 0,0 km/h (0 Bft)
14.01.2026 21:36 21,9 °C 2,5 °C 51 % 92 % 1016,7 hPa 0,0 l/m² 0,0 km/h (0 Bft) N 0 ° 0 min 0 W/m² 1,3 °C 2,5 °C 0,0 km/h (0 Bft)
14.01.2026 21:37 21,9 °C 2,5 °C 51 % 92 % 1016,7 hPa 0,0 l/m² 0,0 km/h (0 Bft) N 0 ° 0 min 0 W/m² 1,3 °C 2,5 °C 0,0 km/h (0 Bft)
14.01.2026 21:38 21,9 °C 2,5 °C 51 % 92 % 1016,7 hPa 0,0 l/m² 0,0 km/h (0 Bft) N 0 ° 0 min 0 W/m² 1,3 °C 2,5 °C 0,0 km/h (0 Bft)
14.01.2026 21:39 21,9 °C 2,4 °C 51 % 92 % 1016,8 hPa 0,0 l/m² 0,0 km/h (0 Bft) N 0 ° 0 min 0 W/m² 1,2 °C 2,4 °C 0,0 km/h (0 Bft)
14.01.2026 21:40 21,9 °C 2,5 °C 51 % 92 % 1016,8 hPa 0,0 l/m² 0,0 km/h (0 Bft) N 0 ° 0 min 0 W/m² 1,3 °C 2,5 °C 0,0 km/h (0 Bft)
14.01.2026 21:41 21,9 °C 2,5 °C 51 % 92 % 1016,7 hPa 0,0 l/m² 0,0 km/h (0 Bft) N 0 ° 0 min 0 W/m² 1,3 °C 2,5 °C 0,0 km/h (0 Bft)
14.01.2026 21:42 21,8 °C 2,5 °C 50 % 92 % 1016,7 hPa 0,0 l/m² 0,0 km/h (0 Bft) N 0 ° 0 min 0 W/m² 1,3 °C 2,5 °C 0,0 km/h (0 Bft)
14.01.2026 21:43 21,9 °C 2,5 °C 50 % 92 % 1016,7 hPa 0,0 l/m² 0,0 km/h (0 Bft) N 0 ° 0 min 0 W/m² 1,3 °C 2,5 °C 0,0 km/h (0 Bft)
14.01.2026 21:44 21,8 °C 2,5 °C 50 % 92 % 1016,7 hPa 0,0 l/m² 0,0 km/h (0 Bft) N 0 ° 0 min 0 W/m² 1,3 °C 2,5 °C 0,0 km/h (0 Bft)
14.01.2026 21:45 21,8 °C 2,5 °C 50 % 92 % 1016,7 hPa 0,0 l/m² 0,0 km/h (0 Bft) N 0 ° 0 min 0 W/m² 1,3 °C 2,5 °C 0,0 km/h (0 Bft)
14.01.2026 21:46 21,8 °C 2,5 °C 50 % 92 % 1016,7 hPa 0,0 l/m² 0,0 km/h (0 Bft) N 0 ° 0 min 0 W/m² 1,3 °C 2,5 °C 0,0 km/h (0 Bft)
14.01.2026 21:47 21,8 °C 2,6 °C 50 % 92 % 1016,6 hPa 0,0 l/m² 0,0 km/h (0 Bft) N 0 ° 0 min 0 W/m² 1,4 °C 2,6 °C 0,0 km/h (0 Bft)
14.01.2026 21:48 21,8 °C 2,5 °C 50 % 92 % 1016,7 hPa 0,0 l/m² 0,0 km/h (0 Bft) N 0 ° 0 min 0 W/m² 1,3 °C 2,5 °C 0,0 km/h (0 Bft)
14.01.2026 21:49 21,9 °C 2,5 °C 50 % 92 % 1016,7 hPa 0,0 l/m² 0,0 km/h (0 Bft) N 0 ° 0 min 0 W/m² 1,3 °C 2,5 °C 0,0 km/h (0 Bft)
14.01.2026 21:50 21,8 °C 2,6 °C 50 % 92 % 1016,7 hPa 0,0 l/m² 0,0 km/h (0 Bft) N 0 ° 0 min 0 W/m² 1,4 °C 2,6 °C 0,0 km/h (0 Bft)
14.01.2026 21:51 21,8 °C 2,5 °C 50 % 92 % 1016,8 hPa 0,0 l/m² 0,0 km/h (0 Bft) N 0 ° 0 min 0 W/m² 1,3 °C 2,5 °C 0,0 km/h (0 Bft)
14.01.2026 21:52 21,8 °C 2,5 °C 50 % 92 % 1016,7 hPa 0,0 l/m² 0,0 km/h (0 Bft) N 0 ° 0 min 0 W/m² 1,3 °C 2,5 °C 0,0 km/h (0 Bft)
14.01.2026 21:53 21,8 °C 2,5 °C 50 % 92 % 1016,7 hPa 0,0 l/m² 0,0 km/h (0 Bft) N 0 ° 0 min 0 W/m² 1,3 °C 2,5 °C 0,0 km/h (0 Bft)
14.01.2026 21:54 21,8 °C 2,5 °C 50 % 92 % 1016,8 hPa 0,0 l/m² 0,0 km/h (0 Bft) N 0 ° 0 min 0 W/m² 1,3 °C 2,5 °C 0,0 km/h (0 Bft)
14.01.2026 21:55 21,8 °C 2,5 °C 50 % 92 % 1016,6 hPa 0,0 l/m² 0,0 km/h (0 Bft) N 0 ° 0 min 0 W/m² 1,3 °C 2,5 °C 0,0 km/h (0 Bft)
14.01.2026 21:56 21,8 °C 2,4 °C 50 % 92 % 1016,7 hPa 0,0 l/m² 0,0 km/h (0 Bft) N 0 ° 0 min 0 W/m² 1,2 °C 2,4 °C 0,0 km/h (0 Bft)
14.01.2026 21:57 21,8 °C 2,5 °C 50 % 92 % 1016,7 hPa 0,0 l/m² 0,0 km/h (0 Bft) N 0 ° 0 min 0 W/m² 1,3 °C 2,5 °C 0,0 km/h (0 Bft)
14.01.2026 21:58 21,8 °C 2,4 °C 50 % 92 % 1016,7 hPa 0,0 l/m² 0,0 km/h (0 Bft) N 0 ° 0 min 0 W/m² 1,2 °C 2,4 °C 0,0 km/h (0 Bft)
14.01.2026 21:59 21,8 °C 2,4 °C 50 % 92 % 1016,7 hPa 0,0 l/m² 0,0 km/h (0 Bft) N 0 ° 0 min 0 W/m² 1,2 °C 2,4 °C 0,0 km/h (0 Bft)
14.01.2026 22:00 21,8 °C 2,4 °C 50 % 92 % 1016,7 hPa 0,0 l/m² 0,0 km/h (0 Bft) N 0 ° 0 min 0 W/m² 1,2 °C 2,4 °C 0,0 km/h (0 Bft)
14.01.2026 22:01 21,8 °C 2,4 °C 50 % 92 % 1016,7 hPa 0,0 l/m² 0,0 km/h (0 Bft) N 0 ° 0 min 0 W/m² 1,2 °C 2,4 °C 0,0 km/h (0 Bft)
14.01.2026 22:02 21,8 °C 2,4 °C 50 % 92 % 1016,7 hPa 0,0 l/m² 0,0 km/h (0 Bft) N 0 ° 0 min 0 W/m² 1,2 °C 2,4 °C 0,0 km/h (0 Bft)
14.01.2026 22:03 21,8 °C 2,4 °C 50 % 92 % 1016,8 hPa 0,0 l/m² 0,0 km/h (0 Bft) N 0 ° 0 min 0 W/m² 1,2 °C 2,4 °C 0,0 km/h (0 Bft)
14.01.2026 22:04 21,8 °C 2,4 °C 50 % 92 % 1016,7 hPa 0,0 l/m² 0,0 km/h (0 Bft) N 0 ° 0 min 0 W/m² 1,2 °C 2,4 °C 0,0 km/h (0 Bft)
14.01.2026 22:05 21,8 °C 2,4 °C 50 % 92 % 1016,7 hPa 0,0 l/m² 0,0 km/h (0 Bft) N 0 ° 0 min 0 W/m² 1,2 °C 2,4 °C 0,0 km/h (0 Bft)
14.01.2026 22:06 21,8 °C 2,4 °C 50 % 92 % 1016,7 hPa 0,0 l/m² 0,0 km/h (0 Bft) N 0 ° 0 min 0 W/m² 1,2 °C 2,4 °C 0,0 km/h (0 Bft)
14.01.2026 22:07 21,8 °C 2,5 °C 50 % 92 % 1016,7 hPa 0,0 l/m² 0,0 km/h (0 Bft) N 0 ° 0 min 0 W/m² 1,3 °C 2,5 °C 0,0 km/h (0 Bft)
14.01.2026 22:08 21,8 °C 2,4 °C 50 % 92 % 1016,7 hPa 0,0 l/m² 0,0 km/h (0 Bft) N 0 ° 0 min 0 W/m² 1,2 °C 2,4 °C 0,0 km/h (0 Bft)
14.01.2026 22:09 21,8 °C 2,5 °C 50 % 92 % 1016,7 hPa 0,0 l/m² 0,0 km/h (0 Bft) N 0 ° 0 min 0 W/m² 1,3 °C 2,5 °C 0,0 km/h (0 Bft)
14.01.2026 22:10 21,8 °C 2,5 °C 50 % 92 % 1016,7 hPa 0,0 l/m² 0,0 km/h (0 Bft) N 0 ° 0 min 0 W/m² 1,3 °C 2,5 °C 0,0 km/h (0 Bft)
14.01.2026 22:11 21,8 °C 2,6 °C 50 % 92 % 1016,7 hPa 0,0 l/m² 0,0 km/h (0 Bft) N 0 ° 0 min 0 W/m² 1,4 °C 2,6 °C 0,0 km/h (0 Bft)
14.01.2026 22:12 21,8 °C 2,5 °C 50 % 92 % 1016,6 hPa 0,0 l/m² 0,0 km/h (0 Bft) N 0 ° 0 min 0 W/m² 1,3 °C 2,5 °C 0,0 km/h (0 Bft)
14.01.2026 22:13 21,8 °C 2,6 °C 50 % 93 % 1016,6 hPa 0,0 l/m² 0,0 km/h (0 Bft) N 0 ° 0 min 0 W/m² 1,6 °C 2,6 °C 0,0 km/h (0 Bft)
14.01.2026 22:14 21,8 °C 2,6 °C 50 % 92 % 1016,7 hPa 0,0 l/m² 0,0 km/h (0 Bft) N 0 ° 0 min 0 W/m² 1,4 °C 2,6 °C 0,0 km/h (0 Bft)
14.01.2026 22:15 21,8 °C 2,6 °C 50 % 93 % 1016,7 hPa 0,0 l/m² 0,0 km/h (0 Bft) N 0 ° 0 min 0 W/m² 1,6 °C 2,6 °C 0,0 km/h (0 Bft)
14.01.2026 22:16 21,8 °C 2,6 °C 50 % 93 % 1016,7 hPa 0,0 l/m² 0,0 km/h (0 Bft) N 0 ° 0 min 0 W/m² 1,6 °C 2,6 °C 0,0 km/h (0 Bft)
14.01.2026 22:17 21,8 °C 2,6 °C 50 % 93 % 1016,7 hPa 0,0 l/m² 0,0 km/h (0 Bft) N 0 ° 0 min 0 W/m² 1,6 °C 2,6 °C 0,0 km/h (0 Bft)
14.01.2026 22:18 21,8 °C 2,6 °C 50 % 93 % 1016,7 hPa 0,0 l/m² 0,0 km/h (0 Bft) N 0 ° 0 min 0 W/m² 1,6 °C 2,6 °C 0,0 km/h (0 Bft)
14.01.2026 22:19 21,8 °C 2,6 °C 50 % 93 % 1016,6 hPa 0,0 l/m² 0,0 km/h (0 Bft) N 0 ° 0 min 0 W/m² 1,6 °C 2,6 °C 0,0 km/h (0 Bft)
14.01.2026 22:20 21,8 °C 2,6 °C 50 % 93 % 1016,6 hPa 0,0 l/m² 0,0 km/h (0 Bft) N 0 ° 0 min 0 W/m² 1,6 °C 2,6 °C 0,0 km/h (0 Bft)
14.01.2026 22:21 21,8 °C 2,6 °C 50 % 93 % 1016,7 hPa 0,0 l/m² 0,0 km/h (0 Bft) N 0 ° 0 min 0 W/m² 1,6 °C 2,6 °C 0,0 km/h (0 Bft)
14.01.2026 22:22 21,8 °C 2,7 °C 50 % 93 % 1016,6 hPa 0,0 l/m² 0,0 km/h (0 Bft) N 0 ° 0 min 0 W/m² 1,7 °C 2,7 °C 0,0 km/h (0 Bft)
14.01.2026 22:23 21,8 °C 2,7 °C 50 % 93 % 1016,7 hPa 0,0 l/m² 0,0 km/h (0 Bft) N 0 ° 0 min 0 W/m² 1,7 °C 2,7 °C 0,0 km/h (0 Bft)
14.01.2026 22:24 21,8 °C 2,7 °C 50 % 93 % 1016,7 hPa 0,0 l/m² 0,0 km/h (0 Bft) N 0 ° 0 min 0 W/m² 1,7 °C 2,7 °C 0,0 km/h (0 Bft)
14.01.2026 22:25 21,8 °C 2,7 °C 50 % 93 % 1016,6 hPa 0,0 l/m² 0,0 km/h (0 Bft) N 0 ° 0 min 0 W/m² 1,7 °C 2,7 °C 0,0 km/h (0 Bft)
14.01.2026 22:26 21,8 °C 2,7 °C 50 % 93 % 1016,6 hPa 0,0 l/m² 0,0 km/h (0 Bft) N 0 ° 0 min 0 W/m² 1,7 °C 2,7 °C 0,0 km/h (0 Bft)
14.01.2026 22:27 21,8 °C 2,7 °C 50 % 93 % 1016,6 hPa 0,0 l/m² 0,0 km/h (0 Bft) N 0 ° 0 min 0 W/m² 1,7 °C 2,7 °C 0,0 km/h (0 Bft)
14.01.2026 22:28 21,8 °C 2,7 °C 50 % 93 % 1016,5 hPa 0,0 l/m² 0,0 km/h (0 Bft) SW 225 ° 0 min 0 W/m² 1,7 °C 2,7 °C 1,6 km/h (1 Bft)
14.01.2026 22:29 21,8 °C 2,7 °C 50 % 93 % 1016,5 hPa 0,0 l/m² 0,0 km/h (0 Bft) N 0 ° 0 min 0 W/m² 1,7 °C 2,7 °C 0,0 km/h (0 Bft)
14.01.2026 22:30 21,8 °C 2,8 °C 50 % 93 % 1016,5 hPa 0,0 l/m² 0,0 km/h (0 Bft) N 0 ° 0 min 0 W/m² 1,8 °C 2,8 °C 0,0 km/h (0 Bft)
14.01.2026 22:31 21,8 °C 2,8 °C 50 % 93 % 1016,6 hPa 0,0 l/m² 0,0 km/h (0 Bft) N 0 ° 0 min 0 W/m² 1,8 °C 2,8 °C 0,0 km/h (0 Bft)
14.01.2026 22:32 21,8 °C 2,8 °C 50 % 93 % 1016,6 hPa 0,0 l/m² 0,0 km/h (0 Bft) N 0 ° 0 min 0 W/m² 1,8 °C 2,8 °C 0,0 km/h (0 Bft)
14.01.2026 22:33 21,8 °C 2,8 °C 50 % 93 % 1016,6 hPa 0,0 l/m² 0,0 km/h (0 Bft) N 0 ° 0 min 0 W/m² 1,8 °C 2,8 °C 0,0 km/h (0 Bft)
14.01.2026 22:34 21,8 °C 2,8 °C 50 % 93 % 1016,5 hPa 0,0 l/m² 0,0 km/h (0 Bft) N 0 ° 0 min 0 W/m² 1,8 °C 2,8 °C 0,0 km/h (0 Bft)
14.01.2026 22:35 21,8 °C 2,8 °C 50 % 93 % 1016,6 hPa 0,0 l/m² 0,0 km/h (0 Bft) N 0 ° 0 min 0 W/m² 1,8 °C 2,8 °C 0,0 km/h (0 Bft)
14.01.2026 22:36 21,8 °C 2,8 °C 50 % 93 % 1016,6 hPa 0,0 l/m² 0,0 km/h (0 Bft) N 0 ° 0 min 0 W/m² 1,8 °C 2,8 °C 0,0 km/h (0 Bft)
14.01.2026 22:37 21,8 °C 2,8 °C 50 % 93 % 1016,6 hPa 0,0 l/m² 0,0 km/h (0 Bft) N 0 ° 0 min 0 W/m² 1,8 °C 2,8 °C 0,0 km/h (0 Bft)
14.01.2026 22:38 21,8 °C 2,8 °C 50 % 93 % 1016,5 hPa 0,0 l/m² 0,0 km/h (0 Bft) N 0 ° 0 min 0 W/m² 1,8 °C 2,8 °C 0,0 km/h (0 Bft)
14.01.2026 22:39 21,8 °C 2,8 °C 50 % 93 % 1016,6 hPa 0,0 l/m² 0,0 km/h (0 Bft) N 0 ° 0 min 0 W/m² 1,8 °C 2,8 °C 0,0 km/h (0 Bft)
14.01.2026 22:40 21,8 °C 2,8 °C 50 % 93 % 1016,6 hPa 0,0 l/m² 0,0 km/h (0 Bft) N 0 ° 0 min 0 W/m² 1,8 °C 2,8 °C 0,0 km/h (0 Bft)
14.01.2026 22:41 21,8 °C 2,8 °C 50 % 93 % 1016,6 hPa 0,0 l/m² 0,0 km/h (0 Bft) N 0 ° 0 min 0 W/m² 1,8 °C 2,8 °C 0,0 km/h (0 Bft)
14.01.2026 22:42 21,8 °C 2,8 °C 50 % 93 % 1016,5 hPa 0,0 l/m² 0,0 km/h (0 Bft) N 0 ° 0 min 0 W/m² 1,8 °C 2,8 °C 0,0 km/h (0 Bft)
14.01.2026 22:43 21,8 °C 2,8 °C 50 % 93 % 1016,5 hPa 0,0 l/m² 0,0 km/h (0 Bft) N 0 ° 0 min 0 W/m² 1,8 °C 2,8 °C 0,0 km/h (0 Bft)
14.01.2026 22:44 21,8 °C 2,8 °C 50 % 93 % 1016,5 hPa 0,0 l/m² 0,0 km/h (0 Bft) N 0 ° 0 min 0 W/m² 1,8 °C 2,8 °C 0,0 km/h (0 Bft)
14.01.2026 22:45 21,8 °C 2,8 °C 50 % 93 % 1016,6 hPa 0,0 l/m² 0,0 km/h (0 Bft) N 0 ° 0 min 0 W/m² 1,8 °C 2,8 °C 0,0 km/h (0 Bft)
14.01.2026 22:46 21,8 °C 2,8 °C 50 % 92 % 1016,5 hPa 0,0 l/m² 0,0 km/h (0 Bft) N 0 ° 0 min 0 W/m² 1,6 °C 2,8 °C 0,0 km/h (0 Bft)
14.01.2026 22:47 21,8 °C 2,8 °C 50 % 92 % 1016,5 hPa 0,0 l/m² 0,0 km/h (0 Bft) N 0 ° 0 min 0 W/m² 1,6 °C 2,8 °C 0,0 km/h (0 Bft)
14.01.2026 22:48 21,8 °C 2,8 °C 50 % 93 % 1016,5 hPa 0,0 l/m² 0,0 km/h (0 Bft) N 0 ° 0 min 0 W/m² 1,8 °C 2,8 °C 0,0 km/h (0 Bft)
14.01.2026 22:49 21,8 °C 2,8 °C 50 % 93 % 1016,5 hPa 0,0 l/m² 0,0 km/h (0 Bft) N 0 ° 0 min 0 W/m² 1,8 °C 2,8 °C 0,0 km/h (0 Bft)
14.01.2026 22:50 21,8 °C 2,8 °C 50 % 93 % 1016,5 hPa 0,0 l/m² 0,0 km/h (0 Bft) N 0 ° 0 min 0 W/m² 1,8 °C 2,8 °C 0,0 km/h (0 Bft)
14.01.2026 22:51 21,8 °C 2,8 °C 50 % 93 % 1016,5 hPa 0,0 l/m² 0,0 km/h (0 Bft) N 0 ° 0 min 0 W/m² 1,8 °C 2,8 °C 0,0 km/h (0 Bft)
14.01.2026 22:52 21,8 °C 2,8 °C 50 % 93 % 1016,5 hPa 0,0 l/m² 0,0 km/h (0 Bft) N 0 ° 0 min 0 W/m² 1,8 °C 2,8 °C 0,0 km/h (0 Bft)
14.01.2026 22:53 21,8 °C 2,8 °C 50 % 93 % 1016,5 hPa 0,0 l/m² 0,0 km/h (0 Bft) N 0 ° 0 min 0 W/m² 1,8 °C 2,8 °C 0,0 km/h (0 Bft)
14.01.2026 22:54 21,8 °C 2,8 °C 50 % 93 % 1016,5 hPa 0,0 l/m² 0,0 km/h (0 Bft) N 0 ° 0 min 0 W/m² 1,8 °C 2,8 °C 0,0 km/h (0 Bft)
14.01.2026 22:55 21,8 °C 2,8 °C 50 % 93 % 1016,5 hPa 0,0 l/m² 0,0 km/h (0 Bft) N 0 ° 0 min 0 W/m² 1,8 °C 2,8 °C 0,0 km/h (0 Bft)
14.01.2026 22:56 21,8 °C 2,8 °C 50 % 93 % 1016,5 hPa 0,0 l/m² 0,0 km/h (0 Bft) N 0 ° 0 min 0 W/m² 1,8 °C 2,8 °C 0,0 km/h (0 Bft)
14.01.2026 22:57 21,8 °C 2,8 °C 50 % 93 % 1016,5 hPa 0,0 l/m² 0,0 km/h (0 Bft) N 0 ° 0 min 0 W/m² 1,8 °C 2,8 °C 0,0 km/h (0 Bft)
14.01.2026 22:58 21,8 °C 2,8 °C 50 % 93 % 1016,5 hPa 0,0 l/m² 0,0 km/h (0 Bft) N 0 ° 0 min 0 W/m² 1,8 °C 2,8 °C 0,0 km/h (0 Bft)
14.01.2026 22:59 21,8 °C 2,8 °C 50 % 93 % 1016,5 hPa 0,0 l/m² 0,0 km/h (0 Bft) N 0 ° 0 min 0 W/m² 1,8 °C 2,8 °C 0,0 km/h (0 Bft)
14.01.2026 23:00 21,8 °C 2,8 °C 50 % 93 % 1016,5 hPa 0,0 l/m² 0,0 km/h (0 Bft) N 0 ° 0 min 0 W/m² 1,8 °C 2,8 °C 0,0 km/h (0 Bft)
14.01.2026 23:01 21,8 °C 2,8 °C 50 % 93 % 1016,4 hPa 0,0 l/m² 0,0 km/h (0 Bft) N 0 ° 0 min 0 W/m² 1,8 °C 2,8 °C 0,0 km/h (0 Bft)
14.01.2026 23:02 21,7 °C 2,8 °C 50 % 93 % 1016,5 hPa 0,0 l/m² 0,0 km/h (0 Bft) N 0 ° 0 min 0 W/m² 1,8 °C 2,8 °C 0,0 km/h (0 Bft)
14.01.2026 23:03 21,8 °C 2,8 °C 50 % 93 % 1016,4 hPa 0,0 l/m² 0,0 km/h (0 Bft) N 0 ° 0 min 0 W/m² 1,8 °C 2,8 °C 0,0 km/h (0 Bft)
14.01.2026 23:04 21,8 °C 2,8 °C 50 % 93 % 1016,4 hPa 0,0 l/m² 0,0 km/h (0 Bft) N 0 ° 0 min 0 W/m² 1,8 °C 2,8 °C 0,0 km/h (0 Bft)
14.01.2026 23:05 21,8 °C 2,8 °C 50 % 93 % 1016,5 hPa 0,0 l/m² 0,0 km/h (0 Bft) N 0 ° 0 min 0 W/m² 1,8 °C 2,8 °C 0,0 km/h (0 Bft)
14.01.2026 23:06 21,8 °C 2,8 °C 50 % 93 % 1016,4 hPa 0,0 l/m² 0,0 km/h (0 Bft) N 0 ° 0 min 0 W/m² 1,8 °C 2,8 °C 0,0 km/h (0 Bft)
14.01.2026 23:07 21,8 °C 2,8 °C 50 % 93 % 1016,4 hPa 0,0 l/m² 0,0 km/h (0 Bft) N 0 ° 0 min 0 W/m² 1,8 °C 2,8 °C 0,0 km/h (0 Bft)
14.01.2026 23:08 21,8 °C 2,8 °C 50 % 93 % 1016,5 hPa 0,0 l/m² 0,0 km/h (0 Bft) N 0 ° 0 min 0 W/m² 1,8 °C 2,8 °C 0,0 km/h (0 Bft)
14.01.2026 23:09 21,8 °C 2,8 °C 50 % 93 % 1016,5 hPa 0,0 l/m² 0,0 km/h (0 Bft) N 0 ° 0 min 0 W/m² 1,8 °C 2,8 °C 0,0 km/h (0 Bft)
14.01.2026 23:10 21,8 °C 2,8 °C 50 % 93 % 1016,5 hPa 0,0 l/m² 0,0 km/h (0 Bft) N 0 ° 0 min 0 W/m² 1,8 °C 2,8 °C 0,0 km/h (0 Bft)
14.01.2026 23:11 21,8 °C 2,8 °C 50 % 93 % 1016,5 hPa 0,0 l/m² 0,0 km/h (0 Bft) N 0 ° 0 min 0 W/m² 1,8 °C 2,8 °C 0,0 km/h (0 Bft)
14.01.2026 23:12 21,7 °C 2,8 °C 50 % 93 % 1016,5 hPa 0,0 l/m² 0,0 km/h (0 Bft) N 0 ° 0 min 0 W/m² 1,8 °C 2,8 °C 0,0 km/h (0 Bft)
14.01.2026 23:13 21,8 °C 2,8 °C 50 % 93 % 1016,5 hPa 0,0 l/m² 0,0 km/h (0 Bft) N 0 ° 0 min 0 W/m² 1,8 °C 2,8 °C 0,0 km/h (0 Bft)
14.01.2026 23:14 21,7 °C 2,8 °C 50 % 93 % 1016,4 hPa 0,0 l/m² 0,0 km/h (0 Bft) N 0 ° 0 min 0 W/m² 1,8 °C 2,8 °C 0,0 km/h (0 Bft)
14.01.2026 23:15 21,8 °C 2,7 °C 50 % 93 % 1016,4 hPa 0,0 l/m² 0,0 km/h (0 Bft) N 0 ° 0 min 0 W/m² 1,7 °C 2,7 °C 0,0 km/h (0 Bft)
14.01.2026 23:16 21,8 °C 2,8 °C 50 % 93 % 1016,5 hPa 0,0 l/m² 0,0 km/h (0 Bft) N 0 ° 0 min 0 W/m² 1,8 °C 2,8 °C 0,0 km/h (0 Bft)
14.01.2026 23:17 21,7 °C 2,8 °C 50 % 93 % 1016,5 hPa 0,0 l/m² 0,0 km/h (0 Bft) N 0 ° 0 min 0 W/m² 1,8 °C 2,8 °C 0,0 km/h (0 Bft)
14.01.2026 23:22 21,7 °C 2,7 °C 50 % 93 % 1016,4 hPa 0,0 l/m² 0,0 km/h (0 Bft) SW 231 ° 0 min 0 W/m² 1,7 °C 2,7 °C 0,0 km/h (0 Bft)
14.01.2026 23:24 21,8 °C 2,7 °C 50 % 93 % 1016,5 hPa 0,0 l/m² 0,0 km/h (0 Bft) SW 231 ° 0 min 0 W/m² 1,7 °C 2,7 °C 0,0 km/h (0 Bft)
14.01.2026 23:26 21,7 °C 2,7 °C 50 % 93 % 1016,4 hPa 0,0 l/m² 0,0 km/h (0 Bft) SW 231 ° 0 min 0 W/m² 1,7 °C 2,7 °C 0,0 km/h (0 Bft)
14.01.2026 23:27 21,7 °C 2,7 °C 50 % 93 % 1016,4 hPa 0,0 l/m² 0,0 km/h (0 Bft) SW 231 ° 0 min 0 W/m² 1,7 °C 2,7 °C 0,0 km/h (0 Bft)
14.01.2026 23:29 21,7 °C 2,7 °C 50 % 93 % 1016,4 hPa 0,0 l/m² 0,0 km/h (0 Bft) SW 231 ° 0 min 0 W/m² 1,7 °C 2,7 °C 0,0 km/h (0 Bft)
14.01.2026 23:30 21,7 °C 2,7 °C 50 % 93 % 1016,5 hPa 0,0 l/m² 0,0 km/h (0 Bft) SW 231 ° 0 min 0 W/m² 1,7 °C 2,7 °C 0,0 km/h (0 Bft)
14.01.2026 23:32 21,8 °C 2,7 °C 50 % 93 % 1016,5 hPa 0,0 l/m² 0,0 km/h (0 Bft) SW 231 ° 0 min 0 W/m² 1,7 °C 2,7 °C 0,0 km/h (0 Bft)
14.01.2026 23:33 21,7 °C 2,7 °C 50 % 93 % 1016,4 hPa 0,0 l/m² 0,0 km/h (0 Bft) SW 231 ° 0 min 0 W/m² 1,7 °C 2,7 °C 0,0 km/h (0 Bft)
14.01.2026 23:35 21,7 °C 2,6 °C 50 % 93 % 1016,3 hPa 0,0 l/m² 0,0 km/h (0 Bft) SW 231 ° 0 min 0 W/m² 1,6 °C 2,6 °C 0,0 km/h (0 Bft)
14.01.2026 23:36 21,7 °C 2,7 °C 50 % 93 % 1016,3 hPa 0,0 l/m² 0,0 km/h (0 Bft) SW 231 ° 0 min 0 W/m² 1,7 °C 2,7 °C 0,0 km/h (0 Bft)
14.01.2026 23:38 21,7 °C 2,7 °C 50 % 93 % 1016,3 hPa 0,0 l/m² 0,0 km/h (0 Bft) SW 231 ° 0 min 0 W/m² 1,7 °C 2,7 °C 0,0 km/h (0 Bft)
14.01.2026 23:39 21,7 °C 2,7 °C 50 % 93 % 1016,3 hPa 0,0 l/m² 0,0 km/h (0 Bft) SW 231 ° 0 min 0 W/m² 1,7 °C 2,7 °C 0,0 km/h (0 Bft)
14.01.2026 23:41 21,7 °C 2,7 °C 50 % 93 % 1016,4 hPa 0,0 l/m² 0,0 km/h (0 Bft) SW 231 ° 0 min 0 W/m² 1,7 °C 2,7 °C 0,0 km/h (0 Bft)
14.01.2026 23:42 21,7 °C 2,6 °C 50 % 93 % 1016,4 hPa 0,0 l/m² 0,0 km/h (0 Bft) SW 231 ° 0 min 0 W/m² 1,6 °C 2,6 °C 0,0 km/h (0 Bft)
14.01.2026 23:43 21,7 °C 2,7 °C 50 % 93 % 1016,4 hPa 0,0 l/m² 0,0 km/h (0 Bft) SW 231 ° 0 min 0 W/m² 1,7 °C 2,7 °C 0,0 km/h (0 Bft)
14.01.2026 23:45 21,7 °C 2,7 °C 50 % 93 % 1016,4 hPa 0,0 l/m² 0,0 km/h (0 Bft) SW 231 ° 0 min 0 W/m² 1,7 °C 2,7 °C 0,0 km/h (0 Bft)
14.01.2026 23:47 21,7 °C 2,7 °C 50 % 93 % 1016,4 hPa 0,0 l/m² 0,0 km/h (0 Bft) SW 231 ° 0 min 0 W/m² 1,7 °C 2,7 °C 0,0 km/h (0 Bft)
14.01.2026 23:49 21,7 °C 2,7 °C 50 % 93 % 1016,4 hPa 0,0 l/m² 0,0 km/h (0 Bft) SW 231 ° 0 min 0 W/m² 1,7 °C 2,7 °C 0,0 km/h (0 Bft)
14.01.2026 23:50 21,7 °C 2,7 °C 50 % 93 % 1016,4 hPa 0,0 l/m² 0,0 km/h (0 Bft) SW 231 ° 0 min 0 W/m² 1,7 °C 2,7 °C 0,0 km/h (0 Bft)
14.01.2026 23:52 21,7 °C 2,7 °C 50 % 93 % 1016,4 hPa 0,0 l/m² 0,0 km/h (0 Bft) SW 231 ° 0 min 0 W/m² 1,7 °C 2,7 °C 0,0 km/h (0 Bft)
14.01.2026 23:53 21,7 °C 2,7 °C 50 % 93 % 1016,5 hPa 0,0 l/m² 0,0 km/h (0 Bft) SW 231 ° 0 min 0 W/m² 1,7 °C 2,7 °C 0,0 km/h (0 Bft)
14.01.2026 23:55 21,7 °C 2,8 °C 50 % 93 % 1016,4 hPa 0,0 l/m² 0,0 km/h (0 Bft) SW 231 ° 0 min 0 W/m² 1,8 °C 2,8 °C 0,0 km/h (0 Bft)
14.01.2026 23:57 21,7 °C 2,8 °C 50 % 93 % 1016,4 hPa 0,0 l/m² 0,0 km/h (0 Bft) SW 231 ° 0 min 0 W/m² 1,8 °C 2,8 °C 0,0 km/h (0 Bft)
14.01.2026 23:59 21,7 °C 2,8 °C 50 % 93 % 1016,4 hPa 0,0 l/m² 0,0 km/h (0 Bft) SW 231 ° 0 min 0 W/m² 1,8 °C 2,8 °C 0,0 km/h (0 Bft)
_ Min-Zeit 17:30 22:08 10:35 09:16 05:33 - 23:59 - - - - 22:08 07:16 23:59
Minimum _ 21,6 °C 2,4 °C 48 % 88 % 1010,2 hPa - 0,0 km/h (0 Bft) - - - - 1,2 °C -2,0 °C 0,0 km/h (0 Bft)
_ Max-Zeit 21:49 14:54 21:41 07:41 22:03 23:59 12:52 - - 12:06 12:21 07:51 14:54 12:52
Maximum _ 21,9 °C 6,4 °C 51 % 94 % 1016,8 hPa 0,0 l/m² 18,5 km/h
SW (3 Bft)
- - 6 min 105 W/m² 5,1 °C 6,4 °C 24,1 km/h
SW (4 Bft)
Durchschnitt _ 21,7 °C 4,3 °C 49 % 91 % 1013,3 hPa #0,0 l/m² 3,0 km/h (1 Bft) N - #2:39 h 13 W/m² 3,0 °C 3,8 °C 4,5 km/h (1 Bft)
© 2009 Mathias Hoßbach